[[{"header":{"parameterUnit":"m.s-1","parameterCategory":1,"la1":30.6,"la2":28.766,"lo1":-90.7593,"lo2":-88.6598,"dy":0.0162,"dx":0.0183,"nx":116,"ny":114,"refTime":"2024-03-30T00:00:00:Z","depth":0,"parameterNumber":2,"parameterNumberName":"U-component_of_WINDS"},"data":[0.0,0.0,0.0,0.0,0.0,0.0,0.0,0.0,0.0,0.0,0.0,0.0,0.0,0.0,0.0,0.0,0.0,0.0,0.0,0.0,0.0,0.0,0.0,0.0,0.0,0.0,0.0,0.0,0.0,0.0,0.0,0.0,0.0,0.0,0.0,0.0,0.0,0.0,0.0,0.0,0.0,0.0,0.0,0.0,0.0,0.0,0.0,0.0,0.0,0.0,0.0,0.0,0.0,0.0,0.0,0.0,0.0,0.0,0.0,0.0,0.0,0.0,0.0,0.0,0.0,0.0,0.0,0.0,0.0,0.0,0.0,0.0,0.0,0.0,0.0,0.0,0.0,0.0,0.0,0.0,0.0,0.0,0.0,0.0,0.0,0.0,0.0,0.0,0.0,0.0,0.0,0.0,0.0,0.0,0.0,0.0,0.0,0.0,0.0,0.0,0.0,0.0,0.0,0.0,0.0,0.0,0.0,0.0,0.0,0.0,0.0,0.0,0.0,0.0,0.0,0.0,0.0,0.0,0.0,0.0,0.0,0.0,0.0,0.0,0.0,0.0,0.0,0.0,0.0,0.0,0.0,0.0,0.0,0.0,0.0,0.0,0.0,0.0,0.0,0.0,0.0,0.0,0.0,0.0,0.0,0.0,0.0,0.0,0.0,0.0,0.0,0.0,0.0,0.0,0.0,0.0,0.0,0.0,0.0,0.0,0.0,0.0,0.0,0.0,0.0,0.0,0.0,0.0,0.0,0.0,0.0,0.0,0.0,0.0,0.0,0.0,0.0,0.0,0.0,0.0,0.0,0.0,0.0,0.0,0.0,0.0,0.0,0.0,0.0,0.0,0.0,0.0,0.0,0.0,0.0,0.0,0.0,0.0,0.0,0.0,0.0,0.0,0.0,0.0,0.0,0.0,0.0,0.0,0.0,0.0,0.0,0.0,0.0,0.0,0.0,0.0,0.0,0.0,0.0,0.0,0.0,0.0,0.0,0.0,0.0,0.0,0.0,0.0,0.0,0.0,0.0,0.0,0.0,0.0,0.0,0.0,0.0,0.0,0.0,0.0,0.0,0.0,0.0,0.0,0.0,0.0,0.0,0.0,0.0,0.0,0.0,0.0,0.0,0.0,0.0,0.0,0.0,0.0,0.0,0.0,0.0,0.0,0.0,0.0,0.0,0.0,0.0,0.0,0.0,0.0,0.0,0.0,0.0,0.0,0.0,0.0,0.0,0.0,0.0,0.0,0.0,0.0,0.0,0.0,0.0,0.0,0.0,0.0,0.0,0.0,0.0,0.0,0.0,0.0,0.0,0.0,0.0,0.0,0.0,0.0,0.0,0.0,0.0,0.0,0.0,0.0,0.0,0.0,0.0,0.0,0.0,0.0,0.0,0.0,0.0,0.0,0.0,0.0,0.0,0.0,0.0,0.0,0.0,0.0,0.0,0.0,0.0,0.0,0.0,0.0,0.0,0.0,0.0,0.0,0.0,0.0,0.0,0.0,0.0,0.0,0.0,0.0,0.0,0.0,0.0,0.0,0.0,0.0,0.0,0.0,0.0,0.0,0.0,0.0,0.0,0.0,0.0,0.0,0.0,0.0,0.0,0.0,0.0,0.0,0.0,0.0,0.0,0.0,0.0,0.0,0.0,0.0,0.0,0.0,0.0,0.0,0.0,0.0,0.0,0.0,0.0,0.0,0.0,0.0,0.0,0.0,0.0,0.0,0.0,0.0,0.0,0.0,0.0,0.0,0.0,0.0,0.0,0.0,0.0,0.0,0.0,0.0,0.0,0.0,0.0,0.0,0.0,0.0,0.0,0.0,0.0,0.0,0.0,0.0,0.0,0.0,0.0,0.0,0.0,0.0,0.0,0.0,0.0,0.0,0.0,0.0,0.0,0.0,0.0,0.0,0.0,0.0,0.0,0.0,0.0,0.0,0.0,0.0,0.0,0.0,0.0,0.0,0.0,0.0,0.0,0.0,0.0,0.0,0.0,0.0,0.0,0.0,0.0,0.0,0.0,0.0,0.0,0.0,0.0,0.0,0.0,0.0,0.0,0.0,0.0,0.0,0.0,0.0,0.0,0.0,0.0,0.0,0.0,0.0,0.0,0.0,0.0,0.0,0.0,0.0,0.0,0.0,0.0,0.0,0.0,0.0,0.0,0.0,0.0,0.0,0.0,0.0,0.0,0.0,0.0,0.0,0.0,0.0,0.0,0.0,0.0,0.0,0.0,0.0,0.0,0.0,0.0,0.0,0.0,0.0,0.0,0.0,0.0,0.0,0.0,0.0,0.0,0.0,0.0,0.0,0.0,0.0,0.0,0.0,0.0,0.0,0.0,0.0,0.0,0.0,0.0,0.0,0.0,0.0,0.0,0.0,0.0,0.0,0.0,0.0,0.0,0.0,0.0,0.0,0.0,0.0,0.0,0.0,0.0,0.0,0.0,0.0,0.0,0.0,0.0,0.0,0.0,0.0,0.0,0.0,0.0,0.0,0.0,0.0,0.0,0.0,0.0,0.0,0.0,0.0,0.0,0.0,0.0,0.0,0.0,0.0,0.0,0.0,0.0,0.0,0.0,0.0,0.0,0.0,0.0,0.0,0.0,0.0,0.0,0.0,0.0,0.0,0.0,0.0,0.0,0.0,0.0,0.0,0.0,0.0,0.0,0.0,0.0,0.0,0.0,0.0,0.0,0.0,0.0,0.0,0.0,0.0,0.0,0.0,0.0,0.0,0.0,0.0,0.0,0.0,0.0,0.0,0.0,0.0,0.0,0.0,0.0,0.0,0.0,0.0,0.0,0.0,0.0,0.0,0.0,0.0,0.0,0.0,0.0,0.0,0.0,0.0,0.0,0.0,0.0,0.0,0.0,0.0,0.0,0.0,0.0,0.0,0.0,0.0,0.0,0.0,0.0,0.0,0.0,0.0,0.0,0.0,0.0,0.0,0.0,0.0,0.0,0.0,0.0,0.0,0.0,0.0,0.0,0.0,0.0,0.0,0.0,0.0,0.0,0.0,0.0,0.0,0.0,0.0,0.0,0.0,0.0,0.0,0.0,0.0,0.0,0.0,0.0,0.0,0.0,0.0,0.0,0.0,0.0,0.0,0.0,0.0,0.0,0.0,0.0,0.0,0.0,0.0,0.0,0.0,0.0,0.0,0.0,0.0,0.0,0.0,0.0,0.0,0.0,0.0,0.0,0.0,0.0,0.0,0.0,0.0,0.0,0.0,0.0,0.0,0.0,0.0,0.0,0.0,0.0,0.0,0.0,0.0,0.0,0.0,0.0,0.0,0.0,0.0,0.0,0.0,0.0,0.0,0.0,0.0,0.0,0.0,0.0,0.0,0.0,0.0,0.0,0.0,0.0,0.0,0.0,0.0,0.0,0.0,0.0,0.0,0.0,0.0,0.0,0.0,0.0,0.0,0.0,0.0,0.0,0.0,0.0,0.0,0.0,0.0,0.0,0.0,0.0,0.0,0.0,0.0,0.0,0.0,0.0,0.0,0.0,0.0,0.0,0.0,0.0,0.0,0.0,0.0,0.0,0.0,0.0,0.0,0.0,0.0,0.0,0.0,0.0,0.0,0.0,0.0,0.0,0.0,0.0,0.0,0.0,0.0,0.0,0.0,0.0,0.0,0.0,0.0,0.0,0.0,0.0,0.0,0.0,0.0,0.0,0.0,0.0,0.0,0.0,0.0,0.0,0.0,0.0,0.0,0.0,0.0,0.0,0.0,0.0,0.0,0.0,0.0,0.0,0.0,0.0,0.0,0.0,0.0,0.0,0.0,0.0,0.0,0.0,0.0,0.0,0.0,0.0,0.0,0.0,0.0,0.0,0.0,0.0,0.0,0.0,0.0,0.0,0.0,0.0,0.0,0.0,0.0,0.0,0.0,0.0,0.0,0.0,0.0,0.0,0.0,0.0,0.0,0.0,0.0,0.0,0.0,0.0,0.0,0.0,0.0,0.0,0.0,0.0,0.0,0.0,0.0,0.0,0.0,0.0,0.0,0.0,0.0,0.0,0.0,0.0,0.0,0.0,0.0,0.0,0.0,0.0,0.0,0.0,0.0,0.0,0.0,0.0,0.0,0.0,0.0,0.0,0.0,0.0,0.0,0.0,0.0,0.0,0.0,0.0,0.0,0.0,0.0,0.0,0.0,0.0,0.0,0.0,0.0,0.0,0.0,0.0,0.0,0.0,0.0,0.0,0.0,0.0,0.0,0.0,0.0,0.0,0.0,0.0,0.0,0.0,0.0,0.0,0.0,0.0,0.0,0.0,0.0,0.0,0.0,0.0,0.0,0.0,0.0,0.0,0.0,0.0,0.0,0.0,0.0,0.0,0.0,0.0,0.0,0.0,0.0,0.0,0.0,0.0,0.0,0.0,0.0,0.0,0.0,0.0,0.0,0.0,0.0,0.0,0.0,0.0,0.0,0.0,0.0,0.0,0.0,0.0,0.0,0.0,0.0,0.0,0.0,0.0,0.0,0.0,0.0,0.0,0.0,0.0,0.0,0.0,0.0,0.0,0.0,0.0,0.0,0.0,0.0,0.0,0.0,0.0,0.0,0.0,0.0,0.0,0.0,0.0,0.0,0.0,0.0,0.0,0.0,0.0,0.0,0.0,0.0,0.0,0.0,0.0,0.0,0.0,0.0,0.0,0.0,0.0,0.0,0.0,0.0,0.0,0.0,0.0,0.0,0.0,0.0,0.0,0.0,0.0,0.0,0.0,0.0,0.0,0.0,0.0,0.0,0.0,0.0,0.0,0.0,0.0,0.0,0.0,0.0,0.0,0.0,0.0,0.0,0.0,0.0,0.0,0.0,0.0,0.0,0.0,0.0,0.0,0.0,0.0,0.0,0.0,0.0,0.0,0.0,0.0,0.0,0.0,0.0,0.0,0.0,0.0,0.0,0.0,0.0,0.0,0.0,0.0,0.0,0.0,0.0,0.0,0.0,0.0,0.0,0.0,0.0,0.0,0.0,0.0,0.0,0.0,0.0,0.0,0.0,0.0,0.0,0.0,0.0,0.0,0.0,0.0,0.0,0.0,0.0,0.0,0.0,0.0,0.0,0.0,0.0,0.0,0.0,0.0,0.0,0.0,0.0,0.0,0.0,0.0,0.0,0.0,0.0,0.0,0.0,0.0,0.0,0.0,0.0,0.0,0.0,0.0,0.0,0.0,0.0,0.0,0.0,0.0,0.0,0.0,0.0,0.0,0.0,0.0,0.0,0.0,0.0,0.0,0.0,0.0,0.0,0.0,0.0,0.0,0.0,0.0,0.0,0.0,0.0,0.0,0.0,0.0,0.0,0.0,0.0,0.0,0.0,0.0,0.0,0.0,0.0,0.0,0.0,0.0,0.0,0.0,0.0,0.0,0.0,0.0,0.0,0.0,0.0,0.0,0.0,0.0,0.0,0.0,0.0,0.0,0.0,0.0,0.0,0.0,0.0,0.0,0.0,0.0,0.0,0.0,0.0,0.0,0.0,0.0,0.0,0.0,0.0,0.0,0.0,0.0,0.0,0.0,0.0,0.0,0.0,0.0,0.0,0.0,0.0,0.0,0.0,0.0,0.0,0.0,0.0,0.0,0.0,0.0,0.0,0.0,0.0,0.0,0.0,0.0,0.0,0.0,0.0,0.0,0.0,0.0,0.0,0.0,0.0,0.0,0.0,0.0,0.0,0.0,0.0,0.0,0.0,0.0,0.0,0.0,0.0,0.0,0.0,0.0,0.0,0.0,0.0,0.0,0.0,0.0,0.0,0.0,0.0,0.0,0.0,0.0,0.0,0.0,0.0,0.0,0.0,0.0,0.0,0.0,0.0,0.0,0.0,0.0,0.0,0.0,0.0,0.0,0.0,0.0,0.0,0.0,0.0,0.0,0.0,0.0,0.0,0.0,0.0,0.0,0.0,0.0,0.0,0.0,0.0,0.0,0.0,0.0,0.0,0.0,0.0,0.0,0.0,0.0,0.0,0.0,0.0,0.0,0.0,0.0,0.0,0.0,0.0,0.0,0.0,0.0,0.0,0.0,0.0,0.0,0.0,0.0,0.0,0.0,0.0,0.0,0.0,0.0,0.0,0.0,0.0,0.0,0.0,0.0,0.0,0.0,0.0,-3.9639,-3.9576,0.0,0.0,0.0,0.0,0.0,0.0,0.0,0.0,0.0,0.0,0.0,0.0,0.0,0.0,0.0,0.0,0.0,0.0,0.0,0.0,0.0,0.0,0.0,-3.7947,-3.9052,-4.0655,-4.0681,-4.0552,-4.0408,0.0,0.0,0.0,0.0,0.0,-3.5835,-3.5836,-3.5871,-3.5828,-3.5431,-3.5886,-3.7063,-3.6695,-3.6367,-3.6132,0.0,0.0,0.0,0.0,0.0,0.0,0.0,0.0,0.0,0.0,0.0,0.0,0.0,0.0,0.0,0.0,0.0,0.0,0.0,0.0,0.0,0.0,0.0,0.0,0.0,0.0,0.0,0.0,0.0,0.0,0.0,0.0,0.0,0.0,0.0,0.0,0.0,0.0,0.0,0.0,0.0,0.0,0.0,0.0,0.0,0.0,0.0,0.0,0.0,0.0,0.0,0.0,0.0,0.0,0.0,0.0,0.0,0.0,0.0,0.0,0.0,0.0,0.0,0.0,0.0,0.0,0.0,0.0,0.0,0.0,-4.0696,-4.0086,0.0,0.0,0.0,0.0,0.0,0.0,0.0,0.0,0.0,0.0,0.0,0.0,0.0,0.0,0.0,0.0,0.0,0.0,0.0,0.0,0.0,-3.4366,-3.6912,-3.7864,-3.8941,-4.0545,-4.0559,-4.0436,-4.0291,-4.0301,0.0,0.0,-3.9154,-3.8753,-3.7749,-3.7209,-3.719,-3.7729,-3.7326,-3.7483,-3.8109,-3.8356,-3.8122,-3.749,-3.7181,0.0,0.0,0.0,0.0,0.0,0.0,0.0,0.0,0.0,0.0,0.0,0.0,0.0,0.0,0.0,0.0,0.0,0.0,0.0,0.0,0.0,0.0,0.0,0.0,0.0,0.0,0.0,0.0,0.0,0.0,0.0,0.0,0.0,0.0,0.0,0.0,0.0,0.0,0.0,0.0,0.0,0.0,0.0,0.0,0.0,0.0,0.0,0.0,0.0,0.0,0.0,0.0,0.0,0.0,0.0,0.0,0.0,0.0,0.0,0.0,0.0,0.0,0.0,-4.2682,-4.2958,-4.3378,-4.3524,-4.3506,-4.3306,-4.212,-4.1129,-4.0286,-4.0026,0.0,0.0,0.0,0.0,0.0,0.0,0.0,0.0,0.0,0.0,0.0,0.0,0.0,0.0,0.0,0.0,0.0,0.0,0.0,-3.4378,-3.6922,-3.7868,-3.8913,-4.0488,-4.0545,-4.0427,-4.0225,-4.0263,-3.99,-3.9049,-3.9716,-3.9399,-3.783,-3.8412,-3.8431,-3.7791,-3.9069,-3.9748,-3.9812,-4.1267,-4.1478,-4.0606,-3.8583,0.0,0.0,0.0,0.0,0.0,0.0,0.0,0.0,0.0,0.0,0.0,0.0,0.0,0.0,0.0,0.0,0.0,0.0,0.0,0.0,0.0,0.0,0.0,0.0,0.0,0.0,0.0,0.0,0.0,0.0,0.0,0.0,0.0,0.0,0.0,0.0,0.0,0.0,0.0,0.0,0.0,0.0,0.0,-3.8974,-3.8931,0.0,0.0,0.0,0.0,0.0,0.0,0.0,0.0,0.0,0.0,0.0,0.0,0.0,-4.2089,-4.1967,-4.3394,-4.3906,-4.3442,-4.4144,-4.3921,-4.291,-4.3624,-4.3553,-4.291,-4.3407,0.0,-4.1882,-4.0469,0.0,0.0,0.0,0.0,0.0,0.0,0.0,0.0,0.0,0.0,0.0,0.0,0.0,0.0,0.0,0.0,0.0,0.0,0.0,0.0,0.0,-3.8181,-3.9317,-4.0448,-4.0792,-4.074,-4.0225,-4.0654,-4.0559,-3.9766,-4.01,-3.9956,-3.9229,-3.9058,-3.9031,-3.908,-4.0689,-4.1485,-4.1453,-4.2161,-4.2294,-4.1928,-4.0901,-3.9489,-3.781,-3.6656,0.0,0.0,0.0,0.0,0.0,0.0,0.0,0.0,0.0,0.0,0.0,0.0,0.0,0.0,0.0,0.0,0.0,0.0,0.0,0.0,0.0,0.0,0.0,0.0,0.0,0.0,0.0,0.0,0.0,0.0,0.0,0.0,0.0,0.0,0.0,0.0,0.0,0.0,0.0,-3.9239,-3.9353,-3.8862,-3.9166,-3.9246,0.0,0.0,0.0,0.0,0.0,0.0,0.0,0.0,0.0,-4.1814,-4.2311,-4.2765,-4.3156,-4.3912,-4.4324,-4.4498,-4.4854,-4.4938,-4.4839,-4.5193,-4.5158,-4.4786,-4.4274,-4.3768,-4.3151,-4.1136,-4.002,-3.9517,0.0,0.0,0.0,0.0,-3.8025,-3.8349,0.0,0.0,0.0,0.0,0.0,0.0,0.0,0.0,0.0,0.0,0.0,0.0,-3.7737,-3.8903,-3.9927,-4.0747,-4.1121,-4.1068,-4.0519,-4.0862,-4.0854,-4.0301,-4.0301,-4.0301,-4.0301,-3.9805,-3.9823,-4.0411,-4.224,-4.3137,-4.3126,-4.3497,-4.3706,-4.3753,-4.3567,-4.211,-3.9728,-3.8163,-3.703,0.0,0.0,0.0,0.0,0.0,0.0,0.0,0.0,0.0,0.0,0.0,0.0,0.0,0.0,0.0,0.0,0.0,0.0,0.0,0.0,0.0,0.0,0.0,0.0,0.0,0.0,0.0,0.0,0.0,0.0,0.0,0.0,0.0,0.0,0.0,0.0,0.0,0.0,-3.9442,-3.9617,-3.8884,-3.9438,-3.9619,0.0,0.0,0.0,0.0,0.0,0.0,-4.1343,-4.1348,-4.1795,-4.2798,-4.303,-4.3504,-4.4276,-4.4488,-4.4789,-4.5233,-4.5233,-4.5477,-4.594,-4.5688,-4.56,-4.5572,-4.4176,-4.3582,-4.343,-4.1402,-4.0203,-3.9511,-3.819,-3.7994,-3.8395,-3.7833,-3.8095,-3.871,0.0,0.0,0.0,0.0,0.0,0.0,0.0,0.0,0.0,0.0,0.0,-3.6865,-3.9393,-4.0131,-4.0764,-4.1574,-4.1437,-4.1284,-4.1241,-4.0642,-4.0234,-4.0206,-4.0263,-4.0301,-4.0301,-4.094,-4.1272,-4.1248,-4.3673,-4.483,-4.48,-4.6411,-4.715,-4.7125,-4.6429,-4.4741,-4.2294,-4.0624,-3.949,-3.8601,0.0,0.0,0.0,0.0,0.0,0.0,0.0,0.0,0.0,0.0,0.0,0.0,0.0,0.0,0.0,0.0,0.0,0.0,0.0,0.0,0.0,0.0,0.0,0.0,0.0,0.0,0.0,0.0,0.0,0.0,0.0,0.0,0.0,0.0,0.0,0.0,0.0,0.0,0.0,-3.8869,-3.9441,0.0,0.0,0.0,0.0,-4.0677,-4.1233,-4.1917,-4.267,-4.2047,-4.2365,-4.3885,-4.3978,-4.4357,-4.5035,-4.5793,-4.5887,-4.5286,-4.5286,-4.5091,-4.4676,-4.3775,-4.3426,-4.3501,-4.2588,-4.2196,-4.2117,-4.0896,-4.038,-4.0253,-3.9301,-3.894,-3.8937,-3.8779,-3.9229,-3.9809,0.0,0.0,0.0,0.0,0.0,-3.1936,-3.2793,-3.3402,-3.4284,-3.5702,-3.688,-3.8134,-3.9578,-4.0653,-4.1613,-4.2467,-4.22,-4.1816,-4.1326,-4.1047,-4.0709,-4.0215,-4.0263,-4.0502,-4.0929,-4.1746,-4.2653,-4.3627,-4.5064,-4.6019,-4.6525,-4.7112,-4.7397,-4.7378,-4.7119,-4.6518,-4.5518,-4.2843,-4.0936,-3.9538,-3.7583,-3.6009,0.0,0.0,0.0,0.0,0.0,0.0,0.0,0.0,0.0,0.0,0.0,0.0,0.0,0.0,0.0,0.0,0.0,0.0,0.0,0.0,0.0,0.0,0.0,0.0,0.0,0.0,0.0,0.0,0.0,0.0,0.0,0.0,0.0,0.0,0.0,0.0,0.0,-4.0184,-4.0838,0.0,-4.0933,-4.0808,-4.1109,-4.1994,-4.222,-4.2687,-4.348,-4.3336,-4.3503,-4.4066,-4.4302,-4.4534,-4.4774,-4.5075,-4.5079,-4.4852,-4.4852,-4.4759,-4.4581,-4.3619,-4.3238,-4.3198,-4.1839,-4.1265,-4.1191,-4.0231,-3.9868,-3.9822,-3.854,-3.8329,-3.8687,-3.8206,-3.8495,-3.9065,0.0,0.0,0.0,0.0,-3.1276,-3.2053,-3.3222,-3.3868,-3.4842,-3.6551,-3.8017,-3.9321,-4.0451,-4.1745,-4.2775,-4.3346,-4.2789,-4.2196,-4.1691,-4.1157,-4.0658,-4.0186,-4.0482,-4.1026,-4.1755,-4.2854,-4.4053,-4.5374,-4.65,-4.7334,-4.7845,-4.8117,-4.823,-4.823,-4.7959,-4.7845,-4.7675,-4.5245,-4.3247,-4.1559,-3.9356,-3.7994,-3.7011,0.0,0.0,0.0,0.0,0.0,0.0,0.0,0.0,0.0,0.0,0.0,0.0,0.0,0.0,0.0,0.0,0.0,0.0,0.0,0.0,0.0,0.0,0.0,0.0,0.0,0.0,0.0,0.0,0.0,0.0,0.0,0.0,0.0,0.0,-4.035,-4.1144,-4.0857,-4.1725,-4.2255,-4.1952,-4.1796,-4.2079,-4.3003,-4.3249,-4.3558,-4.4103,-4.3958,-4.3981,-4.4264,-4.4221,-4.4344,-4.4615,-4.4615,-4.4615,-4.4615,-4.4615,-4.4615,-4.4581,-4.3581,-4.302,-4.2745,-4.1345,-4.0585,-4.0301,-3.979,-3.9563,-3.9489,-3.8487,-3.8403,-3.8779,-3.8338,-3.848,-3.8848,0.0,0.0,0.0,-3.0821,-3.086,-3.1464,-3.3183,-3.3423,-3.4628,-3.801,-3.919,-4.0364,-4.2105,-4.3407,-4.4184,-4.4241,-4.3113,-4.2412,-4.2412,-4.0894,-4.0036,-4.0125,-4.0995,-4.1883,-4.276,-4.4258,-4.548,-4.6372,-4.7947,-4.8717,-4.8755,-4.9551,-4.9912,-4.9874,-4.9097,-4.8736,-4.8679,-4.7808,-4.6531,-4.4834,-4.1494,-4.0634,-4.1001,0.0,0.0,0.0,0.0,0.0,0.0,0.0,0.0,0.0,0.0,0.0,0.0,0.0,0.0,0.0,0.0,0.0,0.0,0.0,0.0,0.0,0.0,0.0,0.0,0.0,0.0,0.0,0.0,0.0,0.0,0.0,0.0,0.0,-3.879,-4.04,-4.1323,-4.0845,-4.2061,-4.2754,-4.2306,-4.3066,-4.3593,-4.3627,-4.423,-4.4615,-4.4615,-4.3859,-4.3792,-4.4581,-4.3842,-4.3809,-4.4598,-4.4615,-4.4615,-4.4615,-4.4615,-4.4598,-4.4519,-4.3463,-4.2624,-4.1994,-4.0992,-4.0167,-3.9501,-3.9625,-3.9547,-3.9299,-3.9299,-3.9299,-3.9299,-3.9299,-3.9299,-3.9299,0.0,0.0,-3.0976,-3.1623,-3.2265,-3.3044,-3.4118,-3.5321,-3.6471,-3.7428,-3.8815,-4.0369,-4.2101,-4.2918,-4.3838,-4.5101,-4.353,-4.2481,-4.2481,-4.0916,-4.0283,-4.0944,-4.2362,-4.3531,-4.4361,-4.5409,-4.6625,-4.8029,-4.8471,-4.9002,-4.957,-4.9798,-4.9912,-4.9893,-4.9665,-4.957,-4.9514,-4.8698,-4.8092,-4.7441,-4.4728,-4.3043,-4.2001,0.0,0.0,0.0,0.0,0.0,0.0,0.0,0.0,0.0,0.0,0.0,0.0,0.0,0.0,0.0,0.0,0.0,0.0,0.0,0.0,0.0,0.0,0.0,0.0,0.0,0.0,0.0,0.0,0.0,0.0,0.0,-3.8468,-3.9283,-4.0267,-4.1076,-4.1845,-4.2577,-4.309,-4.3539,-4.3836,-4.3715,-4.3803,-4.4298,-4.4496,-4.4615,-4.4615,-4.4384,-4.435,-4.4598,-4.4395,-4.4395,-4.4615,-4.4615,-4.4615,-4.4615,-4.4615,-4.4282,-4.3696,-4.2673,-4.1825,-4.1104,-4.0074,-3.9551,-3.9352,-3.9484,-3.9511,-3.9458,-3.9547,-3.9537,-3.9475,-3.9547,-3.9599,-3.9599,0.0,-3.1052,-3.1502,-3.2013,-3.2813,-3.367,-3.4489,-3.5772,-3.6921,-3.7642,-3.9195,-4.0774,-4.2147,-4.3114,-4.3904,-4.4504,-4.3704,-4.2834,-4.2058,-4.1079,-4.107,-4.23,0.0,-4.4851,-4.6011,-4.6872,-4.7928,-4.921,-4.921,-4.9438,-4.9912,-4.9912,-4.9912,-4.9912,-4.9912,-4.9912,-4.9874,-4.94,-4.921,-4.9059,-4.7264,-4.5759,-4.4431,-4.3251,-4.2731,-4.2457,-4.0891,-4.0674,-4.0931,-3.9794,0.0,0.0,0.0,0.0,0.0,0.0,0.0,0.0,0.0,0.0,0.0,0.0,0.0,0.0,0.0,0.0,0.0,0.0,0.0,0.0,0.0,0.0,0.0,0.0,-3.9119,-4.0084,-4.1587,-4.1852,-4.2258,-4.3284,-4.3728,-4.4128,-4.4513,-4.423,-4.419,-4.4564,-4.4615,-4.4615,-4.4615,-4.4615,-4.4615,-4.4615,-4.4615,-4.4615,-4.4615,-4.4615,-4.4418,-4.4096,-4.4096,-4.3663,-4.2837,-4.2181,-4.1458,-4.0685,-4.0107,-3.9651,-3.9325,-3.9563,-3.959,-3.9511,0.0,0.0,0.0,0.0,-3.9703,-3.9703,0.0,-3.16,-3.2262,-3.237,-3.3013,-3.3807,-3.4625,-3.5577,-3.6746,-3.8305,-3.9961,-4.1333,-4.219,-4.3505,-4.4002,-4.3197,-4.3635,-4.3302,-4.1689,-4.1667,-4.2416,-4.3992,-4.4929,-4.6106,-4.7606,-4.8408,-4.9191,-4.9912,-4.9912,-4.9912,-4.9912,-4.9912,-4.9912,-4.9912,-4.9912,-4.9912,-4.9912,-4.9925,-4.9906,-4.9836,-4.9115,-4.8319,-4.7359,-4.5786,-4.5653,-4.6045,-4.3748,-4.2925,-4.269,-4.1159,0.0,0.0,0.0,0.0,0.0,0.0,0.0,0.0,0.0,0.0,0.0,0.0,0.0,0.0,0.0,0.0,0.0,0.0,0.0,0.0,0.0,0.0,0.0,0.0,-4.0053,-4.0764,-4.2674,-4.2583,-4.2584,-4.3344,-4.4057,-4.4491,-4.4542,-4.4587,-4.4615,-4.4615,-4.4615,-4.4615,-4.4615,-4.4615,0.0,0.0,0.0,-4.4615,-4.4615,-4.4615,-4.4198,-4.3392,-4.3392,-4.2888,-4.1971,-4.1825,-4.1287,-4.0504,-4.0467,-4.0047,-3.9379,-3.9746,-3.9746,-3.9554,-3.9694,-3.9729,-3.9755,-3.9755,-3.9755,-3.9729,0.0,-3.2467,-3.3281,-3.3983,-3.4261,-3.4664,-3.5519,-3.698,-3.8129,-3.8461,-3.9965,-4.1324,-4.2192,-4.2466,-4.2793,-4.3303,-4.3223,-4.3187,-4.3304,-4.3862,-4.4661,-4.5697,-4.7176,-4.8143,-4.8465,-4.9267,-4.9741,-4.9912,-4.9912,-4.9912,-4.9912,-4.9912,-4.9912,-4.9893,-4.9965,-4.9952,-4.9912,-5.0018,-5.0005,-4.9893,-4.9794,-4.9231,-4.8338,-4.7302,-4.7018,-4.7018,-4.5893,-4.5476,-4.5336,-4.4383,-4.2884,-4.1381,-4.1106,0.0,0.0,0.0,0.0,0.0,0.0,0.0,0.0,0.0,0.0,0.0,0.0,0.0,0.0,0.0,0.0,0.0,0.0,0.0,0.0,-3.9919,-4.0807,-4.1841,-4.2981,-4.2745,-4.2712,-4.346,-4.4009,-4.431,-4.4212,-4.4429,-4.4615,-4.4615,-4.4615,-4.4615,-4.4615,-4.4615,-4.4615,-4.4615,-4.4615,-4.4615,-4.4615,-4.4615,-4.4198,-4.3392,-4.3293,0.0,-4.1197,-4.0956,-4.0475,-3.9869,-3.9754,-3.9671,-3.9625,-3.9703,-3.9755,-3.9824,-3.9849,-3.9935,-4.002,-4.002,-4.002,-3.9944,0.0,-3.3644,-3.4082,-3.452,-3.4952,-3.5402,-3.583,-3.7389,-3.85,-3.85,-3.998,-4.1211,-4.1646,-4.2026,-4.2221,-4.2149,-4.2246,-4.2936,-4.4452,-4.4791,-4.5709,-4.739,-4.8262,-4.8901,-4.9326,-4.9743,-4.9978,-5.0005,-4.9978,-4.9952,-4.9952,-4.9885,-4.9885,-4.9952,-4.9952,-4.9978,-4.9986,-5.007,-5.007,-5.0005,-5.0044,-4.9537,-4.8789,-4.8693,-4.8661,-4.8547,-4.7751,-4.7447,-4.7315,-4.6468,-4.4941,-4.3344,-4.2997,-4.1384,-3.9371,0.0,0.0,0.0,0.0,0.0,0.0,0.0,0.0,0.0,0.0,0.0,0.0,0.0,0.0,-3.7916,-3.7653,0.0,-3.9982,-4.0588,-4.1522,-4.2449,-4.3285,-4.3344,-4.3477,-4.3885,-4.4109,-4.4241,-4.4344,-4.4485,-4.4615,-4.4615,-4.4615,-4.4615,-4.4615,-4.4615,-4.4615,-4.4615,-4.4497,-4.444,-4.444,-4.4384,-4.3985,-4.3282,-4.2774,-4.1963,-4.0872,-4.0371,-3.9774,-3.9158,-3.9212,-3.9061,-3.8799,-3.8854,-3.899,-3.9098,-3.9098,-3.9497,-4.0096,-4.0096,-3.9918,-3.9618,0.0,-3.4831,-3.4842,-3.4841,-3.5438,-3.5909,-3.5897,-3.7236,-3.8308,-3.848,-3.9875,-4.0917,-4.1075,-4.173,-4.1869,-4.1214,-4.1673,-4.2964,-4.5217,-4.5464,-4.6502,-4.8644,-4.8857,-4.9275,-4.9986,-5.0005,-5.0031,-5.0095,-5.0044,-5.0031,-5.0018,-4.9898,-4.9912,-5.0018,-4.9992,-4.9999,-5.0108,-5.0145,-5.0133,-5.0108,-5.0145,-4.9752,-4.9201,-4.9758,-4.9851,-4.961,-4.8795,-4.8383,-4.8124,-4.7422,-4.5956,-4.4369,-4.4136,-4.2973,-4.1393,-3.9687,-3.9495,0.0,0.0,0.0,0.0,0.0,0.0,0.0,0.0,0.0,-3.7376,-3.6633,-3.7401,-3.8317,-3.8589,-3.9389,-4.0371,-4.1437,-4.2224,-4.2949,-4.3575,-4.3864,-4.4068,-4.4253,-4.4212,-4.4286,-4.4514,-4.457,-4.4615,-4.4615,-4.4615,-4.4615,-4.4615,-4.4615,-4.4615,-4.4615,-4.4395,-4.431,-4.431,-4.4184,-4.3719,-4.2942,-4.2244,-4.1425,-4.0538,-3.984,-3.9212,-3.8667,-3.8799,-3.8507,-3.7943,-3.8071,-3.8197,-3.8266,-3.8294,-3.8903,-3.9731,-3.9731,-3.9428,-3.9001,0.0,-3.5661,-3.5685,-3.5737,-3.5839,-3.59,-3.5897,-3.6726,-3.7617,-3.8402,-3.9337,-4.0243,-4.1017,-4.1195,-4.1467,-4.2003,-4.2709,-4.3814,-4.5468,-4.6733,-4.7848,-4.8831,-4.9442,-4.9844,-5.0005,-5.0005,-5.0031,-5.0095,-5.0095,-5.0095,-5.0095,-5.007,-5.007,-5.0095,-5.0139,-5.0126,-5.0108,-5.029,-5.0255,-5.012,-5.029,-5.0217,-4.9974,-5.012,-4.9688,-4.8903,-4.8028,-4.7231,-4.6536,-4.646,-4.5254,-4.3806,-4.3905,-4.3424,-4.2664,-4.1852,0.0,-3.9798,-4.0494,-3.9833,-3.9066,-3.9558,-3.8748,-3.8268,0.0,-3.972,-3.9091,-3.8592,-3.9109,-3.9563,-3.9272,-4.0463,-4.166,-4.227,-4.2986,-4.3575,-4.3822,-4.3747,-4.3776,-4.4097,-4.4372,-4.4485,-4.4338,-4.4514,-4.4615,-4.4615,-4.4615,-4.4615,-4.4615,-4.4615,-4.4615,-4.4615,-4.4395,-4.431,-4.431,-4.4184,-4.3411,-4.2021,-4.1954,-4.1103,-3.9644,-3.9127,-3.886,-3.8761,-3.8507,-3.8254,-3.8071,-3.821,-3.8226,-3.8128,-3.8266,-3.8362,-3.8502,-3.8502,-3.8446,-3.8306,0.0,0.0,-3.5827,-3.5888,-3.5896,-3.5891,-3.5897,-3.6633,-3.7505,-3.8394,-3.9254,-4.0134,-4.0998,-4.1103,-4.1215,-4.1523,-4.2661,-4.4048,-4.568,-4.7174,-4.8557,-4.9836,-5.0148,-5.0292,-5.0291,-5.0279,-5.0264,-5.0219,-5.0182,-5.017,-5.017,-5.0082,-5.0082,-5.017,-5.0158,-5.017,-5.0219,-5.0302,-5.029,-5.0231,-5.0302,-5.0004,-4.9468,-4.8995,-4.8258,-4.7518,-4.7581,-4.7039,0.0,0.0,-4.548,-4.4486,-4.4651,-4.3595,-4.2276,-4.2158,-4.1277,0.0,-4.1489,-4.0221,-3.8823,-3.9645,-3.9051,-3.8464,-3.9267,-3.935,-3.918,-3.8913,-3.9345,-3.9837,-4.0024,-4.0677,-4.1516,-4.2496,-4.29,-4.3277,-4.3831,-4.3839,-4.3822,-4.3969,-4.4258,-4.4395,-4.431,-4.4468,-4.4615,-4.4615,-4.4615,-4.4615,-4.4615,-4.4468,-4.444,-4.444,-4.4184,-4.3867,-4.3432,-4.3244,-4.2699,-4.1749,-4.0983,-4.0315,-3.9688,-3.8802,-3.8242,-3.7956,-3.746,-3.7222,-3.7178,-3.7222,-3.7238,-3.7178,-3.7222,-3.7252,-3.7326,-3.8039,-3.8067,-3.7738,0.0,0.0,0.0,-3.5853,-3.589,-3.5898,-3.5896,-3.6639,-3.7509,-3.8385,-3.9262,-4.0123,-4.0998,-4.1106,-4.1093,-4.1093,-4.2341,-4.3722,-4.5167,-4.6913,-4.8531,-4.9942,-5.0375,-5.0594,-5.0548,-5.0567,-5.0518,-5.0445,-5.0383,-5.0347,-5.0298,-5.0205,-5.02,-5.0231,-5.0182,-5.0207,-5.0302,-5.0314,-5.0314,-5.0302,-5.0337,-4.9859,-4.9014,-4.8146,-4.7141,-4.6203,-4.6496,-4.6039,0.0,0.0,-4.4583,-4.409,-4.3741,-4.269,-4.1642,-4.1807,-4.1531,-4.1259,-4.1714,-4.042,-3.9218,-4.0157,-3.9779,-3.9163,-3.9192,-3.9309,-3.9382,-3.9217,-3.9497,-3.9938,-4.0531,-4.0745,-4.1285,-4.2634,-4.2806,-4.3027,-4.3781,-4.3898,-4.3868,-4.3822,-4.4068,-4.4253,-4.4253,-4.444,-4.4615,-4.4615,-4.4615,-4.457,-4.4514,-4.4367,-4.4265,-4.4253,-4.4027,-4.3548,-4.2827,-4.2593,-4.2054,-4.1143,-4.0205,-3.9601,-3.93,-3.8312,-3.7594,-3.7118,-3.6693,-3.6492,-3.6492,-3.6492,-3.6492,-3.6492,-3.6492,-3.6492,-3.66,-3.7474,-3.7533,-3.7148,0.0,0.0,0.0,0.0,-3.585,-3.5892,-3.5898,-3.6638,-3.7508,-3.8393,-3.9262,-4.0123,-4.0998,-4.1106,-4.1093,-4.1093,-4.1919,-4.2779,-4.3617,-4.5837,-4.7533,-4.8432,-4.9842,-5.0636,-5.0698,-5.0698,-5.0715,-5.0782,-5.0782,-5.0731,-5.0596,-5.0577,-5.0485,-5.0302,-5.029,-5.0302,-5.0302,-5.0379,-5.0348,-5.0314,-5.0438,-4.9937,-4.9014,-4.819,-4.6821,-4.522,-4.4407,0.0,0.0,0.0,-4.1745,-4.1678,-3.9928,-4.0191,0.0,-4.0991,-4.1372,-4.1722,-4.1026,-4.0564,-4.0472,-4.1415,-4.11,-4.0658,-4.1121,-4.0703,-4.0196,-3.9901,-3.9884,-4.0068,-4.0675,-4.0906,-4.1419,-4.2786,-4.2975,-4.3187,-4.381,-4.3898,-4.3839,-4.3628,-4.3894,-4.4097,-4.4097,-4.44,-4.4615,-4.4615,-4.4615,-4.4497,-4.4338,-4.431,-4.4253,-4.4097,-4.3969,-4.3548,-4.2827,-4.2593,-4.156,-3.9748,-3.9846,-3.9227,-3.7931,-3.7462,-3.6952,-3.6523,-3.6523,-3.6492,-3.6492,-3.6492,-3.6492,-3.6492,-3.6492,-3.6492,-3.6492,-3.6554,-3.6554,-3.6523,0.0,0.0,0.0,0.0,0.0,-3.7566,-3.7568,-3.7359,-3.7515,-3.8383,-3.9759,0.0,0.0,0.0,0.0,0.0,-4.1866,-4.2698,-4.3539,-4.5426,-4.6896,-4.7767,-4.9342,-5.0167,-5.0106,-5.0668,-5.0898,-5.0798,-5.0798,-5.0786,-5.0728,-5.0728,-5.0694,-5.0632,-5.0632,-5.0632,-5.0632,-5.067,-5.0606,-5.0448,-4.9922,-4.9465,-4.8938,-4.7515,-4.5929,-4.4246,0.0,0.0,0.0,0.0,0.0,0.0,-3.9377,-3.8728,-3.8095,-3.8303,-3.9698,-4.1084,-4.0706,-4.042,-4.0454,-4.1341,-4.0918,-4.0447,-4.1033,-4.0724,-4.0238,-4.0062,-4.0037,-4.0222,-4.0824,-4.0634,-4.0794,-4.2065,-4.1936,-4.2053,-4.3136,-4.3304,-4.3459,-4.3885,-4.4109,-4.4224,-4.4224,-4.4457,-4.4615,-4.4615,-4.4615,-4.4514,-4.431,-4.4224,-4.3935,-4.3446,-4.3148,-4.2331,-4.0973,-4.0736,-3.9915,-3.8499,-3.8016,-3.723,-3.6244,-3.6102,-3.5913,-3.5769,-3.5769,-3.5769,-3.5784,-3.6068,-3.6163,-3.6195,-3.6429,-3.6352,-3.6163,-3.6163,-3.6163,-3.6195,0.0,0.0,0.0,0.0,0.0,0.0,0.0,0.0,0.0,0.0,0.0,0.0,0.0,0.0,0.0,0.0,0.0,-4.2224,-4.3072,-4.4488,-4.5806,-4.6975,-4.8073,-4.8748,-4.8978,-4.9216,-4.9595,-5.0092,-5.0092,-5.0371,-5.0918,-5.0918,-5.087,-5.0798,-5.0798,-5.0798,-5.0778,-5.048,-5.0259,-5.0029,-4.8875,-4.8134,-4.7551,-4.5831,-4.4322,0.0,0.0,0.0,0.0,0.0,0.0,-3.8148,-3.7764,-3.7489,-3.7348,-3.7585,-3.9349,-4.1282,-4.1486,-4.118,-4.1016,-4.1867,-4.1365,-4.0761,-4.1171,-4.0731,-4.0213,-4.0188,-3.9918,-3.9851,-4.0265,-4.0011,-4.0011,-4.1023,-4.112,-4.1506,-4.2763,-4.2786,-4.2914,-4.3509,-4.3558,-4.362,-4.3889,-4.3827,-4.3876,-4.4147,-4.4136,-4.3906,-4.3452,-4.3401,-4.3039,-4.2299,-4.1855,-4.1,-3.966,-3.9358,-3.8571,-3.7251,-3.6554,-3.5929,-3.54,-3.54,-3.54,-3.54,-3.54,-3.54,-3.5432,-3.5688,-3.5799,-3.5831,-3.6022,-3.599,-3.5799,-3.5799,-3.5799,-3.5831,0.0,0.0,0.0,0.0,0.0,0.0,0.0,0.0,0.0,0.0,0.0,0.0,0.0,0.0,0.0,0.0,0.0,0.0,-4.2182,0.0,0.0,-4.5926,-4.6096,-4.6528,-4.7346,-4.6602,-4.7011,-4.8672,-4.8672,-4.9422,-5.0839,-5.0839,-5.0759,-5.0569,-5.0569,-5.0588,-5.0569,-4.9695,-4.9272,-4.9057,-4.7364,-4.61,-4.5069,-4.3424,0.0,0.0,0.0,0.0,0.0,0.0,0.0,-3.748,-3.5398,-3.6562,-3.8692,-3.8728,-4.0302,-4.2175,-4.3066,-4.2649,-4.2159,-4.2905,-4.2396,-4.1692,-4.1547,-4.0808,-4.0171,-4.0237,-3.9636,-3.9088,0.0,-3.9103,-3.9226,-3.9758,-4.056,-4.1502,-4.255,-4.2328,-4.2198,-4.2639,-4.2344,-4.2375,-4.3098,-4.2611,-4.2523,-4.3223,-4.3187,-4.2797,-4.2004,-4.2018,-4.1671,-4.0825,-4.0315,-3.969,-3.8958,-3.8516,-3.7529,-3.604,-3.5593,-3.5367,-3.5335,-3.5335,-3.5335,-3.5335,-3.5335,-3.5335,-3.5367,-3.5367,-3.5367,-3.5367,-3.54,-3.54,-3.5367,-3.5367,-3.5367,-3.5367,0.0,0.0,0.0,0.0,0.0,0.0,0.0,0.0,0.0,0.0,0.0,0.0,0.0,0.0,0.0,0.0,0.0,0.0,-4.1395,0.0,0.0,0.0,0.0,0.0,0.0,0.0,0.0,-4.6859,-4.6859,-4.7063,-4.7447,-4.7447,-4.7427,-4.7373,-4.7373,-4.7723,-4.8287,-4.7412,-4.7303,-4.7585,0.0,-4.485,-4.4354,0.0,0.0,0.0,0.0,0.0,0.0,0.0,0.0,-3.7243,-3.7714,-3.8099,-3.853,-3.9179,-4.0623,-4.2047,-4.2231,-4.2631,-4.3049,-4.316,-4.2614,-4.2053,-4.2032,-4.1298,-4.0474,-3.9971,-3.9914,-3.9602,-3.8444,-3.9097,-3.9606,-3.9042,-3.9648,-4.0533,-4.1335,-4.1355,0.0,-4.2311,0.0,-4.2317,-4.2503,-4.1888,-4.1559,-4.1762,-4.2243,-4.2581,-4.2719,-4.1889,-4.1205,-4.0733,-3.9801,-3.9014,-3.8399,-3.7219,-3.627,-3.5578,-3.5187,-3.4887,-3.4654,-3.4654,-3.4654,-3.4654,-3.4654,-3.4654,-3.4654,-3.492,-3.5019,-3.5037,-3.5317,-3.5252,-3.5019,-3.5019,-3.5019,-3.4986,0.0,0.0,0.0,0.0,0.0,0.0,0.0,0.0,0.0,0.0,0.0,0.0,0.0,0.0,0.0,0.0,0.0,0.0,0.0,0.0,0.0,0.0,0.0,0.0,0.0,0.0,0.0,0.0,0.0,0.0,-4.62,-4.62,-4.62,-4.62,-4.62,-4.6472,-4.6859,-4.6005,0.0,0.0,0.0,0.0,0.0,0.0,0.0,0.0,0.0,0.0,0.0,0.0,0.0,-3.7585,-3.8314,-3.8939,-3.9549,-4.0088,-4.1384,-4.2611,-4.2576,-4.2958,-4.334,-4.3123,-4.2673,-4.2126,-4.1463,-4.0809,-4.0065,-3.9186,-3.8877,-3.8516,-3.7661,-3.841,-3.8914,-3.8229,-3.9186,0.0,-4.0735,-4.0709,-4.0863,0.0,-4.1271,0.0,-4.1399,-4.0504,-4.0203,-4.0851,-4.1399,-4.1597,-4.1255,-4.0668,-3.9982,-3.9189,-3.8252,-3.7545,-3.703,-3.6203,-3.5589,-3.5201,-3.4986,-3.4769,-3.4515,-3.4515,-3.4481,-3.4414,-3.4414,-3.4414,-3.4414,-3.4601,-3.4668,-3.4702,-3.4872,-3.4854,-3.4668,-3.4668,-3.4668,-3.4668,0.0,0.0,0.0,0.0,0.0,0.0,0.0,0.0,0.0,0.0,-4.1126,-4.1092,0.0,0.0,0.0,0.0,0.0,0.0,0.0,0.0,0.0,0.0,0.0,0.0,0.0,0.0,0.0,0.0,0.0,0.0,0.0,0.0,0.0,0.0,0.0,0.0,0.0,0.0,0.0,0.0,0.0,0.0,0.0,0.0,0.0,0.0,0.0,0.0,0.0,0.0,-4.0119,-3.854,-3.8715,-3.9819,-4.1107,-4.1354,-4.2365,-4.3412,-4.3412,-4.3394,-4.334,-4.3013,-4.2639,-4.1996,-4.0605,-3.9939,-3.9336,-3.8247,-3.746,-3.6943,-3.6831,-3.7401,-3.781,-3.7584,0.0,-4.0053,-4.0485,-4.0236,-4.0248,-4.0819,-3.9887,-3.9437,-4.0094,-3.9044,-3.8825,-4.0115,-4.0486,-4.0167,-3.9084,-3.8987,-3.8392,-3.715,-3.6569,-3.6053,-3.5587,-3.5537,-3.5326,-3.4968,-3.4935,-3.485,-3.4698,-3.4698,-3.4597,-3.4414,-3.4414,-3.4414,-3.4414,-3.4414,-3.4414,-3.4414,-3.4414,-3.4414,-3.4414,-3.4414,-3.4414,-3.4448,0.0,0.0,0.0,0.0,0.0,0.0,0.0,0.0,0.0,0.0,-4.1464,-4.1034,0.0,0.0,0.0,0.0,0.0,0.0,0.0,0.0,0.0,0.0,0.0,0.0,0.0,0.0,0.0,0.0,0.0,0.0,0.0,0.0,0.0,0.0,0.0,0.0,0.0,0.0,0.0,0.0,0.0,0.0,0.0,0.0,0.0,0.0,0.0,0.0,0.0,0.0,-4.0821,-4.0469,-4.2607,-4.2594,-4.199,-4.2839,-4.3244,-4.3394,-4.3463,-4.348,-4.3428,-4.3196,-4.2559,-4.1756,-4.0976,-3.9996,0.0,0.0,-3.7746,-3.7454,-3.609,-3.6975,-3.7858,-3.7672,-3.8346,-3.9169,-4.007,-3.9942,-3.9909,0.0,-3.9633,-3.9255,-3.9371,-3.8722,-3.842,-3.8663,-3.8751,-3.8881,-3.9153,-3.8227,-3.7364,-3.6631,-3.6708,-3.6554,-3.6085,-3.5668,-3.5472,-3.5392,-3.5082,-3.485,-3.4698,-3.4698,-3.4597,-3.4414,-3.4414,-3.4414,-3.4414,-3.4414,-3.4414,-3.4414,-3.4414,-3.4414,-3.4414,-3.4414,-3.4414,-3.4414,0.0,0.0,0.0,0.0,0.0,0.0,0.0,-4.1567,-4.1898,-4.2815,-4.2965,-4.2671,-4.1869,-4.1367,-4.1103,0.0,0.0,0.0,0.0,0.0,0.0,0.0,0.0,0.0,0.0,-4.1542,-4.1551,-4.1095,0.0,-4.1537,-4.1093,-4.11,-4.1107,-4.1094,-4.1094,0.0,0.0,0.0,0.0,0.0,0.0,0.0,0.0,0.0,0.0,0.0,0.0,0.0,0.0,0.0,-4.137,-4.1578,-4.3206,-4.3271,-4.2829,-4.3353,-4.3464,-4.3411,-4.348,-4.3515,-4.3444,-4.3251,-4.2559,-4.1633,-4.0362,0.0,0.0,0.0,-3.6661,-3.6553,-3.5757,-3.6552,0.0,-3.709,-3.805,-3.9084,-3.9885,-3.9961,-3.9976,-4.0172,-3.9324,-3.8601,-3.8282,-3.7709,-3.7356,-3.7356,-3.7356,-3.7632,-3.8232,-3.7411,-3.6708,-3.6258,-3.6352,-3.6196,-3.5671,-3.5554,-3.5439,-3.5326,-3.5148,-3.4983,-3.4817,-3.4731,-3.4597,-3.4414,-3.4414,-3.4414,-3.4414,-3.4414,-3.4414,-3.4414,-3.4414,-3.4414,-3.4414,-3.4414,-3.4414,-3.4414,0.0,0.0,0.0,0.0,0.0,0.0,-4.2049,-4.2315,-4.2796,-4.3896,-4.4646,-4.4594,-4.3354,-4.228,-4.1578,0.0,0.0,0.0,0.0,0.0,0.0,0.0,0.0,0.0,0.0,0.0,0.0,-4.107,-4.1788,0.0,0.0,0.0,0.0,0.0,-4.1108,-4.1109,-4.1109,0.0,0.0,0.0,0.0,-4.0715,0.0,0.0,0.0,0.0,0.0,0.0,0.0,0.0,-4.1648,-4.1927,-4.2618,-4.3116,-4.3446,-4.3497,-4.3463,-4.3429,-4.348,-4.3515,-4.3463,-4.3286,-4.2485,-4.1325,-3.9689,-3.8541,0.0,-3.5946,-3.5622,-3.56,-3.5644,-3.6152,-3.6563,0.0,-3.7776,-3.8999,-3.9834,-4.0011,-4.0136,0.0,-3.911,0.0,-3.7476,-3.6831,-3.6492,-3.6492,-3.6429,-3.66,-3.7072,-3.6723,-3.632,-3.5894,-3.5894,-3.5686,-3.5213,-3.5326,-3.5294,-3.5148,-3.5148,-3.5049,-3.4835,-3.4765,-3.4597,-3.4414,-3.4414,-3.4414,-3.4414,-3.4414,-3.4414,-3.4414,-3.4414,-3.4414,-3.4414,-3.4414,-3.4414,-3.4414,0.0,0.0,0.0,0.0,0.0,0.0,-4.2078,-4.2864,-4.3952,-4.5565,-4.5896,-4.5943,-4.585,-4.4414,-4.3141,0.0,0.0,0.0,0.0,0.0,0.0,0.0,0.0,0.0,0.0,0.0,0.0,-4.1013,-4.1148,0.0,0.0,0.0,0.0,0.0,0.0,-4.1109,-4.1109,-4.1109,0.0,0.0,0.0,0.0,0.0,0.0,0.0,0.0,0.0,0.0,0.0,0.0,0.0,-4.1286,-4.1838,-4.2728,-4.3565,-4.3532,0.0,0.0,-4.3497,-4.3515,-4.348,-4.3394,-4.2136,-4.0635,-3.9629,0.0,-3.6768,-3.5949,-3.5689,-3.5644,-3.5773,-3.5735,-3.5938,-3.6654,0.0,-3.8334,-3.9868,-3.9977,-4.0007,-4.0265,0.0,0.0,-3.7476,-3.6831,-3.6492,-3.6492,-3.6241,-3.6068,-3.6132,-3.6352,-3.6179,-3.5464,-3.5608,-3.5542,-3.518,-3.5034,-3.4935,-3.4935,-3.4935,-3.4835,-3.4731,-3.4698,-3.4597,-3.4414,-3.4414,-3.4414,-3.4414,-3.4414,-3.4414,-3.4414,-3.4414,-3.4414,-3.4414,-3.4414,-3.4414,-3.4414,0.0,0.0,0.0,0.0,0.0,0.0,-4.2762,-4.2835,-4.3703,-4.6424,-4.6874,-4.7142,-4.7652,-4.6718,-4.5054,-4.2602,0.0,0.0,0.0,0.0,0.0,0.0,0.0,0.0,0.0,0.0,-4.1349,-4.1835,-4.1878,0.0,0.0,0.0,0.0,0.0,0.0,-4.1103,-4.1109,-4.1109,0.0,0.0,0.0,0.0,0.0,0.0,0.0,0.0,0.0,0.0,-4.0339,0.0,0.0,0.0,-4.1224,-4.1764,0.0,0.0,-4.3112,-4.3515,-4.3515,-4.3515,-4.348,-4.3429,-4.2464,-4.1214,-4.0083,0.0,-3.7341,-3.637,-3.5871,-3.5644,-3.5773,-3.5689,-3.5701,-3.6028,0.0,0.0,-3.8608,-3.9479,-3.977,-3.9188,-3.9016,-3.8405,-3.6999,-3.6631,-3.6429,-3.6195,-3.6068,-3.5814,-3.5347,-3.5655,-3.5769,-3.5576,-3.5477,-3.5246,-3.4898,-3.4902,-3.4868,-3.4783,-3.4783,-3.475,-3.4698,-3.4563,-3.4481,-3.4414,-3.4414,-3.4414,-3.4414,-3.4414,-3.4414,-3.4414,-3.4414,-3.4414,-3.4414,-3.4414,-3.4414,-3.4414,0.0,0.0,0.0,0.0,0.0,-4.1355,-4.2879,-4.3029,-4.3917,-4.6574,-4.7469,-4.8067,-4.8638,-4.8023,-4.6489,-4.3793,-4.285,0.0,0.0,0.0,0.0,0.0,0.0,0.0,0.0,0.0,-4.1786,-4.2399,-4.2668,-4.2778,0.0,0.0,-4.2073,-4.148,0.0,0.0,0.0,0.0,0.0,0.0,0.0,0.0,0.0,0.0,0.0,0.0,0.0,0.0,0.0,0.0,0.0,0.0,0.0,0.0,0.0,0.0,-4.2725,-4.3185,-4.3441,-4.3515,-4.348,-4.3429,-4.2684,-4.1632,0.0,0.0,-3.7746,-3.6485,-3.5915,-3.5706,-3.5773,-3.5728,-3.5712,-3.5926,0.0,-3.7303,-3.8684,-3.9377,-3.9569,-3.8999,-3.9019,-3.8398,-3.6677,-3.6492,-3.6367,-3.6037,-3.5894,-3.5606,-3.5085,-3.5088,-3.5154,-3.5299,-3.5166,-3.4949,-3.4616,-3.4702,-3.4702,-3.4597,-3.4597,-3.4597,-3.4597,-3.4448,-3.4414,-3.4414,-3.4414,-3.4414,-3.4414,-3.4414,-3.4414,-3.4414,-3.4414,-3.4414,-3.4414,-3.4414,-3.4414,-3.4414,0.0,0.0,0.0,0.0,0.0,0.0,-4.2073,-4.3666,-4.5064,-4.5905,-4.7566,-4.8688,-4.8699,-4.798,-4.7167,-4.6334,-4.3884,0.0,0.0,0.0,0.0,0.0,0.0,0.0,0.0,0.0,-4.2387,-4.2405,-4.3261,-4.3657,-4.3569,-4.2766,-4.2409,-4.2347,0.0,0.0,0.0,0.0,0.0,0.0,0.0,0.0,-4.0301,0.0,0.0,0.0,0.0,0.0,0.0,0.0,0.0,0.0,0.0,-4.0121,-4.0916,0.0,-4.2355,-4.2488,-4.3277,-4.3515,-4.348,-4.3429,-4.2684,-4.1542,0.0,-3.8727,-3.7665,-3.6129,-3.5795,-3.5795,-3.5795,-3.5795,-3.6027,-3.6677,-3.6795,0.0,-4.0747,-3.9918,-3.9376,0.0,-3.921,-3.7809,-3.6631,-3.6492,-3.6367,-3.6037,-3.5608,-3.54,-3.54,-3.4787,-3.4414,-3.4414,-3.4735,-3.4735,-3.4414,-3.4414,-3.4414,-3.4414,-3.4414,-3.4414,-3.4414,-3.4414,-3.4414,-3.4414,-3.4414,-3.4414,-3.4414,-3.4414,-3.4414,-3.4414,-3.4414,-3.4414,-3.4414,-3.4414,-3.4414,-3.4414,0.0,0.0,0.0,0.0,0.0,0.0,-4.2113,-4.2221,-4.3155,-4.5793,-4.6119,-4.6779,-4.8517,-4.8027,-4.7452,-4.7147,-4.5319,0.0,0.0,0.0,0.0,0.0,0.0,0.0,0.0,-4.1947,-4.2685,-4.3287,-4.4155,-4.4577,-4.4534,-4.3687,-4.2973,-4.2368,-4.1493,-4.1106,0.0,0.0,0.0,0.0,0.0,-4.0336,-4.0301,0.0,0.0,0.0,0.0,0.0,0.0,0.0,0.0,0.0,0.0,0.0,0.0,-4.0526,-4.1489,-4.2249,-4.1937,-4.2234,-4.2458,-4.1893,-4.1426,-4.0815,-3.9716,-3.8766,-3.7827,-3.6873,-3.6135,-3.5689,-3.5773,-3.5728,-3.5898,-3.6677,-3.6795,0.0,0.0,0.0,0.0,-3.8314,-3.7546,-3.7093,-3.717,-3.6946,-3.6641,-3.6348,-3.5985,-3.5444,-3.4735,-3.4501,-3.4515,-3.4735,-3.4635,-3.4515,-3.4414,-3.4414,-3.4414,-3.4414,-3.4414,-3.4414,-3.4414,-3.4414,-3.4414,-3.4414,-3.4414,-3.4414,-3.4414,-3.4414,-3.4414,-3.4414,-3.4414,-3.4414,-3.4414,-3.4414,-3.4414,-3.4414,0.0,0.0,0.0,0.0,0.0,0.0,-4.1721,-4.1635,-4.2264,-4.4436,-4.4838,-4.5624,-4.7546,-4.736,-4.7343,-4.7945,-4.6761,0.0,0.0,0.0,0.0,0.0,0.0,0.0,-4.1576,-4.2435,-4.3489,-4.468,-4.5527,-4.5933,-4.5913,-4.5043,-4.4012,-4.2859,-4.1984,-4.1372,0.0,0.0,0.0,0.0,-4.0327,-4.0301,-4.0301,0.0,0.0,0.0,0.0,0.0,0.0,0.0,0.0,0.0,0.0,0.0,0.0,0.0,-4.0423,-4.135,-4.1117,-4.1396,-4.1601,-4.104,-4.0792,-4.0435,-3.9426,0.0,-3.779,-3.6974,-3.6156,-3.5622,-3.5706,-3.5689,-3.5921,-3.6677,-3.6558,-3.6821,-3.8186,-3.8593,-3.846,-3.7725,-3.6964,-3.6614,-3.6918,-3.6725,-3.6386,-3.5926,-3.5659,-3.5194,-3.4428,-3.4414,-3.4515,-3.4702,-3.4515,-3.4414,-3.4414,-3.4414,-3.4414,-3.4414,-3.4414,-3.4414,-3.4414,-3.4414,-3.4414,-3.4414,-3.4312,-3.4346,0.0,-3.4312,-3.4346,-3.4414,-3.4414,-3.4414,-3.4414,-3.4414,-3.4414,-3.4414,0.0,0.0,0.0,0.0,0.0,0.0,0.0,-4.169,-4.224,-4.2301,-4.3766,-4.5156,-4.6015,-4.6239,-4.6924,-4.8486,-4.7998,0.0,0.0,0.0,0.0,0.0,0.0,0.0,-4.2474,-4.3352,-4.4582,-4.6202,-4.7012,-4.7416,-4.7396,-4.6528,-4.5241,-4.3652,-4.2783,-4.1839,-4.0871,-4.0604,-4.0425,-4.0301,-4.0301,-4.0301,0.0,0.0,0.0,0.0,0.0,0.0,0.0,0.0,0.0,0.0,0.0,0.0,0.0,0.0,0.0,0.0,0.0,-4.0851,-4.0838,-4.0594,-4.0524,-4.0183,-3.8884,0.0,0.0,-3.6485,-3.5893,-3.5577,-3.56,-3.5706,-3.6005,-3.6677,-3.618,-3.6478,-3.8804,-3.8444,-3.803,-3.8237,-3.7219,-3.6382,-3.6098,-3.6049,-3.5746,-3.5027,-3.496,-3.4794,-3.4414,-3.4414,-3.4414,-3.4414,-3.4414,-3.4414,-3.4414,-3.4414,-3.4414,-3.4414,-3.4414,-3.4414,-3.4414,-3.4414,-3.4414,-3.438,-3.4196,-3.423,-3.438,-3.4196,-3.423,-3.438,-3.438,-3.4414,-3.4414,-3.4414,-3.4414,-3.4414,0.0,0.0,0.0,0.0,0.0,0.0,0.0,0.0,0.0,0.0,-4.3312,-4.4305,-4.5199,-4.5895,-4.6456,0.0,0.0,0.0,0.0,0.0,0.0,0.0,0.0,0.0,-4.3382,-4.4254,-4.4894,-4.5304,-4.6161,-4.6589,-4.655,-4.5689,-4.4715,-4.365,-4.2794,-4.1771,-4.0743,-4.0577,-4.0419,-4.0301,-4.0301,-4.0301,0.0,0.0,0.0,0.0,-4.0215,-4.0186,0.0,0.0,0.0,0.0,0.0,0.0,0.0,0.0,-3.8851,-3.8988,-3.901,0.0,-3.975,-3.9049,-3.882,-3.8577,0.0,0.0,0.0,0.0,0.0,0.0,0.0,-3.556,-3.5841,-3.6654,-3.6643,-3.6939,-3.819,-3.7908,-3.7393,-3.6971,-3.6677,-3.6566,-3.6751,-3.6504,-3.6141,-3.5706,-3.5449,-3.5025,-3.4443,-3.4414,-3.4414,-3.4414,-3.4414,-3.4414,-3.4414,-3.4414,-3.4414,-3.4414,-3.4414,-3.4414,-3.4414,-3.4414,-3.4414,-3.4414,-3.4346,-3.4264,-3.4162,-3.4312,-3.4264,-3.4196,-3.4346,-3.4414,-3.4414,-3.4414,-3.4414,-3.4414,0.0,0.0,0.0,0.0,0.0,0.0,0.0,0.0,0.0,0.0,-4.2911,-4.3888,-4.4348,-4.5542,-4.6463,0.0,0.0,0.0,0.0,0.0,0.0,0.0,0.0,-4.3884,-4.4282,-4.4761,-4.5381,-4.6181,-4.6671,-4.6905,-4.6885,-4.6417,-4.5306,-4.363,-4.2234,-4.1232,-4.0601,-4.0477,-4.0363,-4.0301,-4.0301,0.0,0.0,0.0,0.0,0.0,-4.0157,-4.0157,0.0,-4.0017,-3.9724,-3.9389,0.0,0.0,0.0,0.0,-3.8658,-3.8578,-3.8449,-3.8713,-3.8867,-3.8297,-3.8139,-3.7967,-3.7378,0.0,0.0,0.0,0.0,0.0,0.0,0.0,-3.5672,-3.6157,-3.6575,-3.7136,-3.8027,-3.7728,-3.7304,-3.7001,-3.6551,-3.6269,-3.625,-3.5935,-3.5585,-3.5229,-3.5025,-3.4777,-3.4428,-3.4414,-3.4414,-3.4414,-3.4414,-3.4414,-3.4414,-3.4414,-3.4414,-3.4414,-3.4414,-3.4414,-3.4414,-3.4414,-3.4414,-3.438,-3.4312,-3.423,-3.423,-3.4264,-3.423,-3.423,-3.4346,-3.4414,-3.4414,-3.4414,-3.4414,-3.4414,0.0,0.0,0.0,0.0,0.0,0.0,0.0,0.0,0.0,0.0,0.0,0.0,0.0,0.0,0.0,0.0,0.0,0.0,0.0,0.0,0.0,0.0,-4.4492,-4.4432,-4.5181,-4.5192,-4.5929,-4.7391,-4.7528,-4.7586,-4.7584,-4.7606,-4.6199,-4.3595,-4.1721,-4.0756,-4.05,-4.0368,-4.0301,-4.0301,-4.0301,0.0,0.0,0.0,0.0,0.0,0.0,0.0,0.0,-3.9807,-3.9575,-3.9363,-3.917,0.0,0.0,0.0,0.0,0.0,-3.8563,-3.8394,-3.8223,-3.807,-3.8109,-3.7988,-3.7265,0.0,0.0,0.0,0.0,0.0,0.0,-3.5553,0.0,-3.5763,-3.638,-3.7112,-3.7806,-3.7544,-3.7277,-3.734,-3.6546,-3.5831,-3.5432,-3.5103,-3.4769,-3.4414,-3.4414,-3.4414,-3.4414,-3.4414,-3.4414,-3.4414,-3.4414,-3.4414,-3.4414,-3.4414,-3.4414,-3.4414,-3.4414,-3.4414,-3.4414,-3.4414,-3.4414,-3.438,-3.423,-3.423,-3.4346,-3.4196,-3.423,-3.4346,-3.438,-3.4414,-3.4414,-3.4414,-3.4414,-3.4414,0.0,0.0,0.0,0.0,0.0,0.0,0.0,0.0,0.0,0.0,0.0,0.0,0.0,0.0,0.0,0.0,0.0,0.0,0.0,0.0,0.0,-4.6149,-4.5966,-4.5963,-4.6105,-4.6093,-4.6222,-4.6495,-4.7237,-4.7563,-4.7515,-4.7563,-4.6165,-4.3559,-4.234,-4.1317,-4.0484,-4.0351,-4.0301,-4.0301,-4.0301,0.0,0.0,0.0,0.0,0.0,0.0,0.0,0.0,-3.9807,-3.9575,-3.9363,-3.917,0.0,0.0,0.0,0.0,0.0,-3.9175,-3.8697,-3.807,-3.8157,-3.8595,-3.86,-3.6968,0.0,0.0,0.0,0.0,0.0,0.0,-3.584,-3.633,-3.658,-3.6903,-3.7004,-3.6642,-3.6608,-3.6647,-3.6661,-3.6271,-3.5831,-3.5432,-3.5103,-3.4769,-3.4414,-3.4414,-3.4414,-3.4414,-3.4414,-3.4414,-3.4414,-3.4414,-3.4414,-3.4414,-3.4414,-3.4414,-3.4414,-3.4414,-3.4414,-3.4414,-3.4414,-3.4414,-3.4414,-3.438,-3.4264,-3.4162,-3.4312,-3.4264,-3.4162,-3.4346,-3.4414,-3.4414,-3.4414,-3.4414,-3.4414,0.0,0.0,0.0,0.0,0.0,0.0,0.0,0.0,0.0,0.0,0.0,0.0,0.0,0.0,0.0,0.0,0.0,0.0,0.0,0.0,-4.742,-4.7011,-4.6559,-4.6302,-4.6301,-4.7191,-4.7437,-4.7002,-4.8308,-4.8697,-4.8185,-4.7313,-4.5657,-4.3396,-4.2436,-4.1403,-4.0394,-4.0336,-4.0301,-4.0301,0.0,0.0,0.0,0.0,0.0,0.0,0.0,0.0,0.0,0.0,-3.9401,-3.921,-3.8964,0.0,0.0,0.0,0.0,0.0,-3.8776,-3.8737,-3.8617,-3.867,-3.8671,-3.8382,-3.7283,-3.715,0.0,0.0,0.0,0.0,0.0,0.0,-3.7123,-3.7443,-3.7614,-3.7508,-3.6951,-3.696,-3.68,-3.6289,-3.5894,-3.5527,-3.5169,-3.482,-3.4582,-3.4414,-3.4414,-3.4414,-3.4414,-3.4414,-3.4414,-3.4414,-3.4414,-3.4414,-3.4414,-3.4414,-3.4414,-3.4414,-3.4414,-3.4414,-3.4414,-3.4414,-3.4414,-3.4414,-3.4414,-3.4346,-3.4264,-3.4346,-3.4346,-3.4264,-3.4346,-3.4414,-3.4414,-3.4414,-3.4414,-3.4414,0.0,0.0,0.0,0.0,0.0,0.0,0.0,0.0,0.0,0.0,0.0,0.0,0.0,0.0,0.0,0.0,0.0,0.0,0.0,-4.6914,-4.7305,-4.7305,-4.666,-4.658,-4.718,-4.8052,-4.8416,-4.8191,-4.946,-4.9753,-4.9072,-4.7552,-4.5696,-4.3583,-4.2679,-4.1542,-4.0316,-4.031,-4.0291,-4.0301,0.0,0.0,0.0,0.0,0.0,0.0,0.0,0.0,0.0,0.0,0.0,0.0,0.0,0.0,0.0,-3.8707,-3.8562,-3.8421,-3.8542,-3.8702,-3.8852,-3.8816,-3.8449,-3.8038,-3.7839,-3.7647,0.0,0.0,0.0,0.0,0.0,-3.7267,-3.792,-3.8297,-3.8239,-3.7965,-3.7469,-3.7208,-3.6815,-3.61,-3.5591,-3.5201,-3.492,-3.4601,-3.4414,-3.4414,-3.4414,-3.4414,-3.4414,-3.4414,-3.4414,-3.4414,-3.4414,-3.4414,-3.4414,-3.4414,-3.4414,-3.4414,-3.4414,-3.4414,-3.4414,-3.4414,-3.4414,-3.4414,-3.4414,-3.4414,-3.4414,-3.4414,-3.4414,-3.4414,-3.4414,-3.4414,-3.4414,-3.4414,-3.4414,-3.4414,0.0,0.0,0.0,0.0,0.0,0.0,0.0,0.0,0.0,0.0,0.0,0.0,0.0,0.0,0.0,0.0,0.0,0.0,0.0,-4.6367,-4.6387,-4.6387,-4.6328,-4.7401,-4.9777,-4.8423,-4.8415,-4.9928,-5.0046,-5.0065,-4.9987,-4.8931,-4.7062,-4.454,-4.3486,-4.2044,-4.0398,-4.0328,-4.0291,-4.0298,-4.0298,0.0,0.0,0.0,0.0,0.0,0.0,0.0,0.0,0.0,0.0,0.0,0.0,0.0,-3.8707,-3.8707,-3.8562,-3.8549,-3.9232,-3.8753,-3.8057,-3.7988,-3.7847,-3.7893,-3.8463,-3.7478,0.0,-3.7003,0.0,0.0,0.0,-3.8037,-3.8807,-3.9076,-3.863,-3.806,-3.749,-3.6631,-3.6068,-3.6005,-3.5379,-3.4935,-3.4902,-3.4601,-3.4414,-3.4414,-3.4414,-3.4414,-3.4414,-3.4414,-3.4414,-3.4414,-3.4414,-3.4414,-3.4414,-3.4414,-3.4414,-3.4414,-3.4414,-3.4414,-3.4414,-3.4414,-3.4414,-3.4414,-3.4414,-3.4414,-3.4414,-3.4414,-3.4414,-3.4414,-3.4414,-3.4414,-3.4414,-3.4414,-3.4414,-3.4414,0.0,0.0,0.0,0.0,0.0,0.0,0.0,0.0,0.0,0.0,0.0,0.0,0.0,0.0,0.0,0.0,0.0,0.0,0.0,-4.5996,-4.6543,-4.707,-4.6582,-4.7499,-5.0035,-4.9484,-4.9729,-5.0906,-5.0906,-5.036,-4.9284,-4.8851,-4.6934,-4.3809,-4.3317,-4.2063,-4.0337,-4.0318,-4.0308,-4.0307,-4.0353,-4.0289,0.0,0.0,0.0,0.0,0.0,0.0,0.0,0.0,-3.8979,-3.8837,-3.8719,-3.8707,-3.8707,-3.8707,-3.8199,-3.771,-3.7942,-3.7977,-3.7916,-3.7793,-3.7841,0.0,0.0,-3.8024,-3.822,-3.8432,-3.846,0.0,-3.8755,-3.8799,-3.8891,-3.9143,-3.8684,-3.8096,-3.749,-3.6569,-3.5894,-3.5655,-3.5216,-3.4835,-3.4601,-3.4481,-3.4414,-3.4414,-3.4414,-3.4414,-3.4414,-3.4414,-3.4414,-3.4414,-3.4414,-3.4414,-3.4414,-3.4414,-3.4414,-3.4414,-3.4414,-3.4414,-3.4414,-3.4414,-3.4414,-3.4414,-3.4414,-3.4414,-3.4414,-3.4414,-3.4414,-3.4414,-3.4414,-3.4414,-3.4414,-3.4414,-3.4414,-3.4414,0.0,0.0,0.0,0.0,0.0,0.0,0.0,0.0,0.0,0.0,0.0,0.0,0.0,0.0,0.0,0.0,0.0,0.0,-4.5038,-4.5292,-4.5879,-4.6738,-4.6211,-4.7089,-4.9665,-4.9447,-5.0006,-5.1398,-5.1119,-5.0369,-4.9167,-4.8483,-4.6678,-4.4002,-4.3308,-4.2142,-4.0691,-4.0413,-4.0314,-4.0349,-4.0307,-4.0186,0.0,0.0,0.0,0.0,0.0,0.0,0.0,0.0,-3.8881,-3.8707,-3.8707,-3.8707,-3.8652,-3.8365,-3.7945,-3.7494,-3.7162,-3.7309,-3.754,-3.7487,0.0,0.0,-3.7548,-3.8171,-3.8892,-3.9226,-3.9299,-3.9379,-3.9651,-3.9353,-3.9185,-3.9456,-3.8821,-3.8153,-3.7738,-3.66,-3.572,-3.5432,-3.5004,-3.4635,-3.4414,-3.4414,-3.4414,-3.4414,-3.4414,-3.4414,-3.4414,-3.4414,-3.4414,-3.4414,-3.4414,-3.4414,-3.4414,-3.4414,-3.4414,-3.4414,-3.4414,-3.4414,-3.4414,-3.4414,-3.4414,-3.4414,-3.4414,-3.4414,-3.4414,-3.4414,-3.4414,-3.4414,-3.4414,-3.4414,-3.4414,-3.4414,-3.4414,-3.4414,0.0,0.0,0.0,0.0,0.0,0.0,0.0,0.0,-4.6619,-4.7479,-4.7597,0.0,0.0,0.0,0.0,0.0,0.0,0.0,-4.498,-4.4179,-4.4081,-4.4941,-4.5,-4.6211,-4.8806,-4.8022,-4.8836,-5.1387,-5.0529,-5.0068,-4.9921,-4.7936,-4.6491,-4.5492,-4.3633,-4.2354,-4.152,-4.0669,-4.0366,-4.0473,-4.0129,-4.0072,-4.0158,0.0,0.0,0.0,0.0,0.0,0.0,0.0,-3.8747,-3.8689,-3.8707,-3.8689,-3.8527,-3.7659,-3.7875,-3.8184,-3.7225,-3.6875,-3.682,0.0,0.0,0.0,-3.7652,-3.7711,-3.8026,-3.908,-3.9299,-3.9379,-3.9651,-3.9703,-3.9781,-4.0045,-3.9092,-3.8306,-3.8278,-3.663,-3.54,-3.54,-3.482,-3.4414,-3.4414,-3.4414,-3.4414,-3.4414,-3.4414,-3.4414,-3.4414,-3.4414,-3.4414,-3.4414,-3.4414,-3.4414,-3.4414,-3.4414,-3.4414,-3.4414,-3.4414,-3.4414,-3.4414,-3.4414,-3.4414,-3.4414,-3.4414,-3.4414,-3.4414,-3.4414,-3.4414,-3.4414,-3.4414,-3.4414,-3.4414,-3.4414,-3.4414,-3.4414,0.0,0.0,0.0,0.0,0.0,0.0,0.0,0.0,-4.6386,-4.664,-4.7226,0.0,0.0,0.0,0.0,0.0,0.0,0.0,-4.412,-4.3847,-4.3828,-4.4062,-4.4668,-4.5351,-4.6132,-4.7107,-4.8253,-4.9563,-4.9876,-4.9393,-4.8164,-4.7427,-4.5942,-4.3887,-4.3283,-4.2166,-4.0724,-4.0329,-4.0158,-4.0129,-3.984,-3.9694,-3.964,0.0,0.0,0.0,0.0,0.0,0.0,0.0,0.0,0.0,-3.8524,-3.8303,-3.7808,-3.7554,-3.7101,-3.6526,-3.5633,-3.5645,0.0,-3.5881,0.0,0.0,0.0,-3.8518,0.0,0.0,-3.9299,-3.9379,-3.9651,-3.9425,-3.9345,-3.9738,-3.8963,-3.8124,-3.7674,-3.66,-3.5674,-3.5103,-3.4668,-3.4414,-3.4414,-3.4414,-3.4414,-3.4414,-3.4414,-3.4414,-3.4414,-3.4414,-3.4414,-3.4414,-3.4414,-3.4414,-3.4414,-3.4414,-3.4414,-3.4414,-3.4414,-3.4414,-3.4414,-3.4414,-3.4414,-3.4414,-3.4414,-3.4414,-3.4414,-3.4414,-3.4414,-3.4414,-3.4414,-3.4414,-3.4414,-3.4414,-3.4414,-3.4414,0.0,0.0,0.0,0.0,0.0,0.0,0.0,0.0,-4.5918,-4.625,-4.6758,-4.6875,0.0,0.0,0.0,0.0,0.0,0.0,-4.373,-4.3046,-4.2988,-4.3672,-4.4199,-4.4804,-4.5507,-4.6893,-4.747,-4.7214,-4.8044,-4.7876,-4.6756,-4.6235,-4.5121,-4.3582,-4.3532,-4.2649,-4.1208,-4.0729,-4.0276,-3.9859,-3.9548,-3.9402,-3.935,0.0,0.0,0.0,0.0,0.0,0.0,0.0,0.0,0.0,-3.8175,-3.7896,-3.7422,-3.7014,-3.6471,-3.5882,-3.5582,-3.5714,0.0,-3.6481,-3.7506,-3.8448,-3.8707,0.0,0.0,0.0,-3.9299,-3.9379,-3.959,-3.9335,-3.9255,-3.9651,-3.8909,-3.8197,-3.7863,-3.6768,-3.5849,-3.5365,-3.4754,-3.4414,-3.4414,-3.4414,-3.4414,-3.4414,-3.4414,-3.4414,-3.4414,-3.4414,-3.4414,-3.4414,-3.4414,-3.4414,-3.4414,-3.4414,-3.4414,-3.4414,-3.4414,-3.4414,-3.4414,-3.4414,-3.4414,-3.4414,-3.4414,-3.4414,-3.4414,-3.4414,-3.4414,-3.4414,-3.4414,-3.4414,-3.4414,-3.4414,-3.4414,-3.4414,0.0,0.0,-4.2772,-4.3553,0.0,0.0,0.0,0.0,-4.5312,-4.6191,-4.623,-4.6172,0.0,0.0,0.0,0.0,0.0,-4.3691,-4.3691,-4.207,-4.1854,-4.3516,-4.373,-4.4589,-4.6241,-4.6987,-4.6502,-4.4763,-4.567,-4.5903,-4.5543,-4.4696,-4.4234,-4.4096,-4.4039,-4.3405,-4.2324,-4.1431,-4.0506,-3.9618,-3.9279,-3.9178,-3.9232,-3.8974,0.0,0.0,0.0,0.0,0.0,0.0,0.0,0.0,-3.7823,-3.7511,-3.7206,-3.6306,-3.5982,-3.5989,-3.6472,-3.6607,0.0,-3.8074,-3.8384,0.0,-3.9161,-3.9299,-3.9299,-3.9299,-3.9299,-3.9325,-3.9475,-3.9352,-3.9325,-3.9573,-3.8871,-3.8343,-3.8455,-3.7086,-3.6039,-3.5944,-3.507,-3.4501,-3.4501,-3.4448,-3.4414,-3.4414,-3.4414,-3.4414,-3.4414,-3.4414,-3.4414,-3.4414,-3.4414,-3.4414,-3.4414,-3.4414,-3.4414,-3.4414,-3.4414,-3.4414,-3.4414,-3.4414,-3.4414,-3.4414,-3.4414,-3.4414,-3.4414,-3.4414,-3.4414,-3.4414,-3.4414,-3.4414,-3.4414,-3.4414,-3.4414,-3.4414,0.0,0.0,-4.3475,-4.3672,0.0,0.0,0.0,0.0,0.0,-4.6191,0.0,0.0,0.0,0.0,0.0,0.0,-4.4316,-4.3691,-4.3691,-4.2129,-4.1621,-4.2637,-4.3984,-4.5172,-4.612,-4.5714,-4.5172,-4.4564,-4.5541,-4.5254,-4.3776,-4.4133,-4.3923,-4.3269,-4.3295,-4.2651,-4.1476,-4.0389,-3.9674,-3.9205,-3.8931,-3.8851,-3.8906,-3.8833,-3.8848,0.0,0.0,0.0,0.0,0.0,0.0,0.0,-3.8303,-3.7569,-3.6523,-3.6311,-3.6094,-3.5898,-3.5899,-3.6208,0.0,0.0,-3.8401,-3.8813,-3.9215,-3.9299,-3.9299,-3.9299,-3.9299,-3.9299,-3.9325,-3.9013,-3.8805,-3.8969,-3.8655,-3.8205,-3.774,-3.7399,-3.6995,-3.6353,-3.5657,-3.5187,-3.5187,-3.4721,-3.4414,-3.4414,-3.4414,-3.4414,-3.4414,-3.4414,-3.4414,-3.4414,-3.4414,-3.4414,-3.4414,-3.4414,-3.4414,-3.4414,-3.4414,-3.4414,-3.4414,-3.4414,-3.4414,-3.4414,-3.4414,-3.4414,-3.4414,-3.4414,-3.4414,-3.4414,-3.4414,-3.4414,-3.4414,-3.4414,-3.4414,-3.4414,0.0,0.0,0.0,0.0,0.0,0.0,0.0,0.0,0.0,0.0,0.0,0.0,0.0,0.0,0.0,0.0,-4.3552,-4.3021,-4.3038,-4.1819,-4.1656,-4.2866,-4.4603,-4.5506,-4.5439,-4.5019,-4.4304,-4.3305,-4.3826,-4.3548,-4.2543,-4.2914,-4.2849,-4.2403,-4.2815,-4.2269,-4.1014,-4.038,-3.9662,-3.8913,-3.8747,-3.8499,-3.8177,-3.8177,-3.7982,-3.7745,-3.8132,0.0,0.0,0.0,0.0,0.0,0.0,0.0,-3.6254,-3.5765,-3.5261,-3.5059,-3.5969,0.0,0.0,-3.8398,0.0,-3.9098,-3.9252,-3.9299,-3.9299,-3.9299,-3.9299,-3.9245,-3.9094,-3.886,-3.8694,-3.8694,-3.8516,-3.8307,-3.8017,-3.7695,-3.7356,-3.692,-3.5992,-3.54,-3.54,-3.4787,-3.4414,-3.4414,-3.4414,-3.4414,-3.4414,-3.4414,-3.4414,-3.4414,-3.4414,-3.4414,-3.4414,-3.4414,-3.4414,-3.4414,-3.4414,-3.4414,-3.4414,-3.4414,-3.4414,-3.4414,-3.4414,-3.4414,-3.4414,-3.4414,-3.4414,-3.4414,-3.4414,-3.4414,-3.4414,-3.4414,-3.4414,-3.4414,0.0,0.0,0.0,0.0,0.0,0.0,0.0,0.0,0.0,0.0,0.0,0.0,0.0,0.0,-4.3448,0.0,0.0,0.0,-4.2278,-4.1602,-4.189,-4.3432,-4.4874,-4.5359,-4.4699,-4.4385,-4.3481,-4.1963,-4.1803,-4.1756,-4.1788,-4.1816,-4.178,-4.1731,-4.2352,-4.1947,-4.0766,-4.0534,-3.9672,-3.8487,-3.8487,-3.801,-3.729,-3.729,-3.6916,-3.6476,-3.7139,-3.7378,-3.7507,-3.8313,0.0,0.0,0.0,0.0,-3.6039,-3.5215,-3.4448,-3.429,-3.6116,0.0,-3.7408,-3.917,-3.9454,0.0,-3.9299,-3.9299,-3.9299,-3.9299,-3.9299,-3.9175,-3.8832,-3.8777,-3.8722,-3.8556,-3.8403,-3.8363,-3.8532,-3.796,-3.7535,-3.7565,-3.6492,-3.5706,-3.5578,-3.4971,-3.4534,-3.4414,-3.4414,-3.4414,-3.4414,-3.4414,-3.4414,-3.4414,-3.4414,-3.4414,-3.4414,-3.4414,-3.4414,-3.4414,-3.4414,-3.4414,-3.4414,-3.4414,-3.4414,-3.4414,-3.4414,-3.4414,-3.4414,-3.4414,-3.4414,-3.4414,-3.4414,-3.4414,-3.4414,-3.4414,-3.4414,-3.4414,0.0,0.0,0.0,0.0,0.0,0.0,0.0,0.0,0.0,0.0,-4.4357,-4.3794,0.0,-4.2961,-4.2393,-4.2401,-4.2281,-4.2217,-4.2214,0.0,0.0,-4.3452,-4.3728,-4.4086,-4.4608,-4.3139,-4.2194,-4.1828,-4.1074,-4.1078,-4.1788,-4.1855,-4.1824,-4.1694,-4.1571,-4.122,-4.0641,-3.9706,-3.866,-3.7658,-3.7658,-3.718,-3.645,-3.645,-3.6409,-3.6317,-3.6427,-3.6464,-3.6607,-3.747,-3.7301,0.0,0.0,0.0,-3.5335,-3.5211,-3.4911,-3.4819,0.0,0.0,-3.8394,0.0,-3.9454,-3.9299,0.0,0.0,-3.9299,-3.9299,-3.9299,-3.9164,-3.8722,-3.8639,-3.8528,-3.8307,-3.8107,-3.8078,-3.8363,-3.8221,-3.8135,-3.825,-3.7594,-3.6906,-3.6322,-3.5674,-3.5037,-3.4433,-3.4414,-3.4414,-3.4414,-3.4414,-3.4414,-3.4414,-3.4414,-3.4414,-3.4414,-3.4414,-3.4414,-3.4414,-3.4414,-3.4414,-3.4414,-3.4414,-3.4414,-3.4414,-3.4414,-3.4414,-3.4414,-3.4414,-3.4414,-3.4414,-3.4414,-3.4414,-3.4414,-3.4414,-3.4414,-3.4414,0.0,0.0,0.0,0.0,0.0,0.0,0.0,0.0,0.0,0.0,0.0,-4.2821,0.0,-4.2016,-4.147,-4.147,-4.1439,-4.1397,-4.1359,-4.1819,-4.2251,-4.2641,-4.3126,-4.3291,-4.3092,-4.237,-4.1705,-4.1066,-4.0723,-4.0746,-4.1135,-4.1131,-4.1319,-4.1679,-4.0864,-4.0325,-3.999,-3.9354,-3.8469,-3.7492,-3.7492,-3.7015,-3.6248,-3.5771,-3.5573,-3.5573,-3.5573,-3.5573,-3.5697,-3.6585,-3.6636,-3.6323,-3.6223,0.0,0.0,0.0,-3.4357,-3.4503,-3.5447,-3.6762,-3.8055,0.0,-3.9174,-3.9379,-3.9325,-3.9299,-3.9299,-3.9299,-3.9299,-3.9191,-3.8777,-3.8667,-3.8528,-3.8335,-3.8164,-3.8135,-3.8363,-3.8351,-3.8335,-3.8391,-3.7815,-3.7282,-3.6996,-3.6024,-3.527,-3.499,-3.462,-3.4414,-3.4414,-3.4414,-3.4414,-3.4414,-3.4414,-3.4414,-3.4414,-3.4414,-3.4414,-3.4414,-3.4414,-3.4414,-3.4414,-3.4414,-3.4414,-3.4414,-3.4414,-3.4414,-3.4414,-3.4414,-3.4414,-3.4414,-3.4414,-3.4414,-3.4414,-3.4414,-3.4414,-3.4433,0.0,0.0,0.0,0.0,0.0,0.0,0.0,0.0,0.0,0.0,0.0,0.0,0.0,0.0,0.0,0.0,-4.077,-4.0736,-4.0707,-4.1285,-4.175,-4.199,-4.2409,-4.2414,-4.194,-4.1768,-4.1289,-4.0531,-4.0588,-4.0706,-4.0906,-4.0608,-4.0869,-4.1561,-4.0561,-3.9868,-3.9389,-3.9115,-3.8305,-3.7199,-3.7199,-3.6688,-3.5917,-3.5481,-3.5188,-3.5004,-3.5004,-3.4876,-3.4821,-3.5725,-3.5872,-3.5615,-3.5207,-3.4977,0.0,0.0,0.0,0.0,0.0,0.0,-3.7247,-3.8018,-3.8754,-3.9313,0.0,-3.9325,-3.9299,-3.9299,-3.9299,-3.9218,-3.8914,-3.8694,-3.8488,-3.8307,-3.8164,-3.8151,-3.8379,-3.8363,-3.8379,-3.8408,-3.796,-3.7594,-3.7417,-3.6508,-3.577,-3.5432,-3.4938,-3.4568,-3.4414,-3.4414,-3.4414,-3.4414,-3.4414,-3.4414,-3.4414,-3.4414,-3.4414,-3.4414,-3.4414,-3.4414,-3.4414,-3.4414,-3.4414,-3.4414,-3.4414,-3.4414,-3.4414,-3.4448,-3.4448,-3.4414,-3.4635,-3.4601,-3.4448,-3.4773,-3.482,-3.4754,0.0,0.0,0.0,0.0,0.0,0.0,0.0,0.0,0.0,0.0,0.0,0.0,-4.2003,-4.1177,-4.0612,-4.0609,-4.0609,-4.0635,-4.0694,-4.0686,-4.1073,-4.197,-4.1242,0.0,-4.1988,-4.1196,-4.0698,-4.058,-4.0605,-4.0995,-4.172,-4.0814,-4.0727,-4.1288,-4.0923,-4.0146,-3.9101,-3.8837,-3.7804,-3.6358,-3.6358,-3.5844,-3.5151,-3.5936,-3.5734,-3.5004,-3.5004,-3.4509,-3.4004,-3.4949,-3.4718,-3.4165,-3.5019,-3.4666,-3.395,0.0,0.0,0.0,0.0,-3.5308,0.0,-3.7349,-3.8236,-3.8958,-3.9397,-3.9379,-3.9299,-3.9299,-3.9299,-3.9245,-3.9023,-3.8683,-3.8307,-3.7992,-3.7817,-3.7876,-3.8351,-3.8278,-3.8266,-3.8363,-3.8363,-3.8091,-3.7476,-3.7358,-3.6784,-3.5497,-3.5367,-3.5055,-3.4448,-3.4414,-3.4414,-3.4414,-3.4414,-3.4414,-3.4414,-3.4414,-3.4414,-3.4414,-3.4414,-3.4414,-3.4414,-3.4414,-3.4414,-3.4414,-3.4414,-3.4414,-3.4414,-3.4597,-3.4563,-3.4481,-3.5299,-3.5151,-3.4568,-3.5834,-3.5882,-3.5417,0.0,0.0,0.0,0.0,0.0,0.0,0.0,0.0,0.0,0.0,0.0,0.0,0.0,-4.0807,-4.0595,-4.061,-4.0549,-4.0557,-4.0624,-4.0617,-4.0747,-4.1092,-4.0848,-4.0822,-4.1091,-4.0887,-4.07,-4.0612,-4.0647,-4.0788,-4.1027,-4.0473,-4.0224,-4.0271,-4.0066,-3.9645,-3.905,-3.8269,-3.7309,-3.6248,-3.5697,-3.561,-3.5752,-3.4981,-3.5165,-3.5697,-3.4633,-3.4045,-3.3844,-3.4196,-3.4086,-3.3884,-3.4236,-3.4113,-3.3847,0.0,0.0,0.0,0.0,0.0,0.0,-3.6893,-3.7823,-3.8523,-3.8942,-3.9248,-3.9405,-3.9325,-3.9299,-3.9191,-3.8805,-3.8611,-3.8488,-3.8363,-3.8164,-3.8107,-3.8363,-3.8379,-3.8351,-3.8391,-3.8391,-3.8307,-3.8062,-3.7653,-3.7193,-3.6723,-3.6306,-3.5946,-3.5706,-3.527,-3.5023,-3.5023,-3.462,-3.4414,-3.4414,-3.4414,-3.4414,-3.4414,-3.4414,-3.4414,-3.4414,-3.4414,-3.4414,-3.4414,-3.4839,-3.5023,-3.5055,-3.5136,-3.535,-3.5706,-3.6024,-3.5961,-3.5738,-3.6228,-3.6259,-3.6134,0.0,0.0,0.0,-4.4928,0.0,-4.2748,-4.2216,-4.1302,-4.0687,-4.0729,0.0,0.0,0.0,0.0,-4.061,-4.061,-4.0569,-4.0549,-4.061,-4.0595,-4.061,-4.0628,-4.0654,-4.0668,-4.0668,-4.0752,-4.0591,-4.0203,-4.0243,-4.0068,-3.9723,-3.9416,-3.9115,-3.8829,-3.8645,-3.8715,-3.8913,-3.8225,-3.7276,-3.6211,-3.5353,-3.5353,-3.5807,-3.5238,-3.5385,-3.5771,-3.4926,-3.4284,-3.3807,-3.3807,-3.3807,-3.3807,-3.3807,-3.3807,-3.3807,0.0,0.0,0.0,-3.4193,0.0,0.0,0.0,-3.7082,-3.7674,-3.8765,-3.8789,-3.8739,-3.9256,-3.9153,-3.892,-3.8645,-3.8639,-3.8611,-3.8476,-3.8323,-3.8266,-3.8363,-3.8391,-3.8391,-3.8391,-3.8391,-3.8391,-3.8391,-3.8004,-3.7623,-3.7417,-3.6996,-3.6646,-3.6415,-3.5977,-3.5642,-3.54,-3.4754,-3.4414,-3.4414,-3.4414,-3.4414,-3.4414,-3.462,-3.4754,-3.4754,-3.4971,-3.5055,-3.5088,-3.5546,-3.561,-3.5432,-3.5721,-3.6055,-3.6415,-3.6707,-3.6646,-3.6446,-3.692,-3.692,-3.6829,-4.5884,-4.5386,-4.4799,-4.4649,-4.3165,-4.1989,-4.1961,-4.119,-4.0588,-4.0595,0.0,0.0,0.0,0.0,0.0,-4.0633,-4.0614,-4.0595,-4.0575,-4.0552,-4.0586,-4.0655,-4.0589,-4.0648,-4.079,-4.0797,-4.0333,-3.9406,-3.9406,-3.8922,-3.7981,-3.7706,-3.7413,-3.7073,-3.6833,-3.7429,-3.8634,-3.8597,-3.7698,-3.6211,-3.5334,-3.499,-3.5229,-3.6817,-3.6417,-3.5155,-3.5995,-3.5257,-3.3862,-3.3862,-3.3862,-3.3825,-3.3807,-3.3807,0.0,0.0,0.0,0.0,0.0,0.0,0.0,0.0,-3.6021,-3.6394,-3.8797,-3.8001,-3.7283,-3.9072,-3.8861,-3.838,-3.8542,-3.8689,-3.865,-3.8278,-3.8209,-3.8266,-3.8379,-3.8391,-3.8391,-3.8391,-3.8391,-3.8391,-3.8391,-3.8391,-3.8119,-3.7476,-3.7447,-3.7163,-3.6508,-3.6415,-3.6103,-3.5432,-3.4754,-3.4414,-3.4414,-3.4414,-3.4448,-3.4448,-3.5121,-3.5432,-3.5464,-3.6103,-3.6415,-3.6415,-3.6415,-3.6072,-3.5529,-3.6384,-3.6631,-3.6538,-3.7403,-3.7208,-3.6631,-3.7931,-3.8004,-3.7535,-4.4189,-4.3927,-4.3486,-4.2863,-4.2254,-4.1661,-4.1077,-4.0766,-4.0598,0.0,0.0,0.0,-4.0595,-4.0595,-4.0846,-4.1482,-4.0961,-4.0356,-3.9771,-3.9725,-3.9744,-3.9765,-3.9747,-4.0037,-4.0713,-4.0784,-4.0333,-3.9406,-3.9406,-3.8823,-3.7702,-3.7443,-3.7139,-3.6826,-3.7146,-3.7161,-3.6927,-3.6288,-3.6123,-3.6174,-3.4724,-3.5023,-3.6305,-3.5657,-3.5806,-3.6342,-3.6042,-3.5795,-3.5605,-3.5605,-3.5202,-3.4564,-3.399,-3.3807,0.0,0.0,0.0,0.0,-3.3605,0.0,0.0,0.0,0.0,0.0,-3.7306,-3.6908,-3.6616,-3.8051,-3.7549,-3.7153,-3.8081,-3.8116,-3.8079,-3.8311,-3.8335,-3.8307,-3.825,-3.8351,-3.8391,-3.8391,-3.8391,-3.8391,-3.8391,-3.8391,-3.8307,-3.8148,-3.8119,-3.8033,-3.7857,-3.692,-3.6103,-3.5432,-3.4754,-3.4414,-3.4414,-3.4872,-3.5121,-3.5121,-3.5802,-3.6134,-3.6134,-3.6322,-3.6415,-3.6415,-3.692,-3.7027,-3.6875,-3.7103,-3.7476,-3.7857,-3.8091,-3.8062,-3.7902,-3.8262,-3.8278,-3.8148,-4.3389,-4.3063,-4.2579,-4.2047,-4.1586,-4.1135,-4.0677,-4.0607,-4.0603,0.0,0.0,0.0,-4.0674,-4.0674,-4.0887,-4.1389,-4.0609,-3.99,-3.9425,-3.9036,-3.8844,-3.8903,-3.9193,-3.9605,-4.0159,-4.0514,-4.0101,-3.8865,-3.8852,-3.8053,-3.6502,-3.6273,-3.5979,-3.5671,-3.5883,-3.5711,-3.522,-3.4711,-3.4986,-3.5665,-3.4576,-3.487,-3.5905,-3.5523,-3.573,-3.6219,-3.6254,-3.6175,-3.609,-3.6241,-3.5734,-3.4844,-3.4023,-3.378,-3.3793,-3.3739,0.0,0.0,0.0,0.0,0.0,-3.4251,0.0,0.0,-3.6447,-3.5995,-3.5732,-3.7405,-3.7244,-3.696,-3.7465,-3.7712,-3.779,-3.7733,-3.787,-3.7995,-3.8189,-3.8323,-3.8391,-3.8391,-3.8391,-3.8391,-3.8391,-3.8391,-3.8391,-3.8391,-3.8391,-3.8391,-3.8391,-3.7385,-3.6523,-3.5834,-3.5187,-3.482,-3.482,-3.5204,-3.5546,-3.5834,-3.6492,-3.6829,-3.6829,-3.7101,-3.7237,-3.7266,-3.7653,-3.7844,-3.7902,-3.7844,-3.8062,-3.8391,-3.8391,-3.8391,-3.8391,-3.8391,-3.8391,-3.8391,0.0,-4.2463,-4.1889,-4.1779,-4.1096,-4.0592,-4.058,-4.058,-4.0595,0.0,-4.0661,-4.0739,-4.0887,-4.081,-4.081,-4.0907,-3.9966,-3.9341,-3.9258,-3.838,-3.793,-3.8048,-3.8664,-3.9101,-3.9245,-3.9952,-3.952,-3.7925,-3.791,-3.6899,-3.4931,-3.4726,-3.4472,-3.4148,-3.3908,-3.3807,-3.3807,-3.3748,-3.4211,-3.4934,-3.4695,-3.4682,-3.4932,-3.6034,-3.6076,-3.5629,-3.6598,-3.6532,-3.603,-3.6314,-3.5903,-3.5086,-3.4133,-3.3867,-3.3876,-3.3665,-3.3549,0.0,0.0,0.0,0.0,-3.4145,-3.3761,0.0,-3.5845,-3.5138,-3.4625,-3.6702,-3.7028,-3.6859,-3.6679,-3.718,-3.7455,-3.6897,-3.7093,-3.7483,-3.8067,-3.8278,-3.8391,-3.8363,-3.8391,-3.8391,-3.8391,-3.8391,-3.8391,-3.8391,-3.8391,-3.8391,-3.8391,-3.7756,-3.7133,-3.6538,-3.5866,-3.5529,-3.5529,-3.5578,-3.5929,-3.6508,-3.7177,-3.7506,-3.7535,-3.8119,-3.8391,-3.8391,-3.8391,-3.8464,-3.8576,-3.8464,-3.8408,-3.842,-3.8408,-3.8391,-3.8391,-3.8391,-3.8391,-3.8391,-4.1215,-4.1048,-4.087,-4.0796,-4.0635,-4.0523,-4.0523,-4.0473,-4.0496,-4.0654,-4.0635,-4.087,-4.1532,-4.0985,-4.0831,-4.1543,-4.0142,-3.8948,-3.8329,-3.7493,-3.7044,-3.707,-3.7212,-3.7617,-3.8344,-3.8511,-3.8,-3.6815,-3.6757,-3.5939,-3.4419,-3.4338,-3.4153,-3.3868,-3.3815,-3.3807,-3.3775,-3.3508,-3.3851,-3.4598,-3.4591,-3.5214,-3.6124,-3.6096,-3.6396,-3.6857,-3.7073,-3.7416,-3.7725,-3.7259,-3.6991,-3.6607,-3.5129,-3.4668,-3.4526,-3.3816,-3.3549,-3.3481,0.0,0.0,-3.3137,-3.3332,-3.3435,0.0,-3.4495,-3.3807,-3.3363,-3.4665,-3.4076,-3.3806,-3.5371,-3.5557,-3.5721,-3.6643,-3.708,-3.7399,-3.7751,-3.8151,-3.8379,-3.825,-3.8335,-3.8391,-3.8391,-3.8391,-3.8391,-3.8391,-3.8391,-3.8391,-3.8391,-3.7756,-3.7342,-3.7222,-3.6554,-3.6197,-3.6197,-3.6738,-3.7072,-3.7222,-3.7873,-3.8205,-3.8221,-3.8335,-3.8391,-3.8391,-3.8391,-3.8391,-3.842,-3.8391,-3.8448,-3.8532,-3.842,-3.8391,-3.8391,-3.8391,-3.8391,-3.8391,-4.0655,-4.0626,-4.0591,-4.0565,-4.0543,-4.0519,-4.0465,-4.0438,-4.0462,-4.0542,-4.0549,-4.0696,-4.112,-4.0628,-4.0317,-4.0389,-3.9054,-3.7936,-3.7278,-3.6435,-3.6029,-3.6189,-3.6549,-3.6925,-3.7293,-3.7659,-3.7335,-3.6297,-3.6233,-3.555,-3.4311,-3.4223,-3.4056,-3.3807,-3.3807,-3.3807,-3.3757,-3.3047,-3.2977,-3.3436,-3.4375,-3.5327,-3.6201,-3.6309,-3.656,-3.6876,-3.7015,-3.7431,-3.7734,-3.6627,-3.6499,-3.6502,-3.4817,-3.4775,-3.5109,-3.4099,-3.3927,-3.3912,-3.3352,-3.3104,-3.3116,-3.3542,-3.3321,0.0,0.0,-3.3431,-3.2784,-3.379,-3.3598,-3.3455,-3.4124,-3.4635,-3.5114,-3.5605,-3.6427,-3.7026,-3.7037,-3.7882,-3.8464,-3.8323,-3.842,-3.8476,-3.8408,-3.8391,-3.8391,-3.8391,-3.8391,-3.8391,-3.8391,-3.8091,-3.7756,-3.7417,-3.7057,-3.689,-3.689,-3.7222,-3.7565,-3.7902,-3.825,-3.8391,-3.8391,-3.8391,-3.8391,-3.8391,-3.8391,-3.842,-3.8476,-3.8436,-3.8476,-3.8604,-3.8448,-3.8391,-3.8391,-3.8391,-3.8391,-3.8391,-4.0588,-4.06,-4.0605,-4.0573,-4.0577,-4.0508,-4.0414,-4.0433,-4.0417,-4.0321,-4.0498,-4.0603,-4.0551,-4.0349,-3.9976,-3.9385,-3.8141,-3.7173,-3.6651,-3.5755,-3.5291,-3.5429,-3.6002,-3.6261,-3.6165,-3.6764,-3.6644,-3.5816,-3.5718,-3.5106,-3.4018,-3.3936,-3.3771,-3.3568,-3.3568,-3.3642,-3.3725,-3.2587,-3.2358,-3.2859,-3.4072,-3.4745,-3.5095,-3.5911,-3.6171,-3.6168,-3.6751,-3.7151,-3.7236,-3.6025,-3.6007,-3.6221,-3.4677,-3.4865,-3.5491,-3.4524,-3.4357,-3.4341,-3.3586,-3.3296,-3.3339,-3.3819,-3.3299,-3.2967,0.0,0.0,0.0,-3.309,-3.3415,-3.3438,-3.2964,-3.3762,-3.4419,-3.4277,-3.5309,-3.6102,-3.6114,-3.7247,-3.8111,-3.8193,-3.8321,-3.8442,-3.842,-3.8278,-3.8246,-3.8391,-3.8278,-3.8246,-3.8391,-3.8391,-3.8148,-3.7594,-3.7594,-3.7594,-3.7594,-3.7594,-3.7873,-3.8391,-3.8391,-3.8391,-3.8391,-3.8391,-3.8391,-3.8391,-3.8391,-3.8448,-3.8532,-3.8448,-3.8448,-3.8532,-3.842,-3.8391,-3.8391,-3.8391,-3.8391,-3.8391,-4.0441,-4.0595,-4.0573,-4.0515,-4.0458,-4.0422,-4.0397,-4.0362,-4.0234,-3.9998,-4.0648,-4.1011,-4.0709,-4.0647,-4.0597,-4.0516,-3.9012,-3.7788,-3.7079,-3.6209,-3.5449,-3.4841,-3.4878,-3.4945,-3.5002,-3.5087,-3.4999,-3.4757,-3.4573,-3.3969,-3.2964,-3.2839,-3.2768,-3.2729,-3.2729,-3.3115,-3.3707,-3.2339,-3.293,-3.4671,-3.3702,-3.2703,-3.2031,-3.3797,-3.4554,-3.4861,-3.6499,-3.711,-3.715,-3.7143,-3.7126,-3.6963,-3.6184,-3.5773,-3.5539,-3.5172,-3.4623,-3.4206,-3.4372,-3.4426,-3.4177,-3.3217,-3.3379,-3.3515,-3.2323,0.0,-3.1813,-3.1611,0.0,-3.1444,-3.2031,0.0,0.0,-3.2984,-3.3588,-3.4206,-3.4952,-3.5688,-3.6446,-3.7318,-3.7666,-3.7965,-3.8371,-3.7825,-3.7711,-3.8359,-3.7792,-3.7728,-3.8375,-3.8391,-3.8379,-3.8307,-3.8278,-3.8278,-3.8278,-3.8278,-3.8307,-3.8391,-3.8391,-3.8391,-3.8391,-3.8391,-3.8391,-3.8391,-3.8391,-3.8408,-3.842,-3.8408,-3.8408,-3.842,-3.8408,-3.8391,-3.8391,-3.8391,-3.8391,-3.8391,-3.9665,-4.0231,-4.0535,-4.0491,-4.0485,-4.0422,-4.0349,-4.0196,-4.0027,-3.9914,-4.0027,-4.0075,-4.0009,-3.9797,-3.9498,-3.9149,-3.8346,-3.7391,-3.6304,-3.5892,0.0,-3.4722,-3.4663,-3.4593,-3.4518,-3.4054,-3.3732,-3.3569,-3.2966,-3.2692,-3.2736,-3.2672,-3.2904,-3.3345,-3.3345,-3.368,-3.416,-3.2433,-3.2147,-3.277,-3.2003,-3.1133,-3.0628,-3.4185,-3.5512,-3.5602,-3.6348,-3.6652,-3.6586,-3.6249,-3.6372,-3.6539,-3.5707,-3.5824,-3.6099,-3.536,-3.5096,-3.4957,-3.4574,-3.4597,-3.4546,-3.3784,-3.3496,-3.3199,-3.2543,-3.1701,-3.1099,-3.1266,0.0,0.0,0.0,0.0,0.0,0.0,-3.3066,-3.371,-3.3732,-3.4618,-3.5671,-3.6763,-3.6646,-3.6685,-3.714,-3.7324,-3.7708,-3.8455,-3.7755,-3.7658,-3.8472,-3.842,-3.8391,-3.8391,-3.8391,-3.8391,-3.8391,-3.8391,-3.8391,-3.8391,-3.8391,-3.8391,-3.8391,-3.8391,-3.8391,-3.8391,-3.8391,-3.8391,-3.8391,-3.8391,-3.8391,-3.8391,-3.8391,-3.8391,-3.8391,-3.8391,-3.8391,-3.8391,-3.8439,-3.9223,-3.9869,-4.0071,-4.012,-4.0128,-4.0177,-3.964,-3.9329,-3.9648,-3.9427,-3.9397,-3.9842,-3.9624,-3.9257,-3.8808,-3.8394,-3.7583,-3.6159,-3.5882,-3.5497,-3.4813,-3.4529,-3.4318,-3.4183,-3.3403,-3.2919,-3.2798,-3.1949,-3.1832,-3.2391,-3.241,-3.2692,-3.325,-3.3471,-3.3817,-3.4151,-3.2627,-3.2157,-3.2389,-3.1843,-3.1524,-3.1679,-3.4711,-3.6039,-3.6301,-3.6301,-3.6301,-3.6215,-3.568,-3.5811,-3.6109,-3.5467,-3.5769,-3.6233,-3.5611,-3.5517,-3.5483,-3.4948,-3.4944,-3.4913,-3.4048,-3.3456,-3.2941,-3.2376,-3.15,-3.0979,-3.1574,-3.1608,0.0,0.0,0.0,-3.253,-3.2114,0.0,-3.3288,-3.2673,-3.3394,-3.444,-3.5603,-3.5618,-3.568,-3.6078,-3.6645,-3.7351,-3.8269,-3.7601,-3.7476,-3.8246,-3.8407,-3.8339,-3.8116,-3.8294,-3.8391,-3.8391,-3.8391,-3.8391,-3.8391,-3.8391,-3.8391,-3.8391,-3.8391,-3.8391,-3.8391,-3.8391,-3.8391,-3.8391,-3.8391,-3.8391,-3.8391,-3.8391,-3.8391,-3.8391,-3.8391,-3.8391,-3.8391,-3.6692,-3.7387,-3.8228,-3.9005,-3.9131,-3.9332,-3.9834,-3.854,-3.7867,-3.8987,-3.9096,-3.9552,-4.0732,-4.0831,-4.0798,-4.0715,-4.0052,-3.8949,-3.7354,-3.6641,-3.5877,-3.5032,-3.4238,-3.3855,-3.3908,-3.3116,-3.2736,-3.2798,-3.1991,-3.1616,-3.1639,-3.1634,-3.1617,-3.1605,-3.2385,-3.2953,-3.3334,-3.2921,-3.3827,-3.547,-3.4406,-3.4818,-3.5939,-3.4665,-3.5059,-3.6301,-3.6301,-3.6301,-3.6301,-3.6266,-3.6156,-3.6019,-3.6127,-3.5866,-3.5616,-3.6114,-3.581,-3.5385,-3.5747,-3.586,-3.5394,-3.3426,-3.325,-3.3049,-3.1041,-3.109,-3.1763,-3.2486,-3.3199,-3.3905,-3.4618,-3.4767,-3.4319,0.0,-3.2718,0.0,0.0,-3.1767,-3.2155,-3.3357,-3.4644,-3.5468,-3.5602,-3.5643,-3.6249,-3.7615,-3.7101,-3.6967,-3.7519,-3.8225,-3.8223,-3.7344,-3.8035,-3.8391,-3.8391,-3.8391,-3.8391,-3.8391,-3.8391,-3.8391,-3.8391,-3.8391,-3.8391,-3.8391,-3.8391,-3.8391,-3.8391,-3.8391,-3.8391,-3.8391,-3.8391,-3.8391,-3.8391,-3.8391,-3.8391,-3.8391,-3.5334,-3.5626,-3.6362,-3.7781,-3.804,-3.8023,-3.7991,-3.7385,-3.7455,-3.8906,-3.8829,-3.9211,-4.0723,-4.0823,-4.0789,-4.0874,-4.0652,-3.9811,-3.8199,-3.7469,-3.6692,-3.5758,-3.4495,-3.4059,-3.4623,-3.3319,-3.2421,-3.1931,-3.1132,-3.1027,-3.1579,-3.1108,-3.1422,-3.2428,-3.2656,-3.3163,-3.382,-3.3663,-3.4006,-3.4619,-3.4239,-3.4973,-3.6249,-3.5749,-3.587,-3.6301,-3.6301,-3.6301,-3.6301,-3.6255,-3.6187,-3.6101,-3.5971,-3.5834,-3.5723,-3.5822,-3.5689,-3.5532,-3.5655,-3.5859,-3.5685,-3.4257,-3.3766,-3.3288,-3.1809,-3.1986,-3.2541,-3.2774,-3.3736,-3.4601,-3.4849,-3.4899,0.0,0.0,0.0,-3.3017,0.0,-3.1163,-3.1122,-3.1915,-3.3742,-3.4521,-3.3451,-3.4693,-3.5987,-3.6885,-3.6806,-3.6987,-3.7594,-3.833,-3.8313,-3.7449,-3.8225,-3.8572,-3.8391,-3.8492,-3.8532,-3.8532,-3.842,-3.8464,-3.8548,-3.842,-3.8391,-3.8391,-3.8391,-3.8391,-3.8391,-3.8391,-3.8391,-3.8391,-3.8391,-3.8391,-3.8391,-3.8391,-3.8391,-3.8391,-3.468,-3.4675,-3.52,-3.6642,-3.6907,-3.6887,-3.6883,-3.6752,-3.7204,-3.8681,-3.8875,-3.9489,-4.1112,-4.121,-4.1211,-4.1294,-4.1328,-4.0559,-3.8638,-3.8129,-3.7422,-3.6256,-3.5252,-3.4853,-3.5106,-3.38,-3.274,-3.1968,-3.1174,-3.1228,0.0,0.0,0.0,0.0,-3.2988,-3.3387,-3.3693,-3.4203,-3.4604,-3.4947,-3.489,-3.5439,-3.6301,-3.6301,-3.6301,-3.6301,-3.6301,-3.6259,-3.6191,-3.6127,-3.6058,-3.5949,-3.5778,-3.5564,-3.5372,-3.5537,-3.5397,-3.5261,-3.5515,-3.5761,-3.5684,-3.466,-3.4172,-3.3681,-3.2635,-3.3105,-3.384,-3.409,-3.5238,-3.6264,-3.6505,-3.6315,-3.5817,0.0,0.0,0.0,0.0,-3.0803,-3.0603,-3.0888,-3.2442,-3.3273,-3.2684,-3.376,-3.5013,-3.6286,-3.6427,-3.6723,-3.7393,-3.8308,-3.8395,-3.7541,-3.8308,-3.8655,-3.8476,-3.856,-3.8588,-3.8588,-3.8448,-3.8464,-3.8548,-3.842,-3.8391,-3.8391,-3.8391,-3.8391,-3.8391,-3.8391,-3.8391,-3.8391,-3.8391,-3.8391,-3.8391,-3.8391,-3.8391,-3.8391,-3.4636,-3.4513,-3.4775,-3.5556,-3.5698,-3.5918,-3.6515,-3.6604,-3.705,-3.8342,-3.9244,-4.0344,-4.1901,-4.2066,-4.2066,-4.2083,-4.219,-4.1235,-3.8839,-3.8771,-3.815,-3.6642,-3.6509,-3.6127,-3.5433,-3.4583,-3.3734,-3.2853,-3.2093,-3.2098,0.0,0.0,0.0,0.0,-3.3216,-3.3465,-3.2912,-3.4438,-3.5644,-3.6502,-3.6343,-3.6301,-3.6301,-3.6301,-3.6301,-3.6301,-3.628,-3.6152,-3.5997,-3.5975,-3.58,-3.56,-3.56,-3.5109,-3.4692,-3.538,-3.5115,-3.4709,-3.5397,-3.56,-3.5408,-3.4644,-3.442,-3.4179,-3.3369,-3.4298,-3.5498,-3.6202,-3.7559,-3.8739,-3.9244,-3.8811,-3.7827,0.0,0.0,0.0,-3.0924,-3.0713,-3.0618,-3.0231,-3.0833,-3.1784,-3.3121,-3.2794,-3.3436,-3.5703,-3.5893,-3.6191,-3.6849,-3.805,-3.8341,-3.7536,-3.8225,-3.8616,-3.8616,-3.8616,-3.8616,-3.8616,-3.8476,-3.8408,-3.8408,-3.8391,-3.8391,-3.8391,-3.8391,-3.8391,-3.8391,-3.8391,-3.8391,-3.8391,-3.8391,-3.8391,-3.8391,-3.8391,-3.8391,-3.8391,-3.4086,-3.446,-3.4742,-3.438,-3.4306,-3.4576,-3.5326,-3.5975,-3.6926,-3.8456,-3.9786,-4.1219,-4.2864,-4.294,-4.2922,-4.303,-4.3083,-4.2553,-4.1325,-4.0769,-4.0047,-3.9032,-3.7897,-3.7233,-3.71,-3.571,-3.4591,-3.3759,-3.2376,-3.214,-3.2941,0.0,0.0,0.0,0.0,-3.1779,-3.1859,-3.3916,-3.5457,-3.6502,-3.6343,-3.6301,-3.6301,-3.6301,-3.6276,-3.6208,-3.6105,-3.6041,-3.5954,-3.565,-3.5515,-3.5447,-3.552,-3.5402,-3.529,-3.5526,-3.5436,-3.5284,-3.547,-3.552,-3.5487,-3.5279,-3.4835,-3.4411,-3.4187,-3.479,-3.5423,-3.5631,-3.7239,-3.8296,-3.7293,-3.746,-3.7227,0.0,0.0,0.0,-3.2452,-3.1836,-3.1182,-3.0314,-3.0455,-3.0723,-3.1013,-3.1872,-3.2902,-3.4138,-3.4299,-3.5116,-3.6799,-3.7218,-3.7528,-3.7863,-3.8526,-3.8849,-3.875,-3.8849,-3.8849,-3.8766,-3.8616,-3.8548,-3.8548,-3.8464,-3.8391,-3.8391,-3.8391,-3.8391,-3.8391,-3.8391,-3.8391,-3.8391,-3.8391,-3.8391,-3.8391,-3.8391,-3.8391,-3.8391,-3.3929,-3.4174,-3.4578,-3.4876,-3.4591,-3.4472,-3.4931,-3.5776,-3.6816,-3.7991,-3.9763,-4.1304,-4.2256,-4.2919,-4.334,-4.3429,-4.3446,-4.2951,-4.1797,-4.1335,-4.0614,-3.9467,-3.8623,-3.8032,-3.7752,-3.6535,-3.5519,-3.4705,-3.3072,-3.2521,-3.2953,0.0,0.0,0.0,0.0,-3.161,-3.1593,-3.4004,-3.5386,-3.5935,-3.6201,-3.6301,0.0,-3.6276,-3.6208,-3.6079,-3.5844,-3.5739,-3.5694,-3.5441,-3.5327,-3.5281,-3.5314,-3.5142,-3.5003,-3.5357,-3.5194,-3.4997,-3.5322,-3.5423,-3.5423,-3.5423,-3.5178,-3.4947,-3.4947,-3.5498,-3.5998,-3.5998,-3.7232,-3.8017,-3.7071,-3.6769,-3.6008,-3.4102,-3.3439,-3.2861,-3.2045,-3.1511,-3.0927,-3.0297,-3.021,-3.021,-3.0189,-3.1008,-3.1994,-3.3106,-3.3578,-3.4445,-3.596,-3.6578,-3.7244,-3.7969,-3.8381,-3.8673,-3.8887,-3.8969,-3.8969,-3.8887,-3.8766,-3.8672,-3.8588,-3.8504,-3.8464,-3.8391,-3.8391,-3.8391,-3.8391,-3.8391,-3.8391,-3.8391,-3.8391,-3.8391,-3.8391,-3.8391,-3.8391,-3.8391,-3.4146,-3.4059,-3.455,-3.5837,-3.5574,-3.5183,-3.5183,-3.6196,-3.7145,-3.7661,-3.9829,-4.1334,-4.1334,-4.2585,-4.3446,-4.3479,-4.3515,-4.2855,-4.1352,-4.126,-4.0575,-3.9013,-3.8999,-3.8703,-3.7961,-3.7116,-3.6339,-3.5646,-3.3863,-3.3001,0.0,0.0,0.0,0.0,0.0,0.0,0.0,-3.4278,-3.5295,-3.5287,-3.6008,-3.6301,-3.628,-3.6229,-3.6101,-3.591,-3.5538,-3.5402,-3.5356,-3.5274,-3.5175,-3.5065,-3.5088,-3.4741,-3.4442,-3.5124,-3.4833,-3.4459,-3.5101,-3.5268,-3.5268,-3.5268,-3.536,-3.5469,-3.5492,-3.6089,-3.6637,-3.6637,-3.7229,-3.7655,-3.734,-3.6222,-3.4667,-3.2525,-3.2173,-3.1921,-3.125,-3.0895,-3.0644,-3.0396,-3.025,0.0,-3.0227,-3.0333,-3.0983,-3.2448,-3.3044,-3.3856,-3.4982,-3.5952,-3.6981,-3.8101,-3.8051,-3.8331,-3.8996,-3.904,-3.904,-3.8996,-3.886,-3.8738,-3.8588,-3.856,-3.8504,-3.8391,-3.8391,-3.8391,-3.8391,-3.8391,-3.8391,-3.8391,-3.8391,-3.8391,-3.8391,-3.8391,-3.8391,-3.8391,-3.4994,-3.5483,-3.5598,-3.444,-3.5312,-3.6149,-3.6149,-3.7941,-3.9344,-3.9441,-4.1552,-4.3057,-4.3057,-4.3314,-4.3497,-4.3515,-4.3515,-4.3094,-4.2158,-4.2084,-4.1401,-3.9863,-3.9804,-3.9463,-3.8722,-3.7331,-3.6544,-3.6409,-3.4117,-3.3001,0.0,0.0,0.0,0.0,0.0,0.0,-3.2039,-3.372,-3.479,-3.5426,-3.6049,-3.6276,-3.6208,-3.6187,-3.5971,-3.5644,-3.547,-3.5373,-3.5274,-3.5041,-3.4947,-3.4947,-3.5065,-3.5045,-3.4985,-3.5234,-3.5138,-3.4962,-3.5118,-3.5152,-3.5152,-3.5152,-3.5245,-3.536,-3.5469,-3.5615,-3.5745,-3.5802,-3.6434,-3.6586,-3.5295,-3.4856,-3.4349,-3.3309,-3.3664,-3.3915,-3.3639,-3.295,-3.2177,-3.1369,-3.1134,-3.0882,-3.0403,-3.029,-3.0678,-3.1709,-3.135,-3.2442,-3.5644,-3.4772,-3.5622,-3.8716,-3.8298,-3.8331,-3.8996,-3.9148,-3.9148,-3.8996,-3.886,-3.8738,-3.8604,-3.8492,-3.842,-3.8391,-3.8391,-3.8391,-3.8391,-3.8391,-3.8391,-3.8391,-3.8391,-3.8391,-3.8391,-3.8391,-3.8391,-3.8391,-3.6449,-3.6039,-3.5684,-3.5754,-3.6084,-3.6503,-3.6951,-3.8658,-3.9766,-3.9436,-4.073,-4.1838,-4.2263,-4.3018,-4.3515,-4.3515,-4.3112,-4.2708,-4.2323,-4.1515,-4.0724,-3.9982,-3.9571,-3.9212,-3.8851,-3.7771,-3.703,-3.6604,-3.4179,-3.2708,-3.2126,-3.0385,0.0,-2.8878,0.0,-3.0154,0.0,-3.3401,-3.4404,-3.4812,-3.5873,-3.6255,-3.6182,-3.6053,-3.5778,-3.5419,-3.4868,-3.4848,-3.5065,-3.4947,-3.4899,-3.4923,-3.497,-3.4994,-3.4994,-3.5065,-3.5041,-3.4994,-3.4994,-3.4994,-3.4994,-3.4994,-3.5152,-3.5314,-3.5377,-3.5475,-3.5549,-3.56,-3.591,-3.5825,-3.4709,-3.4489,-3.4252,-3.3525,-3.3668,-3.3814,-3.3551,-3.304,-3.2365,-3.1501,-3.163,-3.1417,-3.0495,-3.07,-3.0919,-3.1014,-3.1052,-3.2177,-3.4717,-3.448,-3.5588,-3.8477,-3.8272,-3.8438,-3.9148,-3.9245,-3.9202,-3.8996,-3.8942,-3.8794,-3.8588,-3.8532,-3.8464,-3.8391,-3.8391,-3.8391,-3.8391,-3.8391,-3.8391,-3.8391,-3.8391,-3.8391,-3.8391,-3.8391,-3.8391,-3.8391,-3.7301,-3.6232,-3.5725,-3.7088,-3.6912,-3.682,-3.7499,-3.8783,-3.9577,-3.939,-4.0025,-4.0788,-4.1597,-4.2613,-4.3296,-4.3496,-4.2598,-4.2047,-4.2047,-4.0689,-3.9808,-3.9643,-3.9096,-3.8777,-3.8777,-3.8102,-3.7359,-3.6578,-3.4525,-3.2797,-3.1366,-3.0198,-2.9171,-2.8391,-2.954,-3.0404,-3.1149,-3.3297,-3.4244,-3.4458,-3.5766,-3.6233,-3.6122,-3.5883,-3.5644,-3.5311,-3.4514,-3.4542,-3.4963,-3.5105,-3.5131,-3.5098,-3.4949,-3.5114,-3.5346,-3.5181,-3.5247,-3.533,-3.5181,-3.5131,-3.5098,-3.4932,-3.5065,-3.5222,-3.5245,-3.5389,-3.5532,-3.5554,-3.5577,-3.5363,-3.4641,-3.4624,-3.4438,-3.3558,-3.3431,-3.3398,-3.3178,-3.2877,-3.2416,-3.1664,-3.1932,-3.1726,-3.0528,-3.0929,-3.1049,-3.0539,-3.1035,-3.2144,-3.3938,-3.4137,-3.5339,-3.7845,-3.7805,-3.8053,-3.8782,-3.9096,-3.9148,-3.8996,-3.8942,-3.8794,-3.8588,-3.856,-3.8504,-3.8391,-3.8391,-3.8391,-3.8391,-3.8391,-3.8391,-3.8391,-3.8391,-3.8391,-3.8391,-3.8391,-3.8391,-3.8391,-3.6376,-3.6366,-3.6297,-3.6405,-3.7018,-3.7518,-3.7663,-3.8376,-3.9369,-4.0724,-4.1605,-4.2395,-4.3203,-4.2745,-4.2708,-4.3441,-4.2103,-4.1205,-4.1205,-4.0396,-3.957,-3.8836,-3.8744,-3.8723,-3.8723,-3.8004,-3.7247,-3.6509,-3.5615,-3.3881,-3.1403,-3.1633,-3.0921,-2.9485,-3.0386,-3.115,-3.1818,-3.3485,-3.4555,-3.5163,-3.5973,-3.6191,-3.5997,-3.5861,-3.5678,-3.5452,-3.5115,-3.5038,-3.5164,-3.5726,-3.5893,-3.5777,-3.5098,-3.5827,-3.6771,-3.6092,-3.6373,-3.6754,-3.6075,-3.5893,-3.5744,-3.5065,-3.4923,-3.497,-3.5088,-3.5222,-3.536,-3.5492,-3.5549,-3.5363,-3.4641,-3.5064,-3.5025,-3.3643,-3.3753,-3.3991,-3.3922,-3.3561,-3.3079,-3.2461,-3.2272,-3.1749,-3.0596,-3.0488,-3.0504,-3.0506,-3.0555,-3.183,-3.4651,-3.2978,-3.3489,-3.6907,-3.648,-3.6506,-3.7122,-3.8381,-3.9023,-3.8996,-3.8738,-3.8616,-3.8604,-3.8476,-3.8391,-3.8391,-3.8391,-3.8391,-3.8391,-3.8391,-3.8391,-3.8391,-3.8391,-3.8391,-3.8391,-3.8391,-3.8391,-3.8391,-3.7886,-3.7419,-3.721,-3.7661,-3.7647,-3.7761,-3.8228,-3.8589,-3.9182,-4.0246,-4.0653,-4.1167,-4.1974,-4.1772,-4.1717,-4.2029,-4.1038,-4.0377,-4.0377,-3.9625,-3.9038,-3.8707,-3.8707,-3.8707,-3.8707,-3.8449,-3.7941,-3.7159,-3.5937,-3.4338,-3.2409,-3.1592,-3.0891,-3.0352,-3.1114,-3.1821,-3.2559,-3.4116,-3.4944,-3.5249,-3.6008,-3.6174,-3.5975,-3.5861,-3.5678,-3.5418,-3.4681,-3.5005,-3.5714,-3.5428,-3.5628,-3.6025,-3.6174,-3.6638,-3.7052,-3.6754,-3.687,-3.7052,-3.6738,-3.6671,-3.6489,-3.5744,-3.561,-3.559,-3.5298,-3.5268,-3.5337,-3.5469,-3.5452,-3.5351,-3.5138,-3.5341,-3.5363,-3.4822,-3.4891,-3.4897,-3.4585,-3.4018,-3.3294,-3.2426,-3.1861,-3.1028,-2.9769,-3.0049,-3.0114,-2.9691,-3.0179,-3.1404,-3.3458,-3.3591,-3.423,-3.5654,-3.7058,-3.7553,-3.7042,-3.8262,-3.8914,-3.8996,-3.8727,-3.8588,-3.8604,-3.8448,-3.8391,-3.8391,-3.8391,-3.8391,-3.8391,-3.8391,-3.8391,-3.8391,-3.8391,-3.8391,-3.8391,-3.8391,-3.8391,-3.8391,-3.8482,-3.7923,-3.7749,-3.856,-3.8305,-3.8133,-3.8643,-3.8762,-3.8979,-3.9506,-3.9549,-3.9937,-4.0985,-4.0875,-4.0838,-4.1077,-4.0157,-3.9643,-3.9879,-3.9148,-3.8707,-3.8707,-3.8707,-3.8707,-3.8707,-3.875,-3.8342,-3.7456,-3.635,-3.4954,-3.3275,-3.2014,-3.1541,-3.1805,-3.2268,-3.2886,-3.3645,-3.4731,-3.5318,-3.5542,-3.5852,-3.5985,-3.5975,-3.5861,-3.5836,-3.5801,-3.5188,-3.5645,-3.6495,-3.6025,-3.6224,-3.6704,-3.7003,-3.74,-3.7698,-3.75,-3.7582,-3.7698,-3.7483,-3.7433,-3.7251,-3.6506,-3.6248,-3.6046,-3.5585,-3.5372,-3.5268,-3.5423,-3.5377,-3.5331,-3.5423,-3.5469,-3.543,-3.5267,-3.5312,-3.5197,-3.4648,-3.4185,-3.347,-3.232,-3.1743,-3.0908,-2.9545,-2.9894,-3.0074,-2.9763,-3.0413,-3.1422,-3.2838,-3.3561,-3.4313,-3.5149,-3.7091,-3.7767,-3.7068,-3.8208,-3.8832,-3.8876,-3.8644,-3.8532,-3.8532,-3.842,-3.8391,-3.8391,-3.8391,-3.8391,-3.8391,-3.8391,-3.8391,-3.8391,-3.8391,-3.8391,-3.8391,-3.8391,-3.8391,-3.8391,-3.7364,-3.7511,-3.7749,-3.856,-3.8747,-3.8788,-3.8807,-3.8807,-3.8807,-3.8807,-3.8768,-3.9331,-4.093,-4.0396,-4.023,-4.1022,-3.9643,-3.9056,-3.9845,-3.9148,-3.8707,-3.8707,-3.8707,-3.8707,-3.8707,-3.8707,-3.8175,-3.7109,-3.7014,-3.5894,-3.3771,-3.3296,-3.3414,-3.4061,-3.4079,-3.4473,-3.5163,-3.518,-3.5611,-3.6215,-3.549,-3.5538,-3.5975,-3.5861,-3.6203,-3.6834,-3.7159,-3.7352,-3.756,-3.8008,-3.8179,-3.8063,-3.7334,-3.8096,-3.9133,-3.8411,-3.8692,-3.9116,-3.8394,-3.8195,-3.803,-3.7284,-3.6539,-3.5992,-3.5992,-3.5525,-3.5152,-3.5268,-3.5291,-3.5291,-3.5291,-3.5423,-3.5239,-3.4431,-3.4658,-3.4651,-3.3932,-3.3982,-3.3616,-3.2362,-3.2183,-3.1658,-3.032,-3.0189,-3.05,-3.1226,-3.1402,-3.2027,-3.3317,-3.2275,-3.291,-3.5696,-3.5952,-3.6315,-3.6898,-3.8165,-3.8722,-3.8588,-3.8464,-3.8391,-3.8391,-3.8391,-3.8391,-3.8391,-3.8391,-3.8391,-3.8391,-3.8391,-3.8391,-3.8391,-3.8391,-3.8391,-3.8391,-3.8391,-3.8391,-3.8391,-3.8267,-3.8322,-3.8395,-3.867,-3.8792,-3.8837,-3.875,-3.8807,-3.8837,-3.875,-3.8704,-3.8909,-3.9407,-3.9239,-3.9184,-3.9426,-3.9001,-3.8817,-3.9074,-3.8836,-3.858,-3.8302,-3.8387,-3.8254,-3.7896,-3.7966,-3.7805,-3.7361,-3.6788,-3.5793,-3.4357,-3.3947,-3.4167,-3.4835,-3.4835,-3.5249,-3.5921,-3.5404,-3.5939,-3.7042,-3.6161,-3.6478,-3.7473,-3.7359,-3.739,-3.756,-3.7564,-3.7869,-3.8263,-3.8319,-3.8605,-3.8917,-3.8685,-3.8934,-3.9249,-3.9033,-3.9133,-3.9276,-3.9139,-3.902,-3.8785,-3.8159,-3.736,-3.6647,-3.6223,-3.5597,-3.5105,-3.5041,-3.5018,-3.5058,-3.5152,-3.5693,-3.6061,-3.5879,-3.5907,-3.5778,-3.5361,-3.4331,-3.3233,-3.218,-3.1222,-3.0271,-2.9355,-2.9697,-2.9913,-2.9755,-3.0642,-3.1909,-3.3451,-3.4209,-3.4776,-3.5182,-3.7041,-3.7718,-3.7026,-3.8208,-3.8832,-3.8876,-3.8644,-3.8492,-3.8391,-3.8391,-3.8391,-3.8391,-3.8391,-3.8391,-3.8391,-3.8391,-3.8391,-3.8408,-3.8504,-3.8476,-3.8391,-3.8504,-3.8476,-3.8391,-3.8707,-3.8707,-3.8707,-3.8735,-3.8795,-3.8807,-3.878,-3.8792,-3.8792,-3.875,-3.8723,-3.8723,-3.8735,-3.8735,-3.8719,-3.8707,-3.8719,-3.8719,-3.8707,-3.8707,-3.8515,-3.8118,-3.7947,-3.7745,-3.7523,-3.7094,-3.7023,-3.7357,-3.6692,-3.5988,-3.5244,-3.5025,-3.5163,-3.5611,-3.5611,-3.587,-3.6284,-3.6128,-3.6632,-3.7439,-3.6805,-3.7227,-3.819,-3.8033,-3.8119,-3.8321,-3.842,-3.8682,-3.8982,-3.8802,-3.8997,-3.9299,-3.9299,-3.9299,-3.9299,-3.9299,-3.9342,-3.9379,-3.9475,-3.9448,-3.9279,-3.8918,-3.8166,-3.7359,-3.6745,-3.6037,-3.5504,-3.5464,-3.5464,-3.5488,-3.5575,-3.6296,-3.6918,-3.6989,-3.6571,-3.6178,-3.6032,-3.4643,-3.3348,-3.2521,-3.1646,-3.082,-3.0069,-3.0431,-3.0648,-3.0553,-3.1684,-3.305,-3.4611,-3.4946,-3.5257,-3.5637,-3.7567,-3.8331,-3.7732,-3.839,-3.8738,-3.8766,-3.8616,-3.8476,-3.8391,-3.8391,-3.8391,-3.8391,-3.8391,-3.8391,-3.8391,-3.8391,-3.8391,-3.8408,-3.8476,-3.8476,-3.8391,-3.8476,-3.8476,-3.8391,-3.8707,-3.8707,-3.8719,-3.8777,-3.875,-3.875,-3.8881,-3.8795,-3.8735,-3.8792,-3.875,-3.8738,-3.8792,-3.8807,-3.8777,-3.8723,-3.878,-3.8762,-3.8707,-3.8652,-3.846,-3.8085,-3.7352,-3.7097,-3.7343,-3.6073,-3.5935,-3.6981,-3.6603,-3.6371,-3.6301,-3.6353,-3.6387,-3.6387,-3.6439,-3.6456,-3.6508,-3.7202,-3.7564,-3.7629,-3.7463,-3.7775,-3.8344,-3.8221,-3.8543,-3.9132,-3.9555,-3.9729,-3.9651,-3.9405,-3.9325,-3.9299,-3.9299,-3.9299,-3.9299,-3.9299,-3.9379,-3.9501,-3.9528,-3.9511,-3.9511,-3.9511,-3.8847,-3.8065,-3.7453,-3.6795,-3.6336,-3.6446,-3.647,-3.647,-3.647,-3.7187,-3.778,-3.778,-3.6868,-3.6165,-3.6091,-3.4996,-3.3931,-3.3202,-3.3129,-3.287,-3.2158,-3.2125,-3.2433,-3.3137,-3.3991,-3.5044,-3.6372,-3.4759,-3.4782,-3.6955,-3.7705,-3.8284,-3.8805,-3.8699,-3.8548,-3.8391,-3.8391,-3.8408,-3.8391,-3.8391,-3.8391,-3.8391,-3.8391,-3.8391,-3.8391,-3.8391,-3.8391,-3.8391,-3.8391,-3.8408,-3.8391,-3.8391,-3.8408,-3.8408,-3.8707,-3.8707,-3.8707,-3.8719,-3.881,-3.8851,-3.8837,-3.8837,-3.8837,-3.8807,-3.875,-3.8738,-3.8792,-3.8851,-3.8881,-3.8851,-3.8822,-3.8762,-3.8707,-3.812,-3.7728,-3.7649,-3.6409,-3.5757,-3.5828,-3.5052,-3.5015,-3.5725,-3.5625,-3.5835,-3.6318,-3.6943,-3.7236,-3.7254,-3.7784,-3.806,-3.8025,-3.7668,-3.8151,-3.9129,-3.8425,-3.8853,-3.9939,-3.981,-3.9789,-3.9834,-3.9969,-3.9884,-3.9677,-3.9625,-3.9468,-3.9299,-3.9299,-3.9299,-3.9299,-3.9299,-3.9379,-3.9528,-3.9625,-3.9651,-3.9651,-3.9651,-3.9013,-3.8177,-3.7461,-3.7252,-3.7209,-3.7216,-3.7241,-3.7241,-3.7241,-3.7942,-3.8546,-3.8546,-3.8229,-3.7711,-3.6962,-3.5909,-3.4717,-3.3275,-3.355,-3.3582,-3.2902,-3.3307,-3.3704,-3.4014,-3.4119,-3.4682,-3.5764,-3.5813,-3.6591,-3.8302,-3.8613,-3.8777,-3.8805,-3.8777,-3.8683,-3.8532,-3.8532,-3.8504,-3.8391,-3.8391,-3.8391,-3.8391,-3.8391,-3.8391,-3.8391,-3.8391,-3.8391,-3.8391,-3.8504,-3.8476,-3.8391,-3.8504,-3.8492,-3.8472,-3.8707,-3.8707,-3.8723,-3.8735,-3.8807,-3.8848,-3.8896,-3.8881,-3.8848,-3.8851,-3.8777,-3.878,-3.8837,-3.891,-3.8921,-3.8892,-3.8877,-3.8851,-3.875,-3.8327,-3.7942,-3.7596,-3.6468,-3.5847,-3.5864,-3.4927,-3.4755,-3.5384,-3.5708,-3.6181,-3.6853,-3.6904,-3.734,-3.8013,-3.8082,-3.8267,-3.8594,-3.8525,-3.8957,-3.9664,-3.9129,-3.9585,-4.0524,-4.0005,-3.9949,-4.0188,-4.0062,-3.9884,-3.9677,-3.9642,-3.9484,-3.9299,-3.9379,-3.9352,-3.9325,-3.9458,-3.952,-3.9616,-3.9677,-3.9755,-3.9781,-3.9703,-3.935,-3.8914,-3.8589,-3.8288,-3.8102,-3.816,-3.8184,-3.8184,-3.8184,-3.8865,-3.9261,-3.894,-3.8338,-3.7603,-3.6705,-3.5629,-3.4707,-3.4109,-3.4385,-3.4586,-3.457,-3.4894,-3.5146,-3.5214,-3.55,-3.5867,-3.6342,-3.7133,-3.7774,-3.8281,-3.8679,-3.8887,-3.8805,-3.8738,-3.8711,-3.8683,-3.8616,-3.8588,-3.8572,-3.8572,-3.856,-3.8476,-3.8476,-3.8464,-3.8391,-3.8391,-3.8391,-3.8408,-3.8476,-3.8448,-3.8408,-3.8476,-3.8675,-3.8958,-3.8707,-3.8707,-3.8723,-3.8777,-3.8792,-3.8833,-3.8983,-3.8881,-3.8822,-3.8896,-3.8837,-3.8807,-3.8881,-3.8939,-3.8935,-3.8892,-3.895,-3.8939,-3.8792,-3.8681,-3.8319,-3.7703,-3.679,-3.6307,-3.6315,-3.5103,-3.4812,-3.5461,-3.6041,-3.6717,-3.7495,-3.6904,-3.7404,-3.8732,-3.8254,-3.8375,-3.8996,-3.9612,-3.9871,-3.9871,-3.9771,-4.0096,-4.058,-3.973,-3.9761,-4.0255,-4.0003,-3.9807,-3.9677,-3.9554,-3.9405,-3.9352,-3.9458,-3.9448,-3.9405,-3.9625,-3.9703,-3.9729,-3.9729,-3.9807,-3.9875,-3.9755,-3.9729,-3.9755,-3.9875,-3.9413,-3.9025,-3.9132,-3.9157,-3.9157,-3.9157,-3.969,-3.9851,-3.9057,-3.8012,-3.7012,-3.6075,-3.5094,-3.467,-3.5146,-3.5309,-3.5639,-3.6384,-3.6367,-3.64,-3.661,-3.714,-3.7476,-3.7485,-3.8285,-3.8472,-3.785,-3.845,-3.8805,-3.8805,-3.8727,-3.8727,-3.8805,-3.8727,-3.8711,-3.8805,-3.8777,-3.8711,-3.8588,-3.856,-3.852,-3.8391,-3.8391,-3.8391,-3.8391,-3.8391,-3.8391,-3.8408,-3.8549,-3.8999,-3.9567,-3.8707,-3.8707,-3.8707,-3.8704,-3.8747,-3.8837,-3.8892,-3.8851,-3.8822,-3.8896,-3.8777,-3.8735,-3.8807,-3.8822,-3.8851,-3.891,-3.8925,-3.8851,-3.8719,-3.8077,-3.7656,-3.7542,-3.6167,-3.5438,-3.55,-3.4781,-3.4731,-3.5327,-3.5446,-3.6181,-3.7512,-3.8013,-3.8698,-3.9543,-4.0135,-4.0446,-4.0549,-4.067,-4.0722,-4.0722,-4.0698,-4.0625,-4.0517,-4.0349,-4.0235,-4.0113,-3.9977,-3.9807,-3.9677,-3.9554,-3.9501,-3.9475,-3.9501,-3.9563,-3.9651,-3.9677,-3.9781,-3.9875,-3.9875,-3.9901,-3.9901,-3.9875,-3.9875,-3.9875,-3.9901,-3.9902,-3.9918,-3.9901,-3.9943,-3.9943,-3.9943,-4.0028,-3.9783,-3.8816,-3.8497,-3.7728,-3.5918,-3.6029,-3.6023,-3.5286,-3.5736,-3.64,-3.7096,-3.6643,-3.6805,-3.7987,-3.7598,-3.7582,-3.8197,-3.8467,-3.8595,-3.8453,-3.8673,-3.8805,-3.8805,-3.8887,-3.8887,-3.8805,-3.8887,-3.8887,-3.8805,-3.8683,-3.8616,-3.8588,-3.8476,-3.842,-3.8391,-3.8391,-3.8391,-3.8391,-3.8391,-3.8391,-3.8501,-3.9227,-3.9577,-3.9838,-3.9918,-3.9294,-3.8982,-3.9829,-3.9687,-3.9599,-4.0072,-4.0096,-4.0096,-4.0127,-3.9715,-3.9409,-3.9436,-3.9095,-3.8848,-3.8851,-3.8851,-3.8807,-3.8707,-3.8386,-3.8128,-3.7948,-3.6969,-3.6286,-3.5948,-3.5677,-3.5867,-3.6534,-3.6534,-3.7288,-3.8681,-3.8634,-3.9261,-4.0447,-4.0314,-4.0538,-4.1,-4.0935,-4.0912,-4.086,-4.0446,-4.0397,-4.0531,-3.9976,-3.9955,-4.0188,-3.9961,-3.9807,-3.9703,-3.972,-3.9616,-3.9528,-3.9668,-3.972,-3.9729,-3.9884,-3.991,-3.9926,-3.9986,-4.0011,-4.0011,-4.0011,-4.0011,-4.0011,-4.0011,-4.0062,-4.0096,-4.0096,-4.0096,-4.0096,-4.0096,-4.0096,-3.9809,-3.8941,-3.8238,-3.7486,-3.6546,-3.6093,-3.6007,-3.6313,-3.6643,-3.7128,-3.7825,-3.7614,-3.7695,-3.8359,-3.8084,-3.8051,-3.8375,-3.8448,-3.856,-3.8711,-3.8832,-3.8942,-3.9067,-3.9023,-3.9023,-3.9067,-3.9023,-3.9023,-3.9067,-3.8903,-3.8766,-3.8711,-3.856,-3.8464,-3.8391,-3.8391,-3.8391,-3.8391,-3.8391,-3.8391,-3.8517,-3.9386,-3.9874,-4.0304,-4.0967,-4.0104,-3.9646,-4.0875,-4.0646,-4.0473,-4.1096,-4.1188,-4.1172,-4.1204,-4.0638,-4.0255,-4.0255,-3.9746,-3.9374,-3.9347,-3.9314,-3.9301,-3.9258,-3.9136,-3.8826,-3.8272,-3.7685,-3.7163,-3.6741,-3.6721,-3.7084,-3.7828,-3.7828,-3.8476,-3.9681,-3.9112,-3.9663,-4.1076,-4.032,-4.0389,-4.1093,-4.0959,-4.0912,-4.086,-4.0239,-4.0219,-4.0507,-3.9722,-3.9753,-4.018,-3.9977,-3.9833,-3.9755,-3.9824,-3.9746,-3.9616,-3.9849,-3.9858,-3.9833,-4.0037,-4.0037,-3.9961,-4.0087,-4.0096,-4.0096,-4.0096,-4.0096,-4.0096,-4.0096,-4.0096,-4.0096,-4.0096,-4.0096,-4.0096,-4.0096,-4.0096,-3.9834,-3.9032,-3.8104,-3.7344,-3.7042,-3.6306,-3.6155,-3.7193,-3.7295,-3.7598,-3.8327,-3.8246,-3.8213,-3.8391,-3.8391,-3.8391,-3.8391,-3.8436,-3.856,-3.8832,-3.8996,-3.9148,-3.9299,-3.9148,-3.9148,-3.9299,-3.9148,-3.9148,-3.9299,-3.9094,-3.8942,-3.8805,-3.8672,-3.8532,-3.8448,-3.8391,-3.842,-3.8448,-3.8391,-3.8505,-3.876,-3.9646,-4.0317,-4.0913,-4.1095,-4.1003,-4.0948,-4.1077,-4.1058,-4.1071,-4.1188,-4.1142,-4.1126,-4.1188,-4.1087,-4.102,-4.102,-4.0965,-4.0928,-4.0928,-4.0928,-4.0928,-4.0912,-4.023,-3.9315,-3.8154,-3.7377,-3.7108,-3.7431,-3.7426,-3.7789,-3.853,-3.853,-3.8945,-3.9698,-3.9629,-4.0147,-4.1093,-4.0907,-4.0907,-4.1093,-4.0959,-4.0912,-4.0894,-4.0843,-4.0604,-4.0337,-4.0368,-4.0212,-3.9926,-3.9901,-3.9901,-3.9875,-3.9755,-3.9781,-3.9875,-3.9901,-3.9986,-4.007,-4.0096,-4.0096,-4.0087,-4.0113,-4.0096,-4.0096,-4.0096,-4.0096,-4.0096,-4.0096,-4.0096,-4.0096,-4.0096,-4.0096,-4.0096,-4.0096,-4.0096,-3.9783,-3.8774,-3.8531,-3.8061,-3.6903,-3.7183,-3.7459,-3.7334,-3.7295,-3.7598,-3.8327,-3.7792,-3.7679,-3.8359,-3.8391,-3.8391,-3.8391,-3.8504,-3.8699,-3.8969,-3.9191,-3.9299,-3.9299,-3.9299,-3.9299,-3.9299,-3.9272,-3.9299,-3.9299,-3.9094,-3.8942,-3.8805,-3.8672,-3.8588,-3.8576,-3.8448,-3.8476,-3.856,-3.8464,-3.8812,-3.9522,-4.0382,-4.1157,-4.1811,-4.2488,-4.1791,-4.1407,-4.2415,-4.2176,-4.2011,-4.2557,-4.2597,-4.2597,-4.263,-4.2174,-4.1846,-4.1846,-4.1389,-4.1095,-4.1095,-4.1095,-4.1095,-4.1095,-4.0802,-3.9867,-3.8172,-3.8024,-3.7939,-3.7864,-3.8075,-3.8525,-3.9267,-3.9267,-3.9681,-4.0446,-4.0446,-4.0682,-4.1093,-4.0959,-4.0959,-4.1093,-4.0959,-4.0912,-4.0912,-4.0912,-4.0769,-4.0527,-4.0429,-4.0263,-4.013,-3.9952,-3.9901,-3.9901,-3.9935,-3.9935,-3.9926,-3.9986,-4.0062,-4.0096,-4.0096,-4.0096,-4.0096,-4.0096,-4.0096,-4.0096,-4.0096,-4.0096,-4.0096,-4.0096,-4.0096,-4.0096,-4.0096,-4.0096,-4.0096,-4.0096,-4.0096,-3.9986,-3.9598,-3.9009,-3.8521,-3.8272,-3.7929,-3.778,-3.7966,-3.7987,-3.81,-3.8375,-3.8149,-3.81,-3.8375,-3.8391,-3.8391,-3.8391,-3.86,-3.8805,-3.8996,-3.9218,-3.9299,-3.9299,-3.9299,-3.9299,-3.9299,-3.9299,-3.9299,-3.9299,-3.9094,-3.8942,-3.8805,-3.8672,-3.8532,-3.8476,-3.842,-3.842,-3.8525,-3.8922,-3.9262,-3.9651,-4.0951,-4.1536,-4.1801,-4.3404,-4.2598,-4.2194,-4.3296,-4.3039,-4.2855,-4.3423,-4.3515,-4.3515,-4.3515,-4.302,-4.2671,-4.2671,-4.2176,-4.1864,-4.1864,-4.1864,-4.1864,-4.1864,-4.1625,-4.069,-3.8933,-3.9068,-3.907,-3.8831,-3.906,-3.946,-4.0077,-4.0077,-4.0377,-4.0912,-4.0912,-4.0959,-4.1093,-4.0959,-4.0959,-4.1093,-4.0959,-4.0912,-4.0912,-4.0912,-4.0776,-4.0624,-4.0436,-4.0313,-4.0213,-4.0011,-3.9961,-3.9977,-4.0087,-4.0037,-3.9986,-4.0087,-4.0096,-4.0096,-4.0096,-4.0096,-4.0096,-4.0096,-4.0096,-4.0096,-4.0096,-4.0096,-4.0096,-4.0096,-4.0096,-4.0096,-4.0096,-4.0096,-4.0096,-4.0096,-4.0096,-4.0096,-4.0096,-3.9522,-3.9126,-3.9342,-3.8669,-3.8259,-3.8495,-3.8448,-3.8391,-3.8391,-3.8391,-3.8391,-3.8391,-3.8391,-3.842,-3.8448,-3.8683,-3.886,-3.8996,-3.9121,-3.9218,-3.9218,-3.9272,-3.9272,-3.9202,-3.9272,-3.9299,-3.9299,-3.9148,-3.8969,-3.8805,-3.8711,-3.8588,-3.8448,-3.842,-3.8566,-3.8837,-3.9311,-3.9781,-4.0283,-4.1346,-4.1803,-4.2001,-4.3515,-4.3515,-4.3515,-4.3515,-4.3515,-4.3515,-4.3515,-4.3515,-4.3515,-4.3515,-4.3515,-4.3515,-4.3515,-4.3515,-4.3515,-4.3515,-4.3515,-4.3515,-4.3515,-4.2745,-4.1785,-4.0564,-4.051,-4.0466,-4.0397,-4.0411,-4.0577,-4.0912,-4.0912,-4.0912,-4.0912,-4.0912,-4.0959,-4.1093,-4.0959,-4.0959,-4.1087,-4.0959,-4.0912,-4.0912,-4.0912,-4.0728,-4.051,-4.051,-4.032,-4.0096,-4.0096,-4.0096,-4.0096,-4.0096,-4.0096,-4.0096,-4.0096,-4.0096,-4.0096,-4.0096,-4.0096,-4.0096,-4.0096,-4.0096,-4.0096,-4.0096,-4.0096,-4.0096,-4.0096,-4.0096,-4.0096,-4.0096,-4.0096,-4.0096,-4.0096,-4.0096,-4.0096,-4.0096,-4.0096,-4.0011,-3.9755,-3.9408,-3.9098,-3.8832,-3.8572,-3.8391,-3.8391,-3.8391,-3.8391,-3.8391,-3.8391,-3.8448,-3.8588,-3.8738,-3.886,-3.8996,-3.8996,-3.8996,-3.8996,-3.9218,-3.9218,-3.8996,-3.9202,-3.9299,-3.9299,-3.9299,-3.9121,-3.8805,-3.8805,-3.8711,-3.8604,-3.8464,-3.8914,-3.9679,-3.9551,-4.038,-4.1596,-4.1612,-4.2019,-4.2602,-4.3515,-4.3515,-4.3515,-4.3515,-4.3515,-4.3515,-4.3515,-4.3515,-4.3515,-4.3515,-4.3515,-4.3515,-4.3515,-4.3515,-4.3515,-4.3515,-4.3515,-4.3515,-4.3515,-4.3277,-4.2986,-4.2626,-4.1741,-4.1137,-4.0819,-4.1053,-4.1079,-4.0912,-4.0912,-4.0912,-4.0912,-4.0912,-4.0935,-4.0959,-4.0935,-4.0935,-4.0959,-4.0935,-4.0912,-4.0912,-4.0912,-4.0793,-4.0648,-4.0534,-4.0387,-4.0238,-4.0238,-4.0188,-4.0096,-4.0213,-4.0188,-4.0096,-4.0096,-4.0096,-4.0096,-4.0096,-4.0037,-3.9986,-4.007,-4.0037,-3.9986,-4.0087,-4.0096,-4.0096,-4.0096,-4.0096,-4.0096,-4.0096,-4.0096,-4.0096,-4.0096,-4.0096,-4.0096,-4.0096,-4.0096,-4.0011,-3.9755,-3.9609,-3.9435,-3.9125,-3.8843,-3.8683,-3.8683,-3.8504,-3.8391,-3.8391,-3.8391,-3.8504,-3.8738,-3.8777,-3.886,-3.8996,-3.8996,-3.8903,-3.8727,-3.8876,-3.8914,-3.886,-3.9013,-3.9023,-3.8942,-3.904,-3.8931,-3.8672,-3.8672,-3.8588,-3.8497,-3.8971,-3.9311,-3.9661,-4.0591,-4.1239,-4.1661,-4.2132,-4.2424,-4.2602,-4.3515,-4.3513,-4.3513,-4.3496,-4.3515,-4.3515,-4.3515,-4.3515,-4.3515,-4.3515,-4.3515,-4.3515,-4.3515,-4.3515,-4.3515,-4.3515,-4.348,-4.3463,-4.3497,-4.348,-4.3463,-4.3515,-4.2757,-4.2084,-4.1484,-4.1679,-4.1578,-4.114,-4.0989,-4.0989,-4.114,-4.0965,-4.0912,-4.0912,-4.0912,-4.0912,-4.0912,-4.0912,-4.0912,-4.0912,-4.0912,-4.0864,-4.0769,-4.0631,-4.051,-4.0453,-4.0387,-4.0288,-4.0188,-4.0263,-4.0213,-4.0096,-4.0096,-4.0096,-4.0096,-4.0096,-4.0037,-3.9986,-4.0087,-4.0037,-3.9986,-4.0087,-4.0096,-4.0096,-4.0096,-4.0096,-4.0096,-4.0096,-4.0096,-4.0096,-4.0096,-4.0096,-4.0096,-4.0096,-4.0096,-4.0045,-3.9867,-3.9781,-3.9609,-3.9408,-3.9034,-3.8805,-3.8805,-3.8544,-3.8391,-3.8391,-3.8391,-3.8532,-3.8777,-3.875,-3.8821,-3.8996,-3.8903,-3.8766,-3.8588,-3.8628,-3.8683,-3.8711,-3.886,-3.8887,-3.8805,-3.8887,-3.8794,-3.8588,-3.8588,-3.8504,-3.8456,-3.9255,-3.9709,-4.0024,-4.1219,-4.1805,-4.2035,-4.2441,-4.2602,-4.2602,-4.3513,-4.3548,-4.3565,-4.3515,-4.3515,-4.3515,-4.3515,-4.3515,-4.3515,-4.3515,-4.3515,-4.3515,-4.3515,-4.3515,-4.3515,-4.3515,-4.3446,-4.3429,-4.3497,-4.3429,-4.3429,-4.3497,-4.3497,-4.3105,-4.2279,-4.2259,-4.2011,-4.1494,-4.1117,-4.1117,-4.1445,-4.1065,-4.0912,-4.0912,-4.0912,-4.0912,-4.0912,-4.0912,-4.0912,-4.0912,-4.0912,-4.0894,-4.0864,-4.0745,-4.0697,-4.0673,-4.0558,-4.0436,-4.033,-4.033,-4.0213,-4.0096,-4.0096,-4.007,-4.007,-4.0113,-4.007,-4.007,-4.0096,-4.007,-4.0087,-4.0113,-4.0096,-4.0096,-4.0096,-4.0096,-4.0096,-4.0096,-4.0096,-4.0096,-4.0096,-4.0096,-4.0096,-4.0096,-4.0096,-4.0096,-4.0096,-3.9884,-3.9729,-3.9729,-3.9239,-3.8887,-3.886,-3.8572,-3.8391,-3.8391,-3.8391,-3.8504,-3.8777,-3.8672,-3.8727,-3.8958,-3.8727,-3.8588,-3.856,-3.8448,-3.8448,-3.8588,-3.8711,-3.8777,-3.8777,-3.8777,-3.8711,-3.856,-3.856,-3.8504,-3.8456,-3.939,-4.006,-4.0591,-4.1506,-4.219,-4.2602,-4.2634,-4.2634,-4.2602,-4.3565,-4.3566,-4.3532,-4.3496,-4.3515,-4.3515,-4.3515,-4.3515,-4.3515,-4.3515,-4.3515,-4.3515,-4.3515,-4.3515,-4.3515,-4.3515,-4.3497,-4.3463,-4.3411,-4.3412,-4.3412,-4.3411,-4.3411,-4.3214,-4.2768,-4.2749,-4.2338,-4.1494,-4.1423,-4.1237,-4.1018,-4.0942,-4.0912,-4.0912,-4.0912,-4.0912,-4.0912,-4.0912,-4.0912,-4.0912,-4.0912,-4.084,-4.0745,-4.0697,-4.0648,-4.0558,-4.0624,-4.0648,-4.06,-4.0485,-4.0313,-4.0096,-4.0096,-4.0037,-3.9961,-4.0087,-3.9944,-3.9833,-4.0045,-4.0037,-3.9961,-4.007,-4.0096,-4.0096,-4.0096,-4.0096,-4.0096,-4.0096,-4.0096,-4.0096,-4.0096,-4.0096,-4.0096,-4.0096,-4.0096,-4.0096,-4.0096,-4.0062,-3.9995,-3.9995,-3.9713,-3.9398,-3.9125,-3.8683,-3.8391,-3.8391,-3.8391,-3.8476,-3.8644,-3.8616,-3.8616,-3.8699,-3.8616,-3.8548,-3.8448,-3.8391,-3.8391,-3.8448,-3.8588,-3.8588,-3.8504,-3.8588,-3.856,-3.8448,-3.8448,-3.8436,-3.8489,-3.981,-4.038,-4.0626,-4.1936,-4.2504,-4.2634,-4.2775,-4.2744,-4.2602,-4.3548,-4.3548,-4.3549,-4.3515,-4.3515,-4.3515,-4.3515,-4.3515,-4.3515,-4.3515,-4.3515,-4.3515,-4.3515,-4.3515,-4.3515,-4.3515,-4.3463,-4.3446,-4.3412,-4.334,-4.3286,-4.3286,-4.3286,-4.3251,-4.3142,-4.3142,-4.2825,-4.2157,-4.1948,-4.1731,-4.1529,-4.1283,-4.1088,-4.0912,-4.0912,-4.0912,-4.0912,-4.0912,-4.0912,-4.0912,-4.0912,-4.0864,-4.0793,-4.0881,-4.0817,-4.0704,-4.084,-4.0769,-4.0558,-4.0387,-4.0238,-4.0096,-4.0096,-4.0062,-4.0011,-4.0087,-3.9995,-3.9918,-4.0045,-4.0062,-4.0011,-4.0087,-4.0096,-4.0096,-4.0096,-4.0096,-4.0096,-4.0096,-4.0096,-4.0096,-4.0096,-4.0096,-4.0096,-4.0096,-4.0096,-4.0096,-4.0096,-4.0096,-4.0096,-4.0096,-3.9841,-3.9504,-3.9061,-3.8655,-3.8391,-3.8391,-3.8391,-3.8476,-3.8683,-3.8644,-3.8616,-3.8683,-3.8644,-3.8548,-3.8391,-3.8391,-3.8391,-3.8391,-3.8476,-3.8464,-3.8391,-3.8476,-3.8464,-3.8391,-3.8391,-3.8642,-3.9089,-4.0193,-4.0826,-4.1232,-4.2306,-4.2665,-4.2634,-4.2837,-4.2837,-4.2728,-4.3532,-4.3548,-4.3565,-4.3515,-4.3515,-4.3515,-4.3515,-4.3515,-4.3515,-4.3515,-4.3515,-4.3515,-4.3515,-4.3515,-4.3515,-4.3515,-4.3464,-4.3394,-4.3394,-4.3269,-4.3214,-4.3214,-4.3196,-4.3251,-4.3394,-4.3394,-4.3251,-4.2901,-4.2498,-4.2297,-4.2177,-4.1713,-4.1328,-4.1012,-4.0918,-4.0912,-4.0912,-4.0912,-4.0912,-4.0912,-4.0912,-4.0912,-4.0959,-4.1047,-4.1047,-4.0965,-4.107,-4.0817,-4.0436,-4.0238,-4.0121,-4.0045,-4.0037,-4.002,-4.002,-4.002,-4.0037,-4.0011,-4.0062,-4.0062,-4.0087,-4.0096,-4.0096,-4.0096,-4.0096,-4.0096,-4.0096,-4.0096,-4.0096,-4.0096,-4.0096,-4.0096,-4.0096,-4.0096,-4.0096,-4.0096,-4.0096,-4.0096,-4.0096,-4.0096,-3.9816,-3.9451,-3.8996,-3.8628,-3.842,-3.8448,-3.8448,-3.8532,-3.875,-3.8683,-3.8655,-3.875,-3.8672,-3.8548,-3.8391,-3.8391,-3.8391,-3.8391,-3.8391,-3.8391,-3.8391,-3.8391,-3.8391,-3.8391,-3.8391,-3.8882,-3.9723,-4.0443,-4.116,-4.1829,-4.2561,-4.2728,-4.2634,-4.2806,-4.2868,-4.2868,-4.3565,-4.3566,-4.3515,-4.3515,-4.3515,-4.3515,-4.3515,-4.3515,-4.3515,-4.3515,-4.3515,-4.3515,-4.3515,-4.3515,-4.3515,-4.3515,-4.3497,-4.3463,-4.3394,-4.3269,-4.3214,-4.3214,-4.3142,-4.3215,-4.3394,-4.3394,-4.3251,-4.2901,-4.2844,-4.2595,-4.2177,-4.1713,-4.1468,-4.1401,-4.1065,-4.0912,-4.0912,-4.0912,-4.0912,-4.0912,-4.0912,-4.0959,-4.107,-4.1093,-4.1105,-4.114,-4.1099,-4.0769,-4.0337,-4.0412,-4.0213,-3.9901,-3.9781,-3.9755,-3.9755,-3.9755,-3.9651,-3.9616,-3.9875,-3.9926,-3.9935,-4.0087,-4.0096,-4.0096,-4.0096,-4.0096,-4.0096,-4.0096,-4.0096,-4.0096,-4.0096,-4.0096,-4.0096,-4.0096,-4.0096,-4.0096,-4.0096,-4.0096,-4.0096,-4.0096,-3.9618,-3.9355,-3.9573,-3.8849,-3.8504,-3.8722,-3.8644,-3.8588,-3.8616,-3.8711,-3.8738,-3.8616,-3.8616,-3.8548,-3.8391,-3.8391,-3.8391,-3.8391,-3.8391,-3.8391,-3.8391,-3.8391,-3.8391,-3.8391,-3.8391,-3.8841,-3.9583,-4.0251,-4.0964,-4.1707,-4.239,-4.2634,-4.2602,-4.2634,-4.2728,-4.2868,-4.3549,-4.3513,-4.3515,-4.3515,-4.3515,-4.3515,-4.3515,-4.3515,-4.3515,-4.3515,-4.3515,-4.3515,-4.3515,-4.3515,-4.3515,-4.3515,-4.3515,-4.3463,-4.3394,-4.3269,-4.3214,-4.3214,-4.3068,-4.3123,-4.3394,-4.3323,-4.3269,-4.325,-4.325,-4.3013,-4.2595,-4.2378,-4.2011,-4.1494,-4.1311,-4.1094,-4.0912,-4.0912,-4.0912,-4.0912,-4.0912,-4.0935,-4.1,-4.107,-4.1076,-4.0995,-4.0823,-4.0558,-4.0305,-4.0205,-3.9986,-3.9781,-3.9824,-3.9755,-3.9703,-3.9781,-3.972,-3.9668,-3.9849,-3.9901,-3.9926,-4.0062,-4.0096,-4.0096,-4.0096,-4.0096,-4.0096,-4.0096,-4.0096,-4.0096,-4.0096,-4.0096,-4.0096,-4.0096,-4.0096,-4.0096,-4.0096,-4.0096,-4.0096,-4.0096,-3.9738,-3.953,-3.9677,-3.9067,-3.8667,-3.8805,-3.86,-3.8504,-3.8604,-3.8738,-3.8777,-3.8711,-3.8711,-3.8655,-3.8504,-3.842,-3.8391,-3.8408,-3.8894,-3.8865,-3.8391,-3.8391,-3.8675,-3.9117,-3.9064,-3.9527,-4.0371,-4.0894,-4.1351,-4.1799,-4.2483,-4.2883,-4.3037,-4.2929,-4.2929,-4.3007]},{"header":{"parameterUnit":"m.s-1","parameterCategory":1,"la1":30.6,"la2":28.766,"lo1":-90.7593,"lo2":-88.6598,"dy":0.0162,"dx":0.0183,"nx":116,"ny":114,"refTime":"2024-03-30T00:00:00:Z","depth":0,"parameterNumber":3,"parameterNumberName":"V-component_of_WINDS"},"data":[0.0,0.0,0.0,0.0,0.0,0.0,0.0,0.0,0.0,0.0,0.0,0.0,0.0,0.0,0.0,0.0,0.0,0.0,0.0,0.0,0.0,0.0,0.0,0.0,0.0,0.0,0.0,0.0,0.0,0.0,0.0,0.0,0.0,0.0,0.0,0.0,0.0,0.0,0.0,0.0,0.0,0.0,0.0,0.0,0.0,0.0,0.0,0.0,0.0,0.0,0.0,0.0,0.0,0.0,0.0,0.0,0.0,0.0,0.0,0.0,0.0,0.0,0.0,0.0,0.0,0.0,0.0,0.0,0.0,0.0,0.0,0.0,0.0,0.0,0.0,0.0,0.0,0.0,0.0,0.0,0.0,0.0,0.0,0.0,0.0,0.0,0.0,0.0,0.0,0.0,0.0,0.0,0.0,0.0,0.0,0.0,0.0,0.0,0.0,0.0,0.0,0.0,0.0,0.0,0.0,0.0,0.0,0.0,0.0,0.0,0.0,0.0,0.0,0.0,0.0,0.0,0.0,0.0,0.0,0.0,0.0,0.0,0.0,0.0,0.0,0.0,0.0,0.0,0.0,0.0,0.0,0.0,0.0,0.0,0.0,0.0,0.0,0.0,0.0,0.0,0.0,0.0,0.0,0.0,0.0,0.0,0.0,0.0,0.0,0.0,0.0,0.0,0.0,0.0,0.0,0.0,0.0,0.0,0.0,0.0,0.0,0.0,0.0,0.0,0.0,0.0,0.0,0.0,0.0,0.0,0.0,0.0,0.0,0.0,0.0,0.0,0.0,0.0,0.0,0.0,0.0,0.0,0.0,0.0,0.0,0.0,0.0,0.0,0.0,0.0,0.0,0.0,0.0,0.0,0.0,0.0,0.0,0.0,0.0,0.0,0.0,0.0,0.0,0.0,0.0,0.0,0.0,0.0,0.0,0.0,0.0,0.0,0.0,0.0,0.0,0.0,0.0,0.0,0.0,0.0,0.0,0.0,0.0,0.0,0.0,0.0,0.0,0.0,0.0,0.0,0.0,0.0,0.0,0.0,0.0,0.0,0.0,0.0,0.0,0.0,0.0,0.0,0.0,0.0,0.0,0.0,0.0,0.0,0.0,0.0,0.0,0.0,0.0,0.0,0.0,0.0,0.0,0.0,0.0,0.0,0.0,0.0,0.0,0.0,0.0,0.0,0.0,0.0,0.0,0.0,0.0,0.0,0.0,0.0,0.0,0.0,0.0,0.0,0.0,0.0,0.0,0.0,0.0,0.0,0.0,0.0,0.0,0.0,0.0,0.0,0.0,0.0,0.0,0.0,0.0,0.0,0.0,0.0,0.0,0.0,0.0,0.0,0.0,0.0,0.0,0.0,0.0,0.0,0.0,0.0,0.0,0.0,0.0,0.0,0.0,0.0,0.0,0.0,0.0,0.0,0.0,0.0,0.0,0.0,0.0,0.0,0.0,0.0,0.0,0.0,0.0,0.0,0.0,0.0,0.0,0.0,0.0,0.0,0.0,0.0,0.0,0.0,0.0,0.0,0.0,0.0,0.0,0.0,0.0,0.0,0.0,0.0,0.0,0.0,0.0,0.0,0.0,0.0,0.0,0.0,0.0,0.0,0.0,0.0,0.0,0.0,0.0,0.0,0.0,0.0,0.0,0.0,0.0,0.0,0.0,0.0,0.0,0.0,0.0,0.0,0.0,0.0,0.0,0.0,0.0,0.0,0.0,0.0,0.0,0.0,0.0,0.0,0.0,0.0,0.0,0.0,0.0,0.0,0.0,0.0,0.0,0.0,0.0,0.0,0.0,0.0,0.0,0.0,0.0,0.0,0.0,0.0,0.0,0.0,0.0,0.0,0.0,0.0,0.0,0.0,0.0,0.0,0.0,0.0,0.0,0.0,0.0,0.0,0.0,0.0,0.0,0.0,0.0,0.0,0.0,0.0,0.0,0.0,0.0,0.0,0.0,0.0,0.0,0.0,0.0,0.0,0.0,0.0,0.0,0.0,0.0,0.0,0.0,0.0,0.0,0.0,0.0,0.0,0.0,0.0,0.0,0.0,0.0,0.0,0.0,0.0,0.0,0.0,0.0,0.0,0.0,0.0,0.0,0.0,0.0,0.0,0.0,0.0,0.0,0.0,0.0,0.0,0.0,0.0,0.0,0.0,0.0,0.0,0.0,0.0,0.0,0.0,0.0,0.0,0.0,0.0,0.0,0.0,0.0,0.0,0.0,0.0,0.0,0.0,0.0,0.0,0.0,0.0,0.0,0.0,0.0,0.0,0.0,0.0,0.0,0.0,0.0,0.0,0.0,0.0,0.0,0.0,0.0,0.0,0.0,0.0,0.0,0.0,0.0,0.0,0.0,0.0,0.0,0.0,0.0,0.0,0.0,0.0,0.0,0.0,0.0,0.0,0.0,0.0,0.0,0.0,0.0,0.0,0.0,0.0,0.0,0.0,0.0,0.0,0.0,0.0,0.0,0.0,0.0,0.0,0.0,0.0,0.0,0.0,0.0,0.0,0.0,0.0,0.0,0.0,0.0,0.0,0.0,0.0,0.0,0.0,0.0,0.0,0.0,0.0,0.0,0.0,0.0,0.0,0.0,0.0,0.0,0.0,0.0,0.0,0.0,0.0,0.0,0.0,0.0,0.0,0.0,0.0,0.0,0.0,0.0,0.0,0.0,0.0,0.0,0.0,0.0,0.0,0.0,0.0,0.0,0.0,0.0,0.0,0.0,0.0,0.0,0.0,0.0,0.0,0.0,0.0,0.0,0.0,0.0,0.0,0.0,0.0,0.0,0.0,0.0,0.0,0.0,0.0,0.0,0.0,0.0,0.0,0.0,0.0,0.0,0.0,0.0,0.0,0.0,0.0,0.0,0.0,0.0,0.0,0.0,0.0,0.0,0.0,0.0,0.0,0.0,0.0,0.0,0.0,0.0,0.0,0.0,0.0,0.0,0.0,0.0,0.0,0.0,0.0,0.0,0.0,0.0,0.0,0.0,0.0,0.0,0.0,0.0,0.0,0.0,0.0,0.0,0.0,0.0,0.0,0.0,0.0,0.0,0.0,0.0,0.0,0.0,0.0,0.0,0.0,0.0,0.0,0.0,0.0,0.0,0.0,0.0,0.0,0.0,0.0,0.0,0.0,0.0,0.0,0.0,0.0,0.0,0.0,0.0,0.0,0.0,0.0,0.0,0.0,0.0,0.0,0.0,0.0,0.0,0.0,0.0,0.0,0.0,0.0,0.0,0.0,0.0,0.0,0.0,0.0,0.0,0.0,0.0,0.0,0.0,0.0,0.0,0.0,0.0,0.0,0.0,0.0,0.0,0.0,0.0,0.0,0.0,0.0,0.0,0.0,0.0,0.0,0.0,0.0,0.0,0.0,0.0,0.0,0.0,0.0,0.0,0.0,0.0,0.0,0.0,0.0,0.0,0.0,0.0,0.0,0.0,0.0,0.0,0.0,0.0,0.0,0.0,0.0,0.0,0.0,0.0,0.0,0.0,0.0,0.0,0.0,0.0,0.0,0.0,0.0,0.0,0.0,0.0,0.0,0.0,0.0,0.0,0.0,0.0,0.0,0.0,0.0,0.0,0.0,0.0,0.0,0.0,0.0,0.0,0.0,0.0,0.0,0.0,0.0,0.0,0.0,0.0,0.0,0.0,0.0,0.0,0.0,0.0,0.0,0.0,0.0,0.0,0.0,0.0,0.0,0.0,0.0,0.0,0.0,0.0,0.0,0.0,0.0,0.0,0.0,0.0,0.0,0.0,0.0,0.0,0.0,0.0,0.0,0.0,0.0,0.0,0.0,0.0,0.0,0.0,0.0,0.0,0.0,0.0,0.0,0.0,0.0,0.0,0.0,0.0,0.0,0.0,0.0,0.0,0.0,0.0,0.0,0.0,0.0,0.0,0.0,0.0,0.0,0.0,0.0,0.0,0.0,0.0,0.0,0.0,0.0,0.0,0.0,0.0,0.0,0.0,0.0,0.0,0.0,0.0,0.0,0.0,0.0,0.0,0.0,0.0,0.0,0.0,0.0,0.0,0.0,0.0,0.0,0.0,0.0,0.0,0.0,0.0,0.0,0.0,0.0,0.0,0.0,0.0,0.0,0.0,0.0,0.0,0.0,0.0,0.0,0.0,0.0,0.0,0.0,0.0,0.0,0.0,0.0,0.0,0.0,0.0,0.0,0.0,0.0,0.0,0.0,0.0,0.0,0.0,0.0,0.0,0.0,0.0,0.0,0.0,0.0,0.0,0.0,0.0,0.0,0.0,0.0,0.0,0.0,0.0,0.0,0.0,0.0,0.0,0.0,0.0,0.0,0.0,0.0,0.0,0.0,0.0,0.0,0.0,0.0,0.0,0.0,0.0,0.0,0.0,0.0,0.0,0.0,0.0,0.0,0.0,0.0,0.0,0.0,0.0,0.0,0.0,0.0,0.0,0.0,0.0,0.0,0.0,0.0,0.0,0.0,0.0,0.0,0.0,0.0,0.0,0.0,0.0,0.0,0.0,0.0,0.0,0.0,0.0,0.0,0.0,0.0,0.0,0.0,0.0,0.0,0.0,0.0,0.0,0.0,0.0,0.0,0.0,0.0,0.0,0.0,0.0,0.0,0.0,0.0,0.0,0.0,0.0,0.0,0.0,0.0,0.0,0.0,0.0,0.0,0.0,0.0,0.0,0.0,0.0,0.0,0.0,0.0,0.0,0.0,0.0,0.0,0.0,0.0,0.0,0.0,0.0,0.0,0.0,0.0,0.0,0.0,0.0,0.0,0.0,0.0,0.0,0.0,0.0,0.0,0.0,0.0,0.0,0.0,0.0,0.0,0.0,0.0,0.0,0.0,0.0,0.0,0.0,0.0,0.0,0.0,0.0,0.0,0.0,0.0,0.0,0.0,0.0,0.0,0.0,0.0,0.0,0.0,0.0,0.0,0.0,0.0,0.0,0.0,0.0,0.0,0.0,0.0,0.0,0.0,0.0,0.0,0.0,0.0,0.0,0.0,0.0,0.0,0.0,0.0,0.0,0.0,0.0,0.0,0.0,0.0,0.0,0.0,0.0,0.0,0.0,0.0,0.0,0.0,0.0,0.0,0.0,0.0,0.0,0.0,0.0,0.0,0.0,0.0,0.0,0.0,0.0,0.0,0.0,0.0,0.0,0.0,0.0,0.0,0.0,0.0,0.0,0.0,0.0,0.0,0.0,0.0,0.0,0.0,0.0,0.0,0.0,0.0,0.0,0.0,0.0,0.0,0.0,0.0,0.0,0.0,0.0,0.0,0.0,0.0,0.0,0.0,0.0,0.0,0.0,0.0,0.0,0.0,0.0,0.0,0.0,0.0,0.0,0.0,0.0,0.0,0.0,0.0,0.0,0.0,0.0,0.0,0.0,0.0,0.0,0.0,0.0,0.0,0.0,0.0,0.0,0.0,0.0,0.0,0.0,0.0,0.0,0.0,0.0,0.0,0.0,0.0,0.0,0.0,0.0,0.0,0.0,0.0,0.0,0.0,0.0,0.0,0.0,0.0,0.0,0.0,0.0,0.0,0.0,0.0,0.0,0.0,0.0,0.0,0.0,0.0,0.0,0.0,0.0,0.0,0.0,0.0,0.0,0.0,0.0,0.0,0.0,0.0,0.0,0.0,0.0,0.0,0.0,0.0,0.0,0.0,0.0,0.0,0.0,0.0,0.0,0.0,0.0,0.0,0.0,0.0,0.0,0.0,0.0,0.0,0.0,0.0,0.0,0.0,0.0,0.0,0.0,0.0,0.0,0.0,0.0,0.0,0.0,0.0,0.0,0.0,0.0,0.0,0.0,0.0,0.0,0.0,0.0,0.0,0.0,0.0,0.0,0.0,0.0,0.0,0.0,0.0,0.0,0.0,0.0,0.0,0.0,0.0,0.0,0.0,0.0,0.0,0.0,0.0,0.0,0.0,0.0,0.0,0.0,0.0,0.0,0.0,0.0,0.0,0.0,0.0,0.0,0.0,0.0,0.0,0.0,0.0,0.0,0.0,0.0,0.0,0.0,0.0,0.0,0.0,0.0,0.0,0.0,0.0,0.0,0.0,0.0,0.0,0.0,0.0,0.0,0.0,0.0,0.0,0.0,0.0,0.0,0.0,1.1554,1.0697,0.0,0.0,0.0,0.0,0.0,0.0,0.0,0.0,0.0,0.0,0.0,0.0,0.0,0.0,0.0,0.0,0.0,0.0,0.0,0.0,0.0,0.0,0.0,0.2155,0.3159,0.4632,0.5672,0.665,0.758,0.0,0.0,0.0,0.0,0.0,0.7454,0.725,0.7176,0.7289,0.7088,0.7301,0.7878,0.7341,0.6331,0.4917,0.0,0.0,0.0,0.0,0.0,0.0,0.0,0.0,0.0,0.0,0.0,0.0,0.0,0.0,0.0,0.0,0.0,0.0,0.0,0.0,0.0,0.0,0.0,0.0,0.0,0.0,0.0,0.0,0.0,0.0,0.0,0.0,0.0,0.0,0.0,0.0,0.0,0.0,0.0,0.0,0.0,0.0,0.0,0.0,0.0,0.0,0.0,0.0,0.0,0.0,0.0,0.0,0.0,0.0,0.0,0.0,0.0,0.0,0.0,0.0,0.0,0.0,0.0,0.0,0.0,0.0,0.0,0.0,0.0,0.0,1.342,1.2639,0.0,0.0,0.0,0.0,0.0,0.0,0.0,0.0,0.0,0.0,0.0,0.0,0.0,0.0,0.0,0.0,0.0,0.0,0.0,0.0,0.0,0.1388,0.1733,0.2814,0.4136,0.5653,0.6605,0.754,0.8564,0.8612,0.0,0.0,0.8278,0.8193,0.7938,0.7655,0.7651,0.7934,0.7764,0.7967,0.8579,0.8811,0.806,0.6484,0.5308,0.0,0.0,0.0,0.0,0.0,0.0,0.0,0.0,0.0,0.0,0.0,0.0,0.0,0.0,0.0,0.0,0.0,0.0,0.0,0.0,0.0,0.0,0.0,0.0,0.0,0.0,0.0,0.0,0.0,0.0,0.0,0.0,0.0,0.0,0.0,0.0,0.0,0.0,0.0,0.0,0.0,0.0,0.0,0.0,0.0,0.0,0.0,0.0,0.0,0.0,0.0,0.0,0.0,0.0,0.0,0.0,0.0,0.0,0.0,0.0,0.0,0.0,0.0,1.6011,1.6275,1.6597,1.6653,1.6646,1.6569,1.6169,1.548,1.4663,1.4519,0.0,0.0,0.0,0.0,0.0,0.0,0.0,0.0,0.0,0.0,0.0,0.0,0.0,0.0,0.0,0.0,0.0,0.0,0.0,0.1576,0.1935,0.3022,0.4391,0.5916,0.6694,0.7584,0.878,0.8696,0.8526,0.83,0.8261,0.8061,0.774,0.7815,0.7819,0.7732,0.8394,0.8857,0.9191,0.9575,0.9528,0.9049,0.7456,0.0,0.0,0.0,0.0,0.0,0.0,0.0,0.0,0.0,0.0,0.0,0.0,0.0,0.0,0.0,0.0,0.0,0.0,0.0,0.0,0.0,0.0,0.0,0.0,0.0,0.0,0.0,0.0,0.0,0.0,0.0,0.0,0.0,0.0,0.0,0.0,0.0,0.0,0.0,0.0,0.0,0.0,0.0,1.3088,1.3215,0.0,0.0,0.0,0.0,0.0,0.0,0.0,0.0,0.0,0.0,0.0,0.0,0.0,1.5475,1.5691,1.6224,1.7074,1.8273,1.8568,1.9041,1.9725,1.9996,1.9963,1.9725,1.9953,0.0,1.5244,1.473,0.0,0.0,0.0,0.0,0.0,0.0,0.0,0.0,0.0,0.0,0.0,0.0,0.0,0.0,0.0,0.0,0.0,0.0,0.0,0.0,0.0,0.3887,0.5263,0.618,0.7652,0.8613,0.8872,0.892,0.8806,0.8498,0.8432,0.8356,0.8204,0.8258,0.8385,0.8619,0.93,0.9673,0.9809,1.0122,1.0154,0.9921,0.9161,0.8484,0.7736,0.6381,0.0,0.0,0.0,0.0,0.0,0.0,0.0,0.0,0.0,0.0,0.0,0.0,0.0,0.0,0.0,0.0,0.0,0.0,0.0,0.0,0.0,0.0,0.0,0.0,0.0,0.0,0.0,0.0,0.0,0.0,0.0,0.0,0.0,0.0,0.0,0.0,0.0,0.0,0.0,1.3703,1.3791,1.3714,1.3966,1.4091,0.0,0.0,0.0,0.0,0.0,0.0,0.0,0.0,0.0,1.6788,1.7688,1.8318,1.8597,1.8866,1.9388,2.0103,2.0264,2.0598,2.1088,2.1254,2.1237,2.1063,2.0822,1.9773,1.8261,1.7408,1.6988,1.6723,0.0,0.0,0.0,0.0,1.6239,1.6426,0.0,0.0,0.0,0.0,0.0,0.0,0.0,0.0,0.0,0.0,0.0,0.0,0.268,0.4648,0.6101,0.6545,0.8413,0.9481,0.9168,0.9153,0.901,0.8704,0.8612,0.8612,0.8612,0.8688,0.8965,0.9376,1.0044,1.0406,1.0453,1.0744,1.0796,1.0605,1.0459,0.9916,0.8944,0.7764,0.7156,0.0,0.0,0.0,0.0,0.0,0.0,0.0,0.0,0.0,0.0,0.0,0.0,0.0,0.0,0.0,0.0,0.0,0.0,0.0,0.0,0.0,0.0,0.0,0.0,0.0,0.0,0.0,0.0,0.0,0.0,0.0,0.0,0.0,0.0,0.0,0.0,0.0,0.0,1.4064,1.4273,1.377,1.4647,1.5109,0.0,0.0,0.0,0.0,0.0,0.0,1.6546,1.7658,1.8444,1.8832,1.9837,2.0576,2.1,2.1101,2.1423,2.194,2.194,2.2242,2.2717,2.2655,2.2611,2.2536,2.1965,2.167,2.1535,1.9859,1.9014,1.874,1.8062,1.802,1.8313,1.7995,1.8171,1.8515,0.0,0.0,0.0,0.0,0.0,0.0,0.0,0.0,0.0,0.0,0.0,0.282,0.2798,0.5061,0.6685,0.705,0.8619,0.9674,0.9854,0.9243,0.892,0.8867,0.8696,0.8612,0.8612,0.8983,0.9291,0.957,1.0435,1.097,1.117,1.1572,1.1756,1.1695,1.1254,1.0587,0.9813,0.9146,0.8664,0.8249,0.0,0.0,0.0,0.0,0.0,0.0,0.0,0.0,0.0,0.0,0.0,0.0,0.0,0.0,0.0,0.0,0.0,0.0,0.0,0.0,0.0,0.0,0.0,0.0,0.0,0.0,0.0,0.0,0.0,0.0,0.0,0.0,0.0,0.0,0.0,0.0,0.0,0.0,0.0,1.3812,1.5935,0.0,0.0,0.0,0.0,1.8645,1.9118,1.9546,2.0011,1.9775,1.9924,2.0639,2.0624,2.092,2.1541,2.1903,2.2691,2.3952,2.3952,2.4482,2.547,2.5273,2.5135,2.4926,2.4712,2.4608,2.4316,2.0837,1.9369,1.9362,1.9222,1.9203,1.9254,1.944,1.9719,1.9957,0.0,0.0,0.0,0.0,0.0,0.2198,0.2257,0.2226,0.221,0.2379,0.2619,0.2876,0.3202,0.5442,0.7057,0.7393,0.9163,1.0136,0.9921,0.9571,0.9212,0.8915,0.8696,0.8794,0.9214,0.9494,0.9994,1.0625,1.1079,1.1367,1.16,1.1746,1.1817,1.1813,1.1639,1.1383,1.1033,1.0039,0.9357,0.8901,0.8246,0.7572,0.0,0.0,0.0,0.0,0.0,0.0,0.0,0.0,0.0,0.0,0.0,0.0,0.0,0.0,0.0,0.0,0.0,0.0,0.0,0.0,0.0,0.0,0.0,0.0,0.0,0.0,0.0,0.0,0.0,0.0,0.0,0.0,0.0,0.0,0.0,0.0,0.0,1.6799,1.7757,0.0,1.8171,1.8544,1.906,1.975,2.0138,2.0475,2.0855,2.1725,2.2345,2.2574,2.3432,2.3992,2.4247,2.4347,2.4667,2.5118,2.5118,2.5323,2.5674,2.5502,2.5342,2.5255,2.483,2.4611,2.4506,2.3052,2.2385,2.2187,2.1639,2.1575,2.1777,2.1396,2.1558,2.1821,0.0,0.0,0.0,0.0,0.2118,0.2206,0.2287,0.2294,0.236,0.2556,0.2867,0.3224,0.3539,0.582,0.7446,0.7692,0.9486,1.0472,1.0154,0.9786,0.9433,0.9047,0.8882,0.9048,0.9544,0.9992,1.0525,1.1208,1.154,1.1747,1.1874,1.1997,1.2025,1.2025,1.1902,1.1874,1.1831,1.0915,1.0283,0.9786,0.8996,0.8554,0.8205,0.0,0.0,0.0,0.0,0.0,0.0,0.0,0.0,0.0,0.0,0.0,0.0,0.0,0.0,0.0,0.0,0.0,0.0,0.0,0.0,0.0,0.0,0.0,0.0,0.0,0.0,0.0,0.0,0.0,0.0,0.0,0.0,0.0,0.0,1.7702,1.875,1.8673,1.9679,2.0382,2.0292,2.0611,2.1094,2.1734,2.2155,2.2494,2.2715,2.362,2.4191,2.4284,2.5083,2.5538,2.5693,2.5693,2.5693,2.5693,2.5693,2.5693,2.5674,2.5607,2.5404,2.5179,2.4781,2.4567,2.4395,2.4145,2.4067,2.3963,2.3469,2.3418,2.359,2.315,2.3178,2.34,0.0,0.0,0.0,0.1885,0.2192,0.2235,0.2284,0.2484,0.2611,0.27,0.3386,0.3842,0.3684,0.6197,0.789,0.7901,0.9558,1.0575,1.0575,0.996,0.9519,0.931,0.9276,0.9333,0.9529,1.0421,1.1024,1.124,1.1788,1.209,1.21,1.2297,1.2387,1.2377,1.2184,1.2095,1.2081,1.1864,1.1494,1.0867,1.0058,0.9708,0.9513,0.0,0.0,0.0,0.0,0.0,0.0,0.0,0.0,0.0,0.0,0.0,0.0,0.0,0.0,0.0,0.0,0.0,0.0,0.0,0.0,0.0,0.0,0.0,0.0,0.0,0.0,0.0,0.0,0.0,0.0,0.0,0.0,0.0,1.727,1.9054,2.0155,1.9209,2.1605,2.2973,2.2023,2.3627,2.4726,2.4746,2.5344,2.5693,2.5693,2.5322,2.5283,2.5674,2.5312,2.5293,2.5684,2.5693,2.5693,2.5693,2.5693,2.5684,2.5703,2.5729,2.5421,2.4798,2.4875,2.4615,2.4206,2.3927,2.4057,2.4497,2.4497,2.4497,2.4497,2.4497,2.4497,2.4497,0.0,0.0,0.0169,0.19,0.2256,0.2311,0.2348,0.2509,0.259,0.2617,0.3183,0.3576,0.3498,0.5889,0.7484,0.7396,0.9203,1.0297,1.0297,0.987,0.9578,0.95,0.978,1.01,1.0497,1.0902,1.1355,1.1864,1.2029,1.2161,1.2302,1.2358,1.2387,1.2382,1.2325,1.2302,1.2288,1.2085,1.1935,1.1719,1.0893,1.0383,1.0035,0.0,0.0,0.0,0.0,0.0,0.0,0.0,0.0,0.0,0.0,0.0,0.0,0.0,0.0,0.0,0.0,0.0,0.0,0.0,0.0,0.0,0.0,0.0,0.0,0.0,0.0,0.0,0.0,0.0,0.0,0.0,2.0132,2.0723,2.0132,2.1383,2.2602,2.3298,2.3947,2.4383,2.4612,2.467,2.4909,2.5382,2.5625,2.5693,2.5693,2.5625,2.5605,2.5684,2.5567,2.5567,2.5693,2.5693,2.5693,2.5693,2.5693,2.5566,2.5292,2.5262,2.5007,2.4576,2.4617,2.4535,2.4411,2.4196,2.4153,2.4239,2.4057,2.411,2.4249,2.4057,2.397,2.397,0.0,-0.0373,0.0344,0.1923,0.2259,0.2318,0.2374,0.2501,0.2582,0.2632,0.3085,0.3433,0.341,0.5294,0.6709,0.7049,0.8545,0.9643,1.0049,0.9862,0.9813,0.996,0.0,1.0716,1.1153,1.1415,1.1783,1.2212,1.2212,1.2269,1.2387,1.2387,1.2387,1.2387,1.2387,1.2387,1.2377,1.226,1.2212,1.2175,1.162,1.1197,1.0872,1.0434,1.0259,1.0144,0.9723,0.9624,0.9638,0.9096,0.0,0.0,0.0,0.0,0.0,0.0,0.0,0.0,0.0,0.0,0.0,0.0,0.0,0.0,0.0,0.0,0.0,0.0,0.0,0.0,0.0,0.0,0.0,0.0,2.1964,2.2678,2.3112,2.3438,2.4031,2.499,2.5119,2.5285,2.5635,2.5344,2.5257,2.5664,2.5693,2.5693,2.5693,2.5693,2.5693,2.5693,2.5693,2.5693,2.5693,2.5693,2.5644,2.5459,2.5459,2.5272,2.4982,2.5095,2.4972,2.4628,2.4638,2.4596,2.4454,2.4067,2.4024,2.4153,0.0,0.0,0.0,0.0,2.3797,2.3797,0.0,-0.0276,0.0458,0.1838,0.22,0.2327,0.2383,0.2488,0.257,0.2679,0.3057,0.3298,0.3367,0.4621,0.5744,0.6552,0.7743,0.8859,0.9913,1.0003,1.0232,1.0612,1.089,1.1176,1.1539,1.1957,1.2208,1.2387,1.2387,1.2387,1.2387,1.2387,1.2387,1.2387,1.2387,1.2387,1.2387,1.2332,1.2327,1.2368,1.2189,1.1991,1.1808,1.1416,1.1383,1.1427,1.0705,1.0454,1.0347,0.9692,0.0,0.0,0.0,0.0,0.0,0.0,0.0,0.0,0.0,0.0,0.0,0.0,0.0,0.0,0.0,0.0,0.0,0.0,0.0,0.0,0.0,0.0,0.0,0.0,2.3475,2.4192,2.5641,2.5146,2.4834,2.5277,2.5565,2.5752,2.5781,2.5742,2.5693,2.5693,2.5693,2.5693,2.5693,2.5693,0.0,0.0,0.0,2.5693,2.5693,2.5693,2.5518,2.5116,2.5116,2.5012,2.4723,2.5007,2.4992,2.47,2.4798,2.4661,2.4368,2.3764,2.3764,2.412,2.3851,2.3754,2.3711,2.3711,2.3711,2.3754,0.0,-0.0921,-0.0073,0.1187,0.1945,0.2386,0.2484,0.2586,0.2666,0.2689,0.3014,0.3162,0.3089,0.4229,0.5018,0.5029,0.6894,0.8738,1.0297,1.0733,1.1083,1.1288,1.1653,1.1892,1.1971,1.2227,1.2344,1.2387,1.2387,1.2387,1.2387,1.2387,1.2387,1.2382,1.2169,1.2223,1.2387,1.1951,1.2005,1.2382,1.2127,1.2047,1.1996,1.1794,1.1723,1.1723,1.1389,1.1286,1.1199,1.0655,1.0941,1.1573,1.2176,0.0,0.0,0.0,0.0,0.0,0.0,0.0,0.0,0.0,0.0,0.0,0.0,0.0,0.0,0.0,0.0,0.0,0.0,0.0,0.0,2.3163,2.4157,2.5017,2.5508,2.5939,2.6367,2.6829,2.6378,2.61,2.6304,2.5975,2.5693,2.5693,2.5693,2.5693,2.5693,2.5693,2.5693,2.5693,2.5693,2.5693,2.5693,2.5693,2.5518,2.5116,2.5248,0.0,2.4267,2.467,2.4561,2.4015,2.4242,2.4191,2.3927,2.3797,2.3711,2.3634,2.359,2.3406,2.3222,2.3222,2.3222,2.3353,0.0,-0.1359,-0.0112,0.0866,0.1832,0.2476,0.2506,0.2614,0.2692,0.2692,0.2796,0.2837,0.2775,0.3215,0.3694,0.4058,0.6314,0.8297,0.9652,1.0547,1.1238,1.1761,1.1977,1.2079,1.207,1.2172,1.2114,1.2005,1.2114,1.2223,1.2223,1.2495,1.2495,1.2223,1.2223,1.2114,1.2001,1.1732,1.1732,1.2005,1.1841,1.1778,1.1713,1.2028,1.2076,1.2048,1.185,1.1775,1.1742,1.1424,1.157,1.202,1.2941,1.3197,1.3317,0.0,0.0,0.0,0.0,0.0,0.0,0.0,0.0,0.0,0.0,0.0,0.0,0.0,0.0,2.1671,2.2124,0.0,2.3787,2.4448,2.532,2.6013,2.633,2.6496,2.6578,2.6696,2.6438,2.6255,2.612,2.5878,2.5693,2.5693,2.5693,2.5693,2.5693,2.5693,2.5693,2.5693,2.582,2.5917,2.5917,2.6014,2.5844,2.5305,2.5322,2.4965,2.4316,2.4317,2.4433,2.4647,2.4562,2.4765,2.5137,2.5052,2.484,2.4669,2.4669,2.4026,2.3091,2.3091,2.3396,2.3864,0.0,-0.1902,-0.0342,0.0456,0.147,0.2196,0.2392,0.2563,0.2637,0.2691,0.2614,0.2547,0.2512,0.237,0.2653,0.356,0.5625,0.7383,0.8534,0.9871,1.095,1.1734,1.2012,1.2114,1.2001,1.2005,1.1896,1.1623,1.1841,1.1896,1.1951,1.2441,1.2387,1.1951,1.206,1.1946,1.1568,1.1404,1.1459,1.1568,1.1404,1.1372,1.1415,1.1946,1.2141,1.214,1.194,1.1895,1.1887,1.1714,1.1778,1.22,1.3494,1.3807,1.38,1.4592,1.4718,0.0,0.0,0.0,0.0,0.0,0.0,0.0,0.0,0.0,2.0718,2.0568,2.143,2.2458,2.3301,2.3902,2.4618,2.583,2.6449,2.6837,2.7163,2.688,2.6544,2.6197,2.6304,2.6217,2.583,2.5732,2.5693,2.5693,2.5693,2.5693,2.5693,2.5693,2.5693,2.5693,2.5955,2.61,2.61,2.6352,2.6139,2.5421,2.5257,2.4952,2.4418,2.4176,2.4562,2.5411,2.5137,2.5547,2.6445,2.6227,2.6008,2.5872,2.583,2.4904,2.3637,2.3637,2.4102,2.4787,0.0,-0.2924,-0.1636,-0.0624,0.0274,0.1136,0.2078,0.2286,0.2424,0.2685,0.2751,0.2682,0.2509,0.2475,0.2809,0.3721,0.4536,0.5671,0.7201,0.8925,1.0116,1.0658,1.1756,1.2254,1.2005,1.2005,1.1896,1.1623,1.1623,1.1623,1.1623,1.1732,1.1732,1.1623,1.1345,1.14,1.1568,1.0747,1.0911,1.1514,1.0747,1.0903,1.1538,1.1341,1.13,1.1403,1.1199,1.1176,1.1226,1.1208,1.1126,1.1431,1.358,1.3744,1.3554,1.544,0.0,1.5078,1.4889,1.5691,1.6784,1.7561,1.8482,1.9498,0.0,2.1398,2.1613,2.2337,2.2922,2.3537,2.4243,2.4917,2.5655,2.6413,2.6926,2.7163,2.6986,2.7071,2.7023,2.6496,2.6072,2.5878,2.6052,2.583,2.5693,2.5693,2.5693,2.5693,2.5693,2.5693,2.5693,2.5693,2.5955,2.61,2.61,2.6352,2.6084,2.5249,2.5209,2.4881,2.4235,2.4807,2.5115,2.5232,2.5547,2.5924,2.6227,2.5955,2.5966,2.6144,2.5872,2.5694,2.5484,2.5484,2.5568,2.5777,0.0,0.0,-0.282,-0.1881,-0.0431,0.0744,0.1214,0.184,0.2335,0.2516,0.253,0.2543,0.2508,0.2379,0.2476,0.2858,0.3826,0.4873,0.5862,0.7419,0.8507,0.9012,0.9578,1.0061,1.046,1.0515,1.0684,1.1076,1.124,1.1295,1.1295,1.1678,1.1678,1.1295,1.135,1.1295,1.1076,1.0692,1.0747,1.1021,1.0692,1.0686,1.0854,1.0638,1.0533,1.0534,1.0876,1.0968,0.0,0.0,1.1024,1.1298,1.3545,1.3589,1.3228,1.5344,1.5639,0.0,1.5409,1.6352,1.7387,1.7703,1.8888,2.0183,2.1044,2.1588,2.2054,2.2523,2.3176,2.3878,2.4587,2.4866,2.5254,2.6233,2.6547,2.6716,2.686,2.6996,2.6986,2.6747,2.6265,2.5955,2.61,2.5868,2.5693,2.5693,2.5693,2.5693,2.5693,2.5868,2.5917,2.5917,2.6352,2.6423,2.6161,2.6435,2.6166,2.5396,2.5671,2.556,2.5162,2.5561,2.5977,2.6393,2.7092,2.7418,2.751,2.7418,2.7429,2.751,2.7418,2.7377,2.7244,2.6205,2.6163,2.667,0.0,0.0,0.0,-0.2979,-0.141,-0.0078,0.0431,0.1239,0.1925,0.2348,0.2401,0.241,0.2508,0.2334,0.2199,0.2199,0.3193,0.4017,0.4498,0.5916,0.6929,0.7408,0.781,0.8296,0.8913,0.8916,0.9192,0.9691,0.9908,1.0186,1.0519,1.0958,1.1072,1.1021,1.124,1.1131,1.0692,1.0637,1.0637,1.0692,1.0527,1.0427,1.0362,1.0124,0.9966,0.9873,1.0361,1.0523,0.0,0.0,1.0909,1.1505,1.3112,1.3409,1.348,1.5165,1.5631,1.5632,1.57,1.6588,1.7461,1.7461,1.8814,2.0278,2.0729,2.1622,2.2452,2.2699,2.3265,2.3938,2.4656,2.4604,2.4806,2.5934,2.6103,2.6302,2.6829,2.69,2.6948,2.6986,2.6544,2.6197,2.6197,2.5917,2.5693,2.5693,2.5693,2.5732,2.583,2.6004,2.6139,2.6197,2.6651,2.6686,2.618,2.6486,2.6279,2.5709,2.5985,2.6087,2.6012,2.6393,2.694,2.7592,2.8219,2.851,2.851,2.851,2.851,2.851,2.851,2.851,2.8339,2.704,2.6958,2.7551,0.0,0.0,0.0,0.0,-0.3018,-0.1803,0.0039,0.04,0.0941,0.2222,0.2401,0.241,0.2508,0.2334,0.2199,0.2199,0.2472,0.2804,0.3146,0.4666,0.5678,0.6054,0.7282,0.7907,0.7633,0.7633,0.7523,0.7193,0.7193,0.7808,0.8978,0.8975,0.9585,1.0692,1.0747,1.0692,1.0692,1.0421,1.0472,1.0637,1.0033,1.0046,1.0362,0.9914,0.9686,0.9612,0.949,0.0,0.0,0.0,1.0505,1.2099,1.216,1.3204,0.0,1.5122,1.5829,1.6277,1.5749,1.6286,1.6971,1.6838,1.8084,1.9557,2.039,2.1756,2.2916,2.3387,2.3493,2.372,2.438,2.4336,2.4581,2.5645,2.5822,2.6077,2.6781,2.69,2.6996,2.7262,2.6832,2.6496,2.6496,2.6024,2.5693,2.5693,2.5693,2.582,2.6052,2.61,2.6197,2.6496,2.6747,2.6686,2.618,2.6486,2.6477,2.6184,2.6,2.6087,2.6498,2.7156,2.7846,2.8471,2.8471,2.851,2.851,2.851,2.851,2.851,2.851,2.851,2.851,2.8431,2.8431,2.8471,0.0,0.0,0.0,0.0,0.0,-0.3121,-0.1928,-0.053,0.0573,0.1089,0.191,0.0,0.0,0.0,0.0,0.0,0.2698,0.2845,0.2854,0.3575,0.4051,0.4179,0.4751,0.5328,0.6041,0.6109,0.6475,0.7083,0.7083,0.7307,0.7695,0.7695,0.7916,0.8303,0.8303,0.8303,0.8303,0.8195,0.8696,0.9464,0.9196,0.9615,1.0346,0.9991,0.9658,0.9405,0.0,0.0,0.0,0.0,0.0,0.0,1.1617,1.2397,1.3304,1.4559,1.5338,1.5925,1.6086,1.6536,1.7016,1.7071,1.854,2.0166,2.0739,2.1882,2.2882,2.3188,2.3232,2.3457,2.4167,2.3875,2.391,2.5213,2.5011,2.5081,2.6047,2.6148,2.6307,2.6696,2.6438,2.6245,2.6245,2.5927,2.5693,2.5693,2.5693,2.583,2.61,2.6245,2.6726,2.7478,2.6962,2.6903,2.7377,2.6708,2.6357,2.6398,2.7054,2.7801,2.8636,2.8846,2.9081,2.9289,2.9289,2.9289,2.9302,2.9013,2.8895,2.8855,2.859,2.8657,2.8895,2.8895,2.8895,2.8855,0.0,0.0,0.0,0.0,0.0,0.0,0.0,0.0,0.0,0.0,0.0,0.0,0.0,0.0,0.0,0.0,0.0,0.2906,0.2823,0.3013,0.3203,0.3285,0.3256,0.3676,0.4447,0.4414,0.4775,0.5652,0.5652,0.5962,0.6478,0.6478,0.6697,0.7083,0.7083,0.7083,0.708,0.7095,0.7792,0.8821,0.8618,0.9193,1.0107,0.9742,0.9421,0.0,0.0,0.0,0.0,0.0,0.0,1.0804,1.1007,1.191,1.3134,1.4193,1.5105,1.5847,1.6237,1.6533,1.6832,1.7075,1.8688,2.0323,2.0639,2.1828,2.2925,2.2969,2.293,2.3008,2.3423,2.3159,2.3276,2.4406,2.4282,2.451,2.5758,2.5645,2.5658,2.6337,2.5914,2.5694,2.5853,2.5495,2.5332,2.5488,2.5546,2.5669,2.5787,2.6401,2.7025,2.7601,2.7246,2.7266,2.7706,2.7113,2.6945,2.7313,2.8239,2.903,2.9704,2.9704,2.9704,2.9704,2.9704,2.9704,2.9665,2.9419,2.9314,2.9275,2.904,2.9079,2.9314,2.9314,2.9314,2.9275,0.0,0.0,0.0,0.0,0.0,0.0,0.0,0.0,0.0,0.0,0.0,0.0,0.0,0.0,0.0,0.0,0.0,0.0,0.295,0.0,0.0,0.3161,0.2971,0.2948,0.3,0.2697,0.2721,0.3083,0.3083,0.3835,0.5287,0.5287,0.5839,0.6882,0.6882,0.6885,0.6882,0.6929,0.7529,0.8485,0.8298,0.87,0.9477,0.923,0.0,0.0,0.0,0.0,0.0,0.0,0.0,1.1548,1.0401,1.1924,1.413,1.4144,1.5068,1.6137,1.6209,1.6318,1.6501,1.6901,1.8434,1.9886,2.0096,2.1641,2.296,2.2765,2.2597,2.2454,0.0,2.2349,2.2761,2.3361,2.3654,2.4325,2.5884,2.5307,2.5105,2.6001,2.5318,2.4961,2.5387,2.4788,2.4551,2.5018,2.5312,2.5398,2.5239,2.6447,2.7062,2.6893,2.7514,2.7662,2.7278,2.7664,2.8216,2.8861,2.9471,2.9742,2.9781,2.9781,2.9781,2.9781,2.9781,2.9781,2.9742,2.9742,2.9742,2.9742,2.9704,2.9704,2.9742,2.9742,2.9742,2.9742,0.0,0.0,0.0,0.0,0.0,0.0,0.0,0.0,0.0,0.0,0.0,0.0,0.0,0.0,0.0,0.0,0.0,0.0,0.2396,0.0,0.0,0.0,0.0,0.0,0.0,0.0,0.0,0.2969,0.2969,0.3136,0.3526,0.3526,0.3785,0.4197,0.4197,0.4228,0.4278,0.42,0.492,0.6054,0.0,0.7355,0.8371,0.0,0.0,0.0,0.0,0.0,0.0,0.0,0.0,1.1253,1.1846,1.3352,1.4839,1.4892,1.5492,1.6141,1.6317,1.6311,1.631,1.6622,1.7924,1.9109,1.9155,2.0647,2.1975,2.159,2.2182,2.2577,2.2084,2.2516,2.304,2.3228,2.3471,2.3816,2.4531,2.4421,0.0,2.4799,0.0,2.4555,2.4663,2.4245,2.3994,2.4111,2.445,2.4957,2.5605,2.6175,2.6631,2.6961,2.7227,2.7572,2.8027,2.8495,2.898,2.9459,2.9986,3.0394,3.0659,3.0659,3.0659,3.0659,3.0659,3.0659,3.0659,3.0355,3.0241,3.019,2.9832,2.9909,3.0241,3.0241,3.0241,3.0279,0.0,0.0,0.0,0.0,0.0,0.0,0.0,0.0,0.0,0.0,0.0,0.0,0.0,0.0,0.0,0.0,0.0,0.0,0.0,0.0,0.0,0.0,0.0,0.0,0.0,0.0,0.0,0.0,0.0,0.0,0.2876,0.2876,0.2876,0.2876,0.2876,0.2893,0.2969,0.2864,0.0,0.0,0.0,0.0,0.0,0.0,0.0,0.0,0.0,0.0,0.0,0.0,0.0,1.1133,1.2218,1.3789,1.5182,1.5138,1.5576,1.6144,1.629,1.6275,1.6312,1.677,1.7785,1.8756,1.9225,2.0402,2.1415,2.1276,2.1716,2.1958,2.1525,2.2065,2.2637,2.2914,2.314,0.0,2.4355,2.3979,2.3831,0.0,2.4371,0.0,2.4691,2.47,2.4818,2.5218,2.4691,2.4625,2.5343,2.6096,2.6715,2.7186,2.7664,2.8228,2.8931,2.9251,2.9599,2.9999,3.0279,3.0558,3.0874,3.0874,3.0911,3.0986,3.0986,3.0986,3.0986,3.0748,3.0672,3.0634,3.0381,3.0432,3.0672,3.0672,3.0672,3.0672,0.0,0.0,0.0,0.0,0.0,0.0,0.0,0.0,0.0,0.0,-0.0718,0.0403,0.0,0.0,0.0,0.0,0.0,0.0,0.0,0.0,0.0,0.0,0.0,0.0,0.0,0.0,0.0,0.0,0.0,0.0,0.0,0.0,0.0,0.0,0.0,0.0,0.0,0.0,0.0,0.0,0.0,0.0,0.0,0.0,0.0,0.0,0.0,0.0,0.0,0.0,1.0003,1.1279,1.2114,1.3759,1.5369,1.5154,1.5629,1.6177,1.6177,1.617,1.6312,1.7052,1.7662,1.8424,1.9531,2.035,2.0915,2.1201,2.1248,2.1168,2.0891,2.143,2.205,2.2471,0.0,2.3475,2.4506,2.3819,2.3413,2.3984,2.4323,2.4643,2.4993,2.5477,2.6126,2.6867,2.536,2.4615,2.5019,2.6235,2.7133,2.7615,2.8315,2.9,2.9663,2.9753,2.9972,3.033,3.0368,3.0495,3.0698,3.0698,3.0811,3.0986,3.0986,3.0986,3.0986,3.0986,3.0986,3.0986,3.0986,3.0986,3.0986,3.0986,3.0986,3.0949,0.0,0.0,0.0,0.0,0.0,0.0,0.0,0.0,0.0,0.0,-0.1312,0.0224,0.0,0.0,0.0,0.0,0.0,0.0,0.0,0.0,0.0,0.0,0.0,0.0,0.0,0.0,0.0,0.0,0.0,0.0,0.0,0.0,0.0,0.0,0.0,0.0,0.0,0.0,0.0,0.0,0.0,0.0,0.0,0.0,0.0,0.0,0.0,0.0,0.0,0.0,1.0415,1.1987,1.2469,1.4149,1.5908,1.5698,1.59,1.617,1.5927,1.5879,1.6021,1.6581,1.6765,1.7189,1.8458,1.9131,0.0,0.0,2.0816,2.1298,2.0732,2.1348,2.1967,2.2246,2.2757,2.3245,2.3368,2.3587,2.3567,0.0,2.3991,2.4529,2.4602,2.5327,2.5853,2.6017,2.5709,2.5796,2.6409,2.6891,2.7522,2.8299,2.8103,2.8303,2.8961,2.9534,2.983,2.9895,3.0228,3.0495,3.0698,3.0698,3.0811,3.0986,3.0986,3.0986,3.0986,3.0986,3.0986,3.0986,3.0986,3.0986,3.0986,3.0986,3.0986,3.0986,0.0,0.0,0.0,0.0,0.0,0.0,0.0,-0.4186,-0.3804,-0.3135,-0.1923,-0.0652,0.0685,0.1264,0.157,0.0,0.0,0.0,0.0,0.0,0.0,0.0,0.0,0.0,0.0,0.2223,0.2405,0.2513,0.0,0.2313,0.2199,0.2064,0.193,0.1794,0.1794,0.0,0.0,0.0,0.0,0.0,0.0,0.0,0.0,0.0,0.0,0.0,0.0,0.0,0.0,0.0,1.0315,1.2021,1.244,1.4216,1.612,1.5886,1.5981,1.6123,1.5879,1.5784,1.592,1.6494,1.6443,1.6715,1.8394,0.0,0.0,0.0,2.0636,2.0945,2.0644,2.1103,0.0,2.1848,2.2413,2.2965,2.326,2.3363,2.3606,2.4078,2.4751,2.5368,2.5883,2.6712,2.7203,2.7203,2.7203,2.7154,2.702,2.7557,2.8167,2.8776,2.8593,2.8791,2.947,2.9702,2.9869,2.9972,3.0152,3.0343,3.0533,3.066,3.0811,3.0986,3.0986,3.0986,3.0986,3.0986,3.0986,3.0986,3.0986,3.0986,3.0986,3.0986,3.0986,3.0986,0.0,0.0,0.0,0.0,0.0,0.0,-0.4466,-0.4728,-0.464,-0.3599,-0.2682,-0.1752,-0.0662,0.0646,0.1407,0.0,0.0,0.0,0.0,0.0,0.0,0.0,0.0,0.0,0.0,0.0,0.0,0.2602,0.2373,0.0,0.0,0.0,0.0,0.0,0.1436,0.1391,0.1391,0.0,0.0,0.0,0.0,0.4954,0.0,0.0,0.0,0.0,0.0,0.0,0.0,0.0,0.9999,1.1578,1.2221,1.4061,1.6028,1.5832,1.5927,1.6076,1.5879,1.5784,1.5927,1.64,1.6255,1.6487,1.8454,1.8642,0.0,2.0234,2.0566,2.0605,2.0527,2.082,2.1163,0.0,2.203,2.2686,2.3347,2.3276,2.3642,0.0,2.552,0.0,2.7103,2.8007,2.851,2.851,2.859,2.8339,2.762,2.8179,2.8697,2.9197,2.9197,2.9482,3.0075,2.9972,3.0011,3.0152,3.0152,3.0267,3.0482,3.0622,3.0811,3.0986,3.0986,3.0986,3.0986,3.0986,3.0986,3.0986,3.0986,3.0986,3.0986,3.0986,3.0986,3.0986,0.0,0.0,0.0,0.0,0.0,0.0,-0.4376,-0.4552,-0.4668,-0.4638,-0.3814,-0.2911,-0.2102,0.0097,0.1412,0.0,0.0,0.0,0.0,0.0,0.0,0.0,0.0,0.0,0.0,0.0,0.0,0.2868,0.2607,0.0,0.0,0.0,0.0,0.0,0.0,0.1391,0.1391,0.1391,0.0,0.0,0.0,0.0,0.0,0.0,0.0,0.0,0.0,0.0,0.0,0.0,0.0,1.0725,1.175,1.3677,1.5588,1.5737,0.0,0.0,1.5832,1.5784,1.5879,1.617,1.5964,1.616,1.8164,0.0,1.8482,2.0029,2.045,2.0527,2.0342,2.0528,2.0801,2.1162,0.0,2.2468,2.3134,2.3373,2.3861,2.4977,0.0,0.0,2.7103,2.8007,2.851,2.851,2.8828,2.9013,2.8934,2.8657,2.8843,2.9626,2.9484,2.9625,3.0113,3.0254,3.0368,3.0368,3.0368,3.0482,3.066,3.0698,3.0811,3.0986,3.0986,3.0986,3.0986,3.0986,3.0986,3.0986,3.0986,3.0986,3.0986,3.0986,3.0986,3.0986,0.0,0.0,0.0,0.0,0.0,0.0,-0.4589,-0.4644,-0.4786,-0.4879,-0.3329,-0.2471,-0.3123,-0.0306,0.1475,0.1116,0.0,0.0,0.0,0.0,0.0,0.0,0.0,0.0,0.0,0.0,0.176,0.2238,0.2149,0.0,0.0,0.0,0.0,0.0,0.0,0.157,0.1391,0.1391,0.0,0.0,0.0,0.0,0.0,0.0,0.0,0.0,0.0,0.0,0.862,0.0,0.0,0.0,1.1336,1.2768,0.0,0.0,1.5691,1.5784,1.5784,1.5784,1.5879,1.613,1.6035,1.6235,1.7533,0.0,1.8516,1.9338,2.0089,2.0527,2.0342,2.045,2.0664,2.0801,0.0,0.0,2.2347,2.2908,2.3837,2.5327,2.5946,2.6705,2.7881,2.8299,2.859,2.8855,2.9013,2.9326,2.9857,2.9457,2.9289,2.9523,2.9703,3.0037,3.047,3.0406,3.0444,3.0571,3.0571,3.0609,3.0698,3.0849,3.0911,3.0986,3.0986,3.0986,3.0986,3.0986,3.0986,3.0986,3.0986,3.0986,3.0986,3.0986,3.0986,3.0986,0.0,0.0,0.0,0.0,0.0,-0.5032,-0.4601,-0.4665,-0.481,-0.4946,-0.3215,-0.2361,-0.3295,-0.0629,0.1167,0.1147,0.1356,0.0,0.0,0.0,0.0,0.0,0.0,0.0,0.0,0.0,0.1596,0.1898,0.2003,0.2148,0.0,0.0,0.2159,0.1902,0.0,0.0,0.0,0.0,0.0,0.0,0.0,0.0,0.0,0.0,0.0,0.0,0.0,0.0,0.0,0.0,0.0,0.0,0.0,0.0,0.0,0.0,1.5498,1.5718,1.5758,1.5784,1.5879,1.613,1.6171,1.6399,0.0,0.0,1.8666,1.9246,2.001,2.0459,2.0342,2.042,2.0566,2.0742,0.0,2.1483,2.2334,2.2734,2.3717,2.5936,2.6257,2.6886,2.8335,2.851,2.8669,2.9052,2.9197,2.9548,3.0165,3.0101,3.0024,2.9883,3.0101,3.0381,3.0761,3.0634,3.0634,3.0811,3.0811,3.0811,3.0811,3.0949,3.0986,3.0986,3.0986,3.0986,3.0986,3.0986,3.0986,3.0986,3.0986,3.0986,3.0986,3.0986,3.0986,3.0986,0.0,0.0,0.0,0.0,0.0,0.0,-0.4422,-0.4589,-0.4736,-0.4774,-0.4005,-0.3138,-0.2233,-0.089,0.0257,0.1112,0.1389,0.0,0.0,0.0,0.0,0.0,0.0,0.0,0.0,0.0,0.1712,0.2176,0.2267,0.2527,0.2999,0.2709,0.2455,0.2173,0.0,0.0,0.0,0.0,0.0,0.0,0.0,0.0,0.8612,0.0,0.0,0.0,0.0,0.0,0.0,0.0,0.0,0.0,0.0,1.1363,1.2266,0.0,1.5259,1.5464,1.5752,1.5784,1.5879,1.613,1.6171,1.6521,0.0,1.8524,1.883,2.0027,2.0303,2.0303,2.0303,2.0303,2.0487,2.1122,2.119,0.0,2.3525,2.3047,2.366,0.0,2.6323,2.6535,2.8299,2.851,2.8669,2.9052,2.9484,2.9704,2.9704,3.0508,3.0986,3.0986,3.0596,3.0596,3.0986,3.0986,3.0986,3.0986,3.0986,3.0986,3.0986,3.0986,3.0986,3.0986,3.0986,3.0986,3.0986,3.0986,3.0986,3.0986,3.0986,3.0986,3.0986,3.0986,3.0986,3.0986,0.0,0.0,0.0,0.0,0.0,0.0,-0.3592,-0.3462,-0.3302,-0.2801,-0.1762,-0.1276,-0.1906,-0.0105,0.0932,0.036,0.1088,0.0,0.0,0.0,0.0,0.0,0.0,0.0,0.0,0.1465,0.1584,0.1701,0.1976,0.2141,0.2236,0.2337,0.2158,0.1711,0.1585,0.148,0.0,0.0,0.0,0.0,0.0,0.8252,0.8612,0.0,0.0,0.0,0.0,0.0,0.0,0.0,0.0,0.0,0.0,0.0,0.0,1.4103,1.4896,1.5378,1.5264,1.5476,1.5716,1.5611,1.5798,1.6129,1.64,1.7514,1.8501,1.8535,1.9569,2.045,2.0342,2.042,2.0674,2.1122,2.119,0.0,0.0,0.0,0.0,2.5661,2.6905,2.8015,2.8975,2.9322,2.9671,3.003,3.0464,3.0675,3.0596,3.0861,3.0874,3.0596,3.071,3.0874,3.0986,3.0986,3.0986,3.0986,3.0986,3.0986,3.0986,3.0986,3.0986,3.0986,3.0986,3.0986,3.0986,3.0986,3.0986,3.0986,3.0986,3.0986,3.0986,3.0986,3.0986,3.0986,0.0,0.0,0.0,0.0,0.0,0.0,-0.31,-0.2638,-0.2261,-0.1794,-0.0685,-0.0249,-0.1089,0.0517,0.1395,0.0628,0.1224,0.0,0.0,0.0,0.0,0.0,0.0,0.0,0.1452,0.1482,0.1519,0.156,0.1888,0.2005,0.2005,0.2213,0.2114,0.1637,0.1512,0.1671,0.0,0.0,0.0,0.0,0.8296,0.8612,0.8612,0.0,0.0,0.0,0.0,0.0,0.0,0.0,0.0,0.0,0.0,0.0,0.0,0.0,1.4513,1.505,1.5118,1.5323,1.5554,1.5549,1.5761,1.603,1.613,0.0,1.8533,1.8334,1.9529,2.0566,2.0459,2.045,2.0635,2.1122,2.1054,2.1419,2.2719,2.3708,2.4798,2.611,2.7602,2.8671,2.9169,2.9475,2.9861,3.0413,3.0726,3.0932,3.0999,3.0986,3.0874,3.0634,3.0874,3.0986,3.0986,3.0986,3.0986,3.0986,3.0986,3.0986,3.0986,3.0986,3.0986,3.0986,3.1099,3.1061,0.0,3.1099,3.1061,3.0986,3.0986,3.0986,3.0986,3.0986,3.0986,3.0986,0.0,0.0,0.0,0.0,0.0,0.0,0.0,-0.2003,-0.1475,-0.1385,-0.0525,0.0099,0.01,0.1009,0.1639,0.1693,0.1676,0.0,0.0,0.0,0.0,0.0,0.0,0.0,0.1483,0.1514,0.1557,0.1613,0.1898,0.207,0.2069,0.2235,0.2173,0.1858,0.1587,0.2147,0.3441,0.5797,0.7492,0.8612,0.8612,0.8612,0.0,0.0,0.0,0.0,0.0,0.0,0.0,0.0,0.0,0.0,0.0,0.0,0.0,0.0,0.0,0.0,0.0,1.5274,1.5421,1.5837,1.5963,1.6184,1.7008,0.0,0.0,1.9246,2.005,2.0644,2.0605,2.0459,2.0527,2.1122,2.0889,2.1541,2.4071,2.4315,2.5171,2.7717,2.8302,2.8681,2.9101,2.9192,2.9532,3.0381,3.0458,3.0648,3.0986,3.0986,3.0986,3.0986,3.0986,3.0986,3.0986,3.0986,3.0986,3.0986,3.0986,3.0986,3.0986,3.0986,3.0986,3.1024,3.1198,3.1161,3.1024,3.1198,3.1161,3.1024,3.1024,3.0986,3.0986,3.0986,3.0986,3.0986,0.0,0.0,0.0,0.0,0.0,0.0,0.0,0.0,0.0,0.0,0.0851,0.1015,0.1184,0.1452,0.1622,0.0,0.0,0.0,0.0,0.0,0.0,0.0,0.0,0.0,0.1183,0.1449,0.1568,0.1582,0.1662,0.1729,0.1727,0.1745,0.1659,0.1381,0.1261,0.2326,0.4372,0.6245,0.7628,0.8612,0.8612,0.8612,0.0,0.0,0.0,0.0,0.8915,0.8955,0.0,0.0,0.0,0.0,0.0,0.0,0.0,0.0,1.4093,1.4287,1.4731,0.0,1.5259,1.5284,1.5439,1.5831,0.0,0.0,0.0,0.0,0.0,0.0,0.0,2.079,2.085,2.1162,2.1103,2.1759,2.369,2.5389,2.6919,2.8241,2.8463,2.8826,2.9628,3.0025,3.0461,3.097,3.1293,3.1329,3.1013,3.0986,3.0986,3.0986,3.0986,3.0986,3.0986,3.0986,3.0986,3.0986,3.0986,3.0986,3.0986,3.0986,3.0986,3.0986,3.1061,3.1123,3.1235,3.1099,3.1123,3.1198,3.1061,3.0986,3.0986,3.0986,3.0986,3.0986,0.0,0.0,0.0,0.0,0.0,0.0,0.0,0.0,0.0,0.0,0.1264,0.1245,0.1549,0.1491,0.142,0.0,0.0,0.0,0.0,0.0,0.0,0.0,0.0,0.1389,0.116,0.1465,0.1634,0.1663,0.163,0.1638,0.1637,0.1621,0.1533,0.1381,0.2444,0.3789,0.539,0.7092,0.812,0.8612,0.8612,0.0,0.0,0.0,0.0,0.0,0.9087,0.9087,0.0,0.9515,1.0598,1.1714,0.0,0.0,0.0,0.0,1.4166,1.4328,1.4615,1.4909,1.5212,1.5327,1.5458,1.5824,1.6887,0.0,0.0,0.0,0.0,0.0,0.0,0.0,2.0908,2.0928,2.1064,2.2039,2.446,2.6173,2.7603,2.8714,2.8814,2.9044,2.975,3.022,3.0662,3.1099,3.1329,3.1313,3.0999,3.0986,3.0986,3.0986,3.0986,3.0986,3.0986,3.0986,3.0986,3.0986,3.0986,3.0986,3.0986,3.0986,3.0986,3.1024,3.1099,3.1161,3.1161,3.1123,3.1161,3.1161,3.1061,3.0986,3.0986,3.0986,3.0986,3.0986,0.0,0.0,0.0,0.0,0.0,0.0,0.0,0.0,0.0,0.0,0.0,0.0,0.0,0.0,0.0,0.0,0.0,0.0,0.0,0.0,0.0,0.0,0.1311,0.1358,0.1134,0.143,0.1604,0.1707,0.1712,0.1714,0.1766,0.1714,0.1714,0.1808,0.4017,0.5411,0.6233,0.7893,0.8612,0.8612,0.8612,0.0,0.0,0.0,0.0,0.0,0.0,0.0,0.0,1.0202,1.1068,1.18,1.2491,0.0,0.0,0.0,0.0,0.0,1.4755,1.5027,1.5249,1.5575,1.5737,1.6076,1.7229,0.0,0.0,0.0,0.0,0.0,0.0,2.0995,0.0,2.0752,2.1322,2.2798,2.5681,2.6842,2.7836,2.9042,2.9135,2.9275,2.9665,3.0114,3.0558,3.0986,3.0986,3.0986,3.0986,3.0986,3.0986,3.0986,3.0986,3.0986,3.0986,3.0986,3.0986,3.0986,3.0986,3.0986,3.0986,3.0986,3.0986,3.1024,3.1161,3.1161,3.1061,3.1198,3.1161,3.1061,3.1024,3.0986,3.0986,3.0986,3.0986,3.0986,0.0,0.0,0.0,0.0,0.0,0.0,0.0,0.0,0.0,0.0,0.0,0.0,0.0,0.0,0.0,0.0,0.0,0.0,0.0,0.0,0.0,0.0554,0.1003,0.1103,0.0855,0.1358,0.1614,0.1624,0.165,0.1817,0.2023,0.1817,0.2066,0.2855,0.431,0.5485,0.6457,0.7981,0.8612,0.8612,0.8612,0.0,0.0,0.0,0.0,0.0,0.0,0.0,0.0,1.0202,1.1068,1.18,1.2491,0.0,0.0,0.0,0.0,0.0,1.5284,1.5536,1.5575,1.5465,1.5839,1.6584,1.808,0.0,0.0,0.0,0.0,0.0,0.0,2.1429,2.156,2.1173,2.306,2.5018,2.6257,2.7524,2.8375,2.8579,2.8916,2.9275,2.9665,3.0114,3.0558,3.0986,3.0986,3.0986,3.0986,3.0986,3.0986,3.0986,3.0986,3.0986,3.0986,3.0986,3.0986,3.0986,3.0986,3.0986,3.0986,3.0986,3.0986,3.0986,3.1024,3.1123,3.1235,3.1099,3.1123,3.1235,3.1061,3.0986,3.0986,3.0986,3.0986,3.0986,0.0,0.0,0.0,0.0,0.0,0.0,0.0,0.0,0.0,0.0,0.0,0.0,0.0,0.0,0.0,0.0,0.0,0.0,0.0,0.0,0.0362,0.0205,0.0559,0.0758,0.0808,0.1236,0.1501,0.1641,0.174,0.1807,0.1893,0.1704,0.2443,0.394,0.4694,0.5865,0.7441,0.8252,0.8612,0.8612,0.0,0.0,0.0,0.0,0.0,0.0,0.0,0.0,0.0,0.0,1.1671,1.2363,1.3179,0.0,0.0,0.0,0.0,0.0,1.5177,1.5749,1.6144,1.6067,1.6764,1.7745,1.8894,1.9701,0.0,0.0,0.0,0.0,0.0,0.0,2.2251,2.2554,2.3618,2.5003,2.6662,2.7411,2.8047,2.8736,2.9197,2.9613,3.0037,3.047,3.0798,3.0986,3.0986,3.0986,3.0986,3.0986,3.0986,3.0986,3.0986,3.0986,3.0986,3.0986,3.0986,3.0986,3.0986,3.0986,3.0986,3.0986,3.0986,3.0986,3.0986,3.1061,3.1123,3.1061,3.1061,3.1123,3.1061,3.0986,3.0986,3.0986,3.0986,3.0986,0.0,0.0,0.0,0.0,0.0,0.0,0.0,0.0,0.0,0.0,0.0,0.0,0.0,0.0,0.0,0.0,0.0,0.0,0.0,0.0,0.0,0.0,0.0204,0.0457,0.0824,0.1153,0.1426,0.1736,0.1781,0.1792,0.1714,0.2076,0.3095,0.4629,0.5146,0.6394,0.8157,0.8476,0.8564,0.852,0.0,0.0,0.0,0.0,0.0,0.0,0.0,0.0,0.0,0.0,0.0,0.0,0.0,0.0,0.0,1.4088,1.437,1.4797,1.5133,1.5784,1.6392,1.6476,1.7219,1.8245,1.9436,2.0387,0.0,0.0,0.0,0.0,0.0,2.2392,2.2897,2.3815,2.4127,2.495,2.6912,2.747,2.7995,2.8973,2.9535,2.9999,3.0355,3.0748,3.0986,3.0986,3.0986,3.0986,3.0986,3.0986,3.0986,3.0986,3.0986,3.0986,3.0986,3.0986,3.0986,3.0986,3.0986,3.0986,3.0986,3.0986,3.0986,3.0986,3.0986,3.0986,3.0986,3.0986,3.0986,3.0986,3.0986,3.0986,3.0986,3.0986,3.0986,3.0986,0.0,0.0,0.0,0.0,0.0,0.0,0.0,0.0,0.0,0.0,0.0,0.0,0.0,0.0,0.0,0.0,0.0,0.0,0.0,0.0,0.0,0.0,0.0,0.031,0.0869,0.1162,0.1479,0.1798,0.1802,0.1803,0.18,0.3314,0.4169,0.4485,0.5918,0.7083,0.7944,0.8388,0.8472,0.8245,0.8245,0.0,0.0,0.0,0.0,0.0,0.0,0.0,0.0,0.0,0.0,0.0,0.0,0.0,1.4088,1.4088,1.437,1.4846,1.5405,1.5657,1.5812,1.6076,1.6358,1.7169,1.9545,1.9666,0.0,2.2676,0.0,0.0,0.0,2.2855,2.3203,2.4299,2.5147,2.6036,2.7051,2.8235,2.9013,2.9091,2.9819,3.0368,3.0406,3.0748,3.0986,3.0986,3.0986,3.0986,3.0986,3.0986,3.0986,3.0986,3.0986,3.0986,3.0986,3.0986,3.0986,3.0986,3.0986,3.0986,3.0986,3.0986,3.0986,3.0986,3.0986,3.0986,3.0986,3.0986,3.0986,3.0986,3.0986,3.0986,3.0986,3.0986,3.0986,3.0986,0.0,0.0,0.0,0.0,0.0,0.0,0.0,0.0,0.0,0.0,0.0,0.0,0.0,0.0,0.0,0.0,0.0,0.0,0.0,0.01,0.0,0.0,0.0,0.0207,0.0655,0.0918,0.1302,0.1778,0.1778,0.1759,0.1775,0.3041,0.4055,0.4895,0.6136,0.7322,0.8344,0.834,0.8292,0.8201,0.8072,0.8288,0.0,0.0,0.0,0.0,0.0,0.0,0.0,0.0,1.3137,1.361,1.3997,1.4088,1.4088,1.4088,1.4282,1.4523,1.4898,1.544,1.5997,1.6286,1.7096,0.0,0.0,2.124,2.2739,2.3782,2.4033,0.0,2.3517,2.314,2.3253,2.4341,2.5242,2.6121,2.7051,2.8315,2.9197,2.9457,3.0011,3.0482,3.0748,3.0911,3.0986,3.0986,3.0986,3.0986,3.0986,3.0986,3.0986,3.0986,3.0986,3.0986,3.0986,3.0986,3.0986,3.0986,3.0986,3.0986,3.0986,3.0986,3.0986,3.0986,3.0986,3.0986,3.0986,3.0986,3.0986,3.0986,3.0986,3.0986,3.0986,3.0986,3.0986,3.0986,0.0,0.0,0.0,0.0,0.0,0.0,0.0,0.0,0.0,0.0,0.0,0.0,0.0,0.0,0.0,0.0,0.0,0.0,0.0246,0.0198,0.01,0.0,0.0,0.0154,0.0488,0.0755,0.1146,0.1683,0.1841,0.2034,0.2254,0.355,0.47,0.5744,0.6859,0.7763,0.8464,0.8268,0.8065,0.7889,0.8201,0.8588,0.0,0.0,0.0,0.0,0.0,0.0,0.0,0.0,1.3483,1.4088,1.4088,1.4088,1.4068,1.4058,1.4234,1.4487,1.4639,1.5216,1.5983,1.6739,0.0,0.0,2.0281,2.2205,2.3892,2.4392,2.4497,2.4368,2.3884,2.347,2.337,2.3943,2.5031,2.6038,2.667,2.8211,2.938,2.9665,3.0228,3.071,3.0986,3.0986,3.0986,3.0986,3.0986,3.0986,3.0986,3.0986,3.0986,3.0986,3.0986,3.0986,3.0986,3.0986,3.0986,3.0986,3.0986,3.0986,3.0986,3.0986,3.0986,3.0986,3.0986,3.0986,3.0986,3.0986,3.0986,3.0986,3.0986,3.0986,3.0986,3.0986,3.0986,3.0986,0.0,0.0,0.0,0.0,0.0,0.0,0.0,0.0,0.0407,0.0414,0.0156,0.0,0.0,0.0,0.0,0.0,0.0,0.0,0.0,0.0241,0.0289,0.0,0.0,0.0151,0.0479,0.0733,0.1066,0.1402,0.193,0.2624,0.3436,0.525,0.643,0.7053,0.8185,0.8521,0.8212,0.8182,0.7801,0.7228,0.8667,0.893,0.8627,0.0,0.0,0.0,0.0,0.0,0.0,0.0,1.3864,1.4082,1.4088,1.4082,1.407,1.394,1.4255,1.4705,1.4851,1.5039,1.5629,0.0,0.0,0.0,2.1738,2.2103,2.2567,2.4183,2.4497,2.4368,2.3884,2.3797,2.3667,2.3178,2.4606,2.5777,2.5819,2.8044,2.9704,2.9704,3.047,3.0986,3.0986,3.0986,3.0986,3.0986,3.0986,3.0986,3.0986,3.0986,3.0986,3.0986,3.0986,3.0986,3.0986,3.0986,3.0986,3.0986,3.0986,3.0986,3.0986,3.0986,3.0986,3.0986,3.0986,3.0986,3.0986,3.0986,3.0986,3.0986,3.0986,3.0986,3.0986,3.0986,3.0986,3.0986,0.0,0.0,0.0,0.0,0.0,0.0,0.0,0.0,0.0101,0.0102,0.0052,0.0,0.0,0.0,0.0,0.0,0.0,0.0,0.0289,0.0191,0.0096,0.0,0.0,0.0049,0.0151,0.0411,0.0895,0.1623,0.2559,0.3129,0.3368,0.5404,0.6406,0.6559,0.7486,0.7958,0.8008,0.848,0.8627,0.8667,0.9749,1.0404,1.0761,0.0,0.0,0.0,0.0,0.0,0.0,0.0,0.0,0.0,1.4021,1.3941,1.3761,1.3715,1.3871,1.4067,1.3991,1.4538,0.0,1.5928,0.0,0.0,0.0,2.2463,0.0,0.0,2.4497,2.4368,2.3884,2.4219,2.4348,2.3701,2.4882,2.608,2.6625,2.8084,2.9342,3.0114,3.0672,3.0986,3.0986,3.0986,3.0986,3.0986,3.0986,3.0986,3.0986,3.0986,3.0986,3.0986,3.0986,3.0986,3.0986,3.0986,3.0986,3.0986,3.0986,3.0986,3.0986,3.0986,3.0986,3.0986,3.0986,3.0986,3.0986,3.0986,3.0986,3.0986,3.0986,3.0986,3.0986,3.0986,3.0986,3.0986,0.0,0.0,0.0,0.0,0.0,0.0,0.0,0.0,0.0,0.0,0.0,0.0,0.0,0.0,0.0,0.0,0.0,0.0,0.0239,0.0188,0.0094,0.0,0.0,0.0098,0.0298,0.0358,0.0984,0.2216,0.2781,0.3558,0.4502,0.5984,0.6894,0.7244,0.7872,0.8339,0.8665,0.9123,0.9437,0.9753,1.0875,1.1531,1.1843,0.0,0.0,0.0,0.0,0.0,0.0,0.0,0.0,0.0,1.3895,1.3746,1.3621,1.3655,1.3772,1.3999,1.4331,1.4884,0.0,1.7108,1.9059,2.0876,2.1899,0.0,0.0,0.0,2.4497,2.4368,2.4024,2.4401,2.4529,2.3884,2.4967,2.6008,2.6389,2.7896,2.916,2.9806,3.0545,3.0986,3.0986,3.0986,3.0986,3.0986,3.0986,3.0986,3.0986,3.0986,3.0986,3.0986,3.0986,3.0986,3.0986,3.0986,3.0986,3.0986,3.0986,3.0986,3.0986,3.0986,3.0986,3.0986,3.0986,3.0986,3.0986,3.0986,3.0986,3.0986,3.0986,3.0986,3.0986,3.0986,3.0986,3.0986,0.0,0.0,0.0373,0.038,0.0,0.0,0.0,0.0,0.0049,0.0,0.0,0.005,0.0,0.0,0.0,0.0,0.0,0.0238,0.0,0.0229,0.0274,0.0,0.0,0.0292,0.0908,0.0666,0.1421,0.3277,0.2893,0.3966,0.6299,0.6829,0.7601,0.8571,0.876,0.9226,0.9771,0.9899,1.0146,1.0616,1.2009,1.24,1.2229,1.3088,0.0,0.0,0.0,0.0,0.0,0.0,0.0,0.0,1.372,1.3606,1.3588,1.371,1.3902,1.4313,1.5247,1.568,0.0,1.9662,2.0624,0.0,2.3939,2.4497,2.4497,2.4497,2.4497,2.4454,2.4249,2.4411,2.4454,2.4013,2.5062,2.5863,2.5695,2.7504,2.8924,2.9042,3.0152,3.0861,3.0861,3.0949,3.0986,3.0986,3.0986,3.0986,3.0986,3.0986,3.0986,3.0986,3.0986,3.0986,3.0986,3.0986,3.0986,3.0986,3.0986,3.0986,3.0986,3.0986,3.0986,3.0986,3.0986,3.0986,3.0986,3.0986,3.0986,3.0986,3.0986,3.0986,3.0986,3.0986,3.0986,3.0986,0.0,0.0,0.0332,0.0143,0.0,0.0,0.0,0.0,0.0,0.005,0.0,0.0,0.0,0.0,0.0,0.0,0.0048,0.0048,0.0,0.0046,0.0045,0.0,0.0,0.0542,0.1711,0.1596,0.2713,0.5176,0.4285,0.4607,0.6104,0.7138,0.7794,0.8117,0.7975,0.8532,0.9623,1.0211,1.1003,1.1986,1.3215,1.3568,1.3349,1.3561,1.3519,0.0,0.0,0.0,0.0,0.0,0.0,0.0,1.3941,1.3674,1.3293,1.3306,1.372,1.4276,1.4641,1.5323,0.0,0.0,2.0634,2.2578,2.4149,2.4497,2.4497,2.4497,2.4497,2.4497,2.4454,2.4914,2.52,2.4946,2.5464,2.6135,2.6734,2.711,2.7626,2.8466,2.9394,2.9986,2.9986,3.0583,3.0986,3.0986,3.0986,3.0986,3.0986,3.0986,3.0986,3.0986,3.0986,3.0986,3.0986,3.0986,3.0986,3.0986,3.0986,3.0986,3.0986,3.0986,3.0986,3.0986,3.0986,3.0986,3.0986,3.0986,3.0986,3.0986,3.0986,3.0986,3.0986,3.0986,3.0986,3.0986,0.0,0.0,0.0,0.0,0.0,0.0,0.0,0.0,0.0,0.0,0.0,0.0,0.0,0.0,0.0,0.0,0.0475,0.0704,0.0845,0.1186,0.1409,0.145,0.1509,0.1937,0.2829,0.2655,0.3633,0.5797,0.509,0.5443,0.6691,0.7326,0.77,0.7859,0.7887,0.884,1.0369,1.0867,1.189,1.3209,1.3864,1.3917,1.366,1.366,1.345,1.3181,1.3316,0.0,0.0,0.0,0.0,0.0,0.0,0.0,1.3061,1.315,1.3271,1.3634,1.4624,0.0,0.0,1.9197,0.0,2.3667,2.4349,2.4497,2.4497,2.4497,2.4497,2.4583,2.4786,2.5115,2.5369,2.5369,2.5675,2.6021,2.6373,2.6764,2.7203,2.7758,2.8951,2.9704,2.9704,3.0508,3.0986,3.0986,3.0986,3.0986,3.0986,3.0986,3.0986,3.0986,3.0986,3.0986,3.0986,3.0986,3.0986,3.0986,3.0986,3.0986,3.0986,3.0986,3.0986,3.0986,3.0986,3.0986,3.0986,3.0986,3.0986,3.0986,3.0986,3.0986,3.0986,3.0986,3.0986,3.0986,0.0,0.0,0.0,0.0,0.0,0.0,0.0,0.0,0.0,0.0,0.0,0.0,0.0,0.0,0.0901,0.0,0.0,0.0,0.1985,0.2544,0.2929,0.2989,0.3089,0.3421,0.4058,0.3834,0.4474,0.6084,0.5828,0.6287,0.7415,0.7373,0.7461,0.7734,0.8232,0.9492,1.1305,1.1623,1.2651,1.4008,1.4008,1.3834,1.3527,1.3527,1.33,1.2962,1.3197,1.3282,1.3328,1.3567,0.0,0.0,0.0,0.0,1.2851,1.2948,1.288,1.3077,1.4729,0.0,1.7245,2.0391,2.2836,0.0,2.4497,2.4497,2.4497,2.4497,2.4497,2.4658,2.5158,2.5242,2.5327,2.558,2.5843,2.5937,2.5686,2.6456,2.7021,2.6981,2.8319,2.9303,2.9459,3.0266,3.0823,3.0986,3.0986,3.0986,3.0986,3.0986,3.0986,3.0986,3.0986,3.0986,3.0986,3.0986,3.0986,3.0986,3.0986,3.0986,3.0986,3.0986,3.0986,3.0986,3.0986,3.0986,3.0986,3.0986,3.0986,3.0986,3.0986,3.0986,3.0986,3.0986,3.0986,3.0986,0.0,0.0,0.0,0.0,0.0,0.0,0.0,0.0,0.0,0.0,0.1258,0.1721,0.0,0.2392,0.3011,0.2593,0.2632,0.2721,0.2767,0.0,0.0,0.2991,0.2962,0.3663,0.5132,0.4915,0.5555,0.7187,0.6966,0.7058,0.7415,0.7145,0.7328,0.7822,0.8647,0.9944,1.1606,1.2282,1.2982,1.366,1.366,1.3487,1.3267,1.3267,1.3207,1.3174,1.3214,1.3227,1.3234,1.3315,1.3209,0.0,0.0,0.0,1.2556,1.2555,1.2923,1.3497,0.0,0.0,2.0147,0.0,2.2836,2.4497,0.0,0.0,2.4497,2.4497,2.4497,2.4711,2.5327,2.5454,2.5622,2.6021,2.6313,2.6354,2.5937,2.6146,2.6271,2.6104,2.694,2.781,2.8505,2.9342,3.019,3.0936,3.0986,3.0986,3.0986,3.0986,3.0986,3.0986,3.0986,3.0986,3.0986,3.0986,3.0986,3.0986,3.0986,3.0986,3.0986,3.0986,3.0986,3.0986,3.0986,3.0986,3.0986,3.0986,3.0986,3.0986,3.0986,3.0986,3.0986,3.0986,3.0986,3.0986,0.0,0.0,0.0,0.0,0.0,0.0,0.0,0.0,0.0,0.0,0.0,0.276,0.0,0.3076,0.3537,0.3309,0.3671,0.4123,0.4667,0.4765,0.4767,0.4623,0.4675,0.5124,0.6056,0.586,0.6233,0.7241,0.7043,0.691,0.6837,0.6975,0.7379,0.8007,0.8966,1.0148,1.1467,1.2361,1.3058,1.36,1.36,1.3427,1.3193,1.3019,1.2991,1.2991,1.2991,1.2991,1.2993,1.318,1.3154,1.3041,1.2916,0.0,0.0,0.0,1.2505,1.29,1.4142,1.7289,2.0287,0.0,2.2617,2.4368,2.4454,2.4497,2.4497,2.4497,2.4497,2.4668,2.5242,2.5411,2.5622,2.5979,2.6229,2.6271,2.5937,2.599,2.5979,2.5895,2.6663,2.7336,2.7689,2.8912,2.9858,3.0216,3.0697,3.0986,3.0986,3.0986,3.0986,3.0986,3.0986,3.0986,3.0986,3.0986,3.0986,3.0986,3.0986,3.0986,3.0986,3.0986,3.0986,3.0986,3.0986,3.0986,3.0986,3.0986,3.0986,3.0986,3.0986,3.0986,3.0986,3.0986,3.0986,3.0936,0.0,0.0,0.0,0.0,0.0,0.0,0.0,0.0,0.0,0.0,0.0,0.0,0.0,0.0,0.0,0.0,0.4825,0.5408,0.6038,0.6262,0.6193,0.5901,0.6007,0.6244,0.6502,0.6335,0.6493,0.701,0.6792,0.6675,0.6662,0.7023,0.7667,0.8503,0.9504,1.0589,1.1714,1.2662,1.3236,1.3493,1.3493,1.3353,1.3073,1.2958,1.2851,1.2784,1.2784,1.2737,1.2717,1.2915,1.2968,1.2875,1.2684,1.2515,0.0,0.0,0.0,0.0,0.0,0.0,1.939,2.0108,2.2094,2.3915,0.0,2.4454,2.4497,2.4497,2.4497,2.4625,2.5031,2.5369,2.5717,2.6021,2.6229,2.6282,2.5948,2.5937,2.5948,2.5906,2.6456,2.694,2.7185,2.8331,2.9225,2.9665,3.0305,3.0785,3.0986,3.0986,3.0986,3.0986,3.0986,3.0986,3.0986,3.0986,3.0986,3.0986,3.0986,3.0986,3.0986,3.0986,3.0986,3.0986,3.0986,3.0986,3.0986,3.0949,3.0949,3.0986,3.071,3.0748,3.0949,3.0495,3.047,3.0545,0.0,0.0,0.0,0.0,0.0,0.0,0.0,0.0,0.0,0.0,0.0,0.0,0.4878,0.5925,0.6523,0.6296,0.6296,0.6254,0.6127,0.6308,0.623,0.5899,0.6026,0.0,0.6322,0.6203,0.6355,0.6836,0.6567,0.6722,0.7356,0.7426,0.8193,0.9485,1.0488,1.1559,1.2705,1.361,1.3713,1.3233,1.3233,1.3046,1.2837,1.308,1.3006,1.2784,1.2784,1.2603,1.2334,1.2419,1.2252,1.2057,1.2101,1.2106,1.2022,0.0,0.0,0.0,0.0,1.5582,0.0,1.9236,2.114,2.2948,2.3965,2.4368,2.4497,2.4497,2.4497,2.4583,2.4861,2.5422,2.6021,2.6479,2.6727,2.6644,2.599,2.6063,2.6115,2.5937,2.5937,2.6302,2.7103,2.7267,2.7971,2.9588,2.9742,3.0139,3.0949,3.0986,3.0986,3.0986,3.0986,3.0986,3.0986,3.0986,3.0986,3.0986,3.0986,3.0986,3.0986,3.0986,3.0986,3.0986,3.0986,3.0986,3.0986,3.0811,3.0849,3.0911,2.9883,3.0088,3.0785,2.9147,2.9057,2.9653,0.0,0.0,0.0,0.0,0.0,0.0,0.0,0.0,0.0,0.0,0.0,0.0,0.0,0.6418,0.6748,0.6659,0.6786,0.6741,0.6571,0.6615,0.6545,0.6233,0.615,0.6192,0.637,0.6019,0.6083,0.6523,0.6302,0.6415,0.6774,0.7867,0.8964,1.0041,1.0829,1.1743,1.2735,1.3458,1.3533,1.3193,1.2993,1.3005,1.3013,1.2732,1.2799,1.2993,1.2605,1.2392,1.2318,1.232,1.228,1.2207,1.2208,1.2206,1.2194,0.0,0.0,0.0,0.0,0.0,0.0,1.8144,2.0058,2.1906,2.2938,2.3758,2.4325,2.4454,2.4497,2.4668,2.52,2.5496,2.5717,2.5937,2.6229,2.6313,2.5937,2.5948,2.599,2.5895,2.5895,2.6021,2.6343,2.6857,2.7458,2.8051,2.8557,2.8978,2.9303,2.9858,3.0177,3.0177,3.0697,3.0986,3.0986,3.0986,3.0986,3.0986,3.0986,3.0986,3.0986,3.0986,3.0986,3.0986,3.0419,3.0177,3.0139,3.0075,2.9793,2.9303,2.8912,2.8991,2.9264,2.8624,2.8585,2.8743,0.0,0.0,0.0,0.2551,0.0,0.4352,0.3972,0.498,0.5628,0.5317,0.0,0.0,0.0,0.0,0.6659,0.6659,0.6789,0.6786,0.6659,0.6748,0.6659,0.6299,0.6257,0.6169,0.6169,0.5863,0.5885,0.6233,0.6104,0.6212,0.6514,0.7975,0.9255,1.0314,1.1127,1.2114,1.3209,1.3583,1.3567,1.318,1.2911,1.2911,1.3033,1.2826,1.2879,1.3019,1.2712,1.2478,1.2305,1.2305,1.2305,1.2305,1.2305,1.2305,1.2305,0.0,0.0,0.0,1.3383,0.0,0.0,0.0,1.864,2.0296,2.1876,2.2735,2.3392,2.4233,2.4288,2.4438,2.5337,2.5454,2.5496,2.577,2.6032,2.6115,2.5937,2.5895,2.5895,2.5895,2.5895,2.5895,2.5895,2.6426,2.6899,2.7185,2.7689,2.8119,2.8386,2.8939,2.9381,2.9704,3.0545,3.0986,3.0986,3.0986,3.0986,3.0986,3.0697,3.0545,3.0545,3.0266,3.0139,3.0101,2.9498,2.942,2.9665,2.9316,2.8873,2.8386,2.8039,2.8119,2.8347,2.7758,2.7758,2.7879,0.1753,0.1982,0.2397,0.3955,0.468,0.5156,0.5385,0.5972,0.6428,0.6384,0.0,0.0,0.0,0.0,0.0,0.639,0.6387,0.6384,0.6381,0.665,0.6564,0.6121,0.6293,0.6166,0.5733,0.5688,0.5758,0.5889,0.5889,0.6208,0.674,0.7757,0.8982,1.0369,1.1393,1.266,1.4062,1.4048,1.3721,1.318,1.2904,1.2822,1.2909,1.34,1.33,1.2882,1.3146,1.2832,1.2325,1.2325,1.2325,1.2311,1.2305,1.2305,0.0,0.0,0.0,0.0,0.0,0.0,0.0,0.0,1.6845,1.8096,2.0846,2.1282,2.1634,2.371,2.3756,2.3866,2.5209,2.5306,2.5401,2.6063,2.6199,2.6115,2.5948,2.5895,2.5895,2.5895,2.5895,2.5895,2.5895,2.5895,2.626,2.7103,2.7144,2.7499,2.8267,2.8386,2.8782,2.9665,3.0545,3.0986,3.0986,3.0986,3.0949,3.0949,3.0063,2.9665,2.9626,2.8782,2.8386,2.8386,2.8386,2.8821,2.9549,2.849,2.8171,2.8227,2.7237,2.747,2.8108,2.6498,2.6426,2.7021,0.2461,0.3698,0.4619,0.4742,0.5844,0.6645,0.646,0.6548,0.6612,0.0,0.0,0.0,0.6384,0.6384,0.6424,0.6524,0.6442,0.6392,0.6344,0.6381,0.6384,0.6254,0.6118,0.6028,0.5994,0.5777,0.5758,0.5889,0.5889,0.6453,0.7585,0.8687,0.9908,1.1215,1.2519,1.3251,1.344,1.3253,1.3192,1.3166,1.2639,1.3182,1.4255,1.3822,1.3924,1.427,1.4016,1.3517,1.2959,1.2959,1.2812,1.2623,1.2371,1.2305,0.0,0.0,0.0,0.0,1.29,0.0,0.0,0.0,0.0,0.0,1.8499,1.9573,2.0558,2.2024,2.2339,2.2767,2.4085,2.4576,2.5025,2.5841,2.5979,2.6021,2.6104,2.599,2.5895,2.5895,2.5895,2.5895,2.5895,2.5895,2.6021,2.6218,2.626,2.6385,2.6569,2.7758,2.8782,2.9665,3.0545,3.0986,3.0986,3.0381,3.0063,3.0063,2.9186,2.8743,2.8743,2.8505,2.8386,2.8386,2.7758,2.7649,2.7851,2.758,2.7103,2.6569,2.6302,2.6343,2.6539,2.6052,2.6063,2.6218,0.3558,0.4526,0.5322,0.5629,0.6494,0.7068,0.6853,0.6795,0.6704,0.0,0.0,0.0,0.6124,0.6124,0.6156,0.6232,0.6296,0.6275,0.6156,0.6357,0.6326,0.6075,0.612,0.614,0.6002,0.601,0.5993,0.5939,0.6023,0.6667,0.7884,0.896,1.0147,1.1376,1.2531,1.2954,1.2819,1.2677,1.2777,1.3025,1.2928,1.3473,1.4416,1.4578,1.4846,1.5095,1.4648,1.4159,1.3673,1.3325,1.3006,1.2768,1.251,1.2378,1.2342,1.2489,0.0,0.0,0.0,0.0,0.0,1.4231,0.0,0.0,1.7678,1.8538,1.9451,2.1541,2.2048,2.2483,2.3524,2.4083,2.4718,2.5752,2.5725,2.5749,2.6124,2.6032,2.5895,2.5895,2.5895,2.5895,2.5895,2.5895,2.5895,2.5895,2.5895,2.5895,2.5895,2.7162,2.8279,2.9147,2.9986,3.047,3.047,2.9935,2.9498,2.9147,2.8319,2.7879,2.7879,2.7516,2.7366,2.7325,2.6857,2.6622,2.6539,2.6622,2.6343,2.5895,2.5895,2.5895,2.5895,2.5895,2.5895,2.5895,0.0,0.4979,0.5329,0.6524,0.6831,0.6884,0.6836,0.6836,0.6748,0.0,0.6213,0.6088,0.5883,0.5872,0.5872,0.5886,0.6107,0.6187,0.5955,0.638,0.6347,0.5729,0.621,0.6324,0.5909,0.6194,0.6304,0.6134,0.6344,0.7006,0.8105,0.9021,1.0088,1.126,1.1966,1.2305,1.2305,1.2409,1.2621,1.2974,1.3492,1.3793,1.4114,1.5481,1.5874,1.5677,1.53,1.4899,1.442,1.3577,1.3112,1.2901,1.2719,1.2536,1.2456,1.2797,1.3046,0.0,0.0,0.0,0.0,1.4231,1.4287,0.0,1.7531,1.7855,1.8459,2.1351,2.2029,2.2312,2.3087,2.3573,2.4266,2.5418,2.5374,2.5461,2.6163,2.6063,2.5895,2.5937,2.5895,2.5895,2.5895,2.5895,2.5895,2.5895,2.5895,2.5895,2.5895,2.6745,2.7539,2.8227,2.9108,2.9549,2.9549,2.9459,2.903,2.8267,2.7447,2.7062,2.7021,2.626,2.5895,2.5895,2.5895,2.5822,2.5654,2.5822,2.5906,2.5853,2.5906,2.5895,2.5895,2.5895,2.5895,2.5895,0.5655,0.6135,0.6519,0.6964,0.7211,0.7282,0.7054,0.7228,0.7095,0.6257,0.6254,0.6519,0.695,0.6904,0.6879,0.6999,0.6853,0.6649,0.6328,0.6232,0.6075,0.5788,0.5894,0.5958,0.5987,0.6056,0.6402,0.7031,0.7228,0.8256,0.9991,1.0335,1.1056,1.2077,1.2224,1.2305,1.2335,1.2989,1.3505,1.3847,1.3757,1.4406,1.5567,1.6403,1.6827,1.704,1.6944,1.6075,1.486,1.4116,1.383,1.3687,1.3178,1.2962,1.2952,1.2896,1.3046,1.3273,0.0,0.0,1.4109,1.4149,1.4843,0.0,1.5584,1.6718,1.7879,1.8383,1.8937,1.9765,2.1148,2.1896,2.2702,2.3796,2.4659,2.5584,2.6618,2.6282,2.5948,2.6104,2.5979,2.5895,2.5895,2.5895,2.5895,2.5895,2.5895,2.5895,2.5895,2.6745,2.7255,2.7418,2.8239,2.8664,2.8664,2.7999,2.762,2.7418,2.658,2.6135,2.6146,2.5979,2.5895,2.5895,2.5895,2.5895,2.5853,2.5895,2.5812,2.5686,2.5853,2.5895,2.5895,2.5895,2.5895,2.5895,0.6121,0.6435,0.6656,0.6925,0.7058,0.719,0.7272,0.7312,0.718,0.683,0.6786,0.6856,0.7158,0.7576,0.7746,0.7577,0.799,0.7804,0.6783,0.6835,0.6556,0.5732,0.6075,0.6428,0.6702,0.698,0.7426,0.8088,0.8282,0.9111,1.049,1.0708,1.1354,1.2305,1.2305,1.2305,1.2328,1.2934,1.3323,1.3594,1.4591,1.5636,1.6689,1.7514,1.798,1.8135,1.7804,1.6911,1.5775,1.5078,1.4979,1.5073,1.46,1.4138,1.383,1.4037,1.3837,1.3615,1.39,1.4137,1.4356,1.4454,1.5098,0.0,0.0,1.6988,1.8126,1.8156,1.8912,1.9707,2.0302,2.112,2.1942,2.2738,2.3769,2.474,2.5455,2.5672,2.5822,2.6032,2.5853,2.577,2.5906,2.5895,2.5895,2.5895,2.5895,2.5895,2.5895,2.6302,2.6745,2.7185,2.7609,2.7799,2.7799,2.7418,2.6981,2.6539,2.6104,2.5895,2.5895,2.5895,2.5895,2.5895,2.5895,2.5853,2.577,2.5864,2.577,2.5612,2.5812,2.5895,2.5895,2.5895,2.5895,2.5895,0.6428,0.6476,0.6567,0.6881,0.6972,0.7143,0.7445,0.7448,0.7536,0.7929,0.7735,0.7709,0.7974,0.8668,0.9,0.8596,0.9377,0.9225,0.7749,0.8008,0.7662,0.6367,0.6917,0.7418,0.7687,0.815,0.8586,0.9096,0.932,0.986,1.0644,1.0904,1.1464,1.2218,1.2218,1.2245,1.2358,1.2877,1.3238,1.3611,1.5663,1.6619,1.6928,1.8101,1.858,1.8628,1.8123,1.7472,1.6822,1.6181,1.6173,1.6412,1.6078,1.5569,1.5111,1.5326,1.5028,1.4621,1.4647,1.4868,1.5106,1.5323,1.5705,1.6124,0.0,0.0,0.0,1.8579,1.9389,2.0042,1.9807,2.0487,2.1247,2.1732,2.2657,2.3445,2.3677,2.4478,2.5225,2.5701,2.5545,2.5504,2.5853,2.5819,2.5797,2.5895,2.5819,2.5797,2.5895,2.5895,2.6218,2.694,2.694,2.694,2.694,2.694,2.658,2.5895,2.5895,2.5895,2.5895,2.5895,2.5895,2.5895,2.5895,2.5812,2.5686,2.5812,2.5812,2.5686,2.5853,2.5895,2.5895,2.5895,2.5895,2.5895,0.6722,0.6748,0.6881,0.7326,0.7635,0.772,0.7533,0.8028,0.8736,0.951,0.9478,0.9893,1.1146,1.1368,1.1402,1.1331,1.1049,1.0568,0.9979,0.9829,0.9498,0.8889,0.898,0.8956,0.8808,0.887,0.9214,0.9803,1.0159,1.067,1.123,1.1589,1.1846,1.1953,1.1953,1.2094,1.2352,1.3437,1.4489,1.5573,1.6666,1.6305,1.5278,1.7174,1.7796,1.7667,1.7704,1.7651,1.7521,1.7025,1.7017,1.7089,1.6633,1.6824,1.6951,1.6029,1.6422,1.7101,1.6764,1.6698,1.6808,1.7108,1.7515,1.7633,1.7006,0.0,1.9068,1.8021,0.0,1.8847,1.9198,0.0,0.0,2.0262,2.1141,2.1844,2.2053,2.2681,2.3668,2.5112,2.4871,2.495,2.5821,2.5513,2.5437,2.5874,2.5491,2.5448,2.5884,2.5895,2.5948,2.6021,2.6063,2.6063,2.6063,2.6063,2.6021,2.5895,2.5895,2.5895,2.5895,2.5895,2.5895,2.5895,2.5895,2.5906,2.5853,2.5906,2.5906,2.5853,2.5906,2.5895,2.5895,2.5895,2.5895,2.5895,0.686,0.6913,0.7102,0.7459,0.7595,0.772,0.7889,0.8727,0.9471,0.9859,1.0445,1.102,1.1472,1.212,1.2359,1.1969,1.2182,1.1834,1.0711,1.0589,0.0,0.9344,0.941,0.9593,0.9857,0.9845,1.0112,1.0705,1.0791,1.1058,1.1472,1.165,1.1814,1.1972,1.1972,1.2425,1.3198,1.3767,1.4566,1.5499,1.635,1.612,1.5564,1.7701,1.8536,1.8533,1.862,1.8625,1.8541,1.8123,1.8184,1.8417,1.8243,1.8057,1.79,1.763,1.7546,1.7476,1.7238,1.7015,1.6942,1.754,1.767,1.7606,1.7258,1.8256,1.8965,1.7915,0.0,0.0,0.0,0.0,0.0,0.0,2.0612,2.1167,2.0874,2.1631,2.278,2.4218,2.3969,2.4052,2.4992,2.4998,2.5196,2.5695,2.5406,2.5341,2.5706,2.5853,2.5895,2.5895,2.5895,2.5895,2.5895,2.5895,2.5895,2.5895,2.5895,2.5895,2.5895,2.5895,2.5895,2.5895,2.5895,2.5895,2.5895,2.5895,2.5895,2.5895,2.5895,2.5895,2.5895,2.5895,2.5895,2.5895,0.6951,0.7004,0.7165,0.7472,0.7526,0.78,0.854,0.9243,0.9943,1.0577,1.1445,1.2092,1.2371,1.3114,1.347,1.3032,1.3455,1.3171,1.1836,1.1615,1.115,1.0312,1.031,1.0533,1.0901,1.0773,1.0935,1.1293,1.1118,1.1155,1.1391,1.1397,1.1537,1.1774,1.1853,1.256,1.3754,1.406,1.4825,1.5928,1.6532,1.6762,1.6844,1.8214,1.8961,1.9301,1.9301,1.9301,1.9256,1.8971,1.9141,1.9453,1.9408,1.9219,1.9012,1.8935,1.8736,1.8422,1.8096,1.7805,1.7693,1.8295,1.8118,1.7839,1.7854,1.8601,1.9124,1.8552,1.8992,0.0,0.0,0.0,2.0032,1.9776,0.0,2.07,2.0022,2.0715,2.173,2.3066,2.3186,2.3448,2.405,2.4255,2.4605,2.527,2.5005,2.4981,2.5375,2.5663,2.5799,2.571,2.583,2.5895,2.5895,2.5895,2.5895,2.5895,2.5895,2.5895,2.5895,2.5895,2.5895,2.5895,2.5895,2.5895,2.5895,2.5895,2.5895,2.5895,2.5895,2.5895,2.5895,2.5895,2.5895,2.5895,0.7049,0.7056,0.7128,0.7538,0.7606,0.8092,0.9609,0.9475,1.0058,1.2292,1.2656,1.333,1.4976,1.5215,1.5304,1.5578,1.5124,1.4562,1.392,1.3427,1.3014,1.2707,1.2377,1.2114,1.1966,1.1686,1.1472,1.1293,1.1055,1.0886,1.0817,1.0893,1.1002,1.1153,1.1468,1.2362,1.3637,1.4314,1.5729,1.754,1.7911,1.8513,1.9109,1.8383,1.8641,1.9301,1.9301,1.9301,1.9301,1.9283,1.9529,1.9863,1.9666,2.0137,2.0615,1.9608,2.0157,2.0895,2.0071,1.9827,1.9822,1.9985,1.9439,1.8889,1.9022,1.9427,1.9896,2.025,2.0695,2.1186,2.1631,2.1725,2.1445,0.0,2.0395,0.0,0.0,1.9706,2.0337,2.1611,2.2713,2.3309,2.3175,2.3147,2.3541,2.4486,2.4094,2.4121,2.4775,2.5301,2.548,2.5248,2.5655,2.5895,2.5895,2.5895,2.5895,2.5895,2.5895,2.5895,2.5895,2.5895,2.5895,2.5895,2.5895,2.5895,2.5895,2.5895,2.5895,2.5895,2.5895,2.5895,2.5895,2.5895,2.5895,2.5895,0.8524,0.8307,0.7978,0.816,0.8346,0.8866,1.0046,1.0632,1.1362,1.2547,1.3512,1.4417,1.5226,1.5569,1.5658,1.5435,1.525,1.4934,1.4282,1.3777,1.34,1.328,1.264,1.2354,1.2516,1.2045,1.16,1.1229,1.091,1.0797,1.0873,1.056,1.0666,1.1047,1.1284,1.2523,1.4399,1.4812,1.6129,1.7925,1.8062,1.8595,1.9274,1.9008,1.9072,1.9301,1.9301,1.9301,1.9301,1.9429,1.9597,1.9754,1.999,2.0274,2.0469,2.0216,2.045,2.0722,2.043,2.0031,1.9781,2.0078,1.9446,1.8785,1.9113,1.9649,2.0088,2.0232,2.0978,2.1621,2.1776,2.1807,0.0,0.0,0.0,2.0581,0.0,1.9567,1.9779,2.0676,2.1808,2.2365,2.1932,2.2638,2.337,2.4068,2.3902,2.4019,2.4589,2.507,2.5239,2.5022,2.5301,2.5591,2.5895,2.578,2.5686,2.5686,2.5853,2.5822,2.5696,2.5853,2.5895,2.5895,2.5895,2.5895,2.5895,2.5895,2.5895,2.5895,2.5895,2.5895,2.5895,2.5895,2.5895,2.5895,0.9496,0.9291,0.8981,0.9094,0.9245,0.9712,1.075,1.1456,1.2223,1.3224,1.4197,1.501,1.5525,1.5871,1.5922,1.5594,1.5503,1.5164,1.4446,1.4019,1.3621,1.3286,1.2787,1.2513,1.2561,1.2094,1.1634,1.1242,1.0848,1.0753,0.0,0.0,0.0,0.0,1.1278,1.2649,1.4694,1.5184,1.6598,1.8435,1.8502,1.8843,1.9301,1.9301,1.9301,1.9301,1.9301,1.9381,1.9548,1.9666,1.9833,2.0029,2.0294,2.0275,2.0217,2.0518,2.0488,2.041,2.0556,2.0284,1.9984,2.0162,1.9679,1.9201,1.9368,1.999,2.0585,2.0737,2.1594,2.2386,2.259,2.2527,2.2218,0.0,0.0,0.0,0.0,1.9295,1.9356,1.9963,2.0868,2.1453,2.1428,2.1924,2.2575,2.334,2.3374,2.3564,2.411,2.4818,2.5113,2.4848,2.5175,2.5464,2.577,2.5644,2.5601,2.5601,2.5812,2.5822,2.5696,2.5853,2.5895,2.5895,2.5895,2.5895,2.5895,2.5895,2.5895,2.5895,2.5895,2.5895,2.5895,2.5895,2.5895,2.5895,1.0014,1.0019,1.0095,1.0279,1.0278,1.0639,1.1688,1.1982,1.2622,1.4288,1.4721,1.5235,1.6032,1.6148,1.62,1.6102,1.5932,1.5417,1.4521,1.4255,1.3791,1.3021,1.2928,1.266,1.2157,1.1866,1.1574,1.1312,1.0816,1.074,0.0,0.0,0.0,0.0,1.1397,1.272,1.4482,1.5423,1.7049,1.9002,1.9222,1.9301,1.9301,1.9301,1.9301,1.9301,1.9341,1.9578,1.9902,1.9942,2.0255,2.0605,2.0605,2.0321,2.0029,2.0478,2.0273,2.0039,2.0488,2.0605,2.0546,2.0305,2.0224,2.0133,1.9853,2.0507,2.1277,2.1699,2.2512,2.3392,2.399,2.3725,2.3237,0.0,0.0,0.0,1.9323,1.8959,1.9039,1.9539,1.9975,2.0591,2.1509,2.1043,2.1199,2.2364,2.2428,2.2725,2.3475,2.4533,2.5018,2.4785,2.5301,2.5559,2.5559,2.5559,2.5559,2.5559,2.577,2.5906,2.5906,2.5895,2.5895,2.5895,2.5895,2.5895,2.5895,2.5895,2.5895,2.5895,2.5895,2.5895,2.5895,2.5895,2.5895,2.5895,1.1446,1.1865,1.2005,1.1796,1.1771,1.1948,1.2466,1.2739,1.3212,1.4092,1.4776,1.5462,1.608,1.6376,1.6423,1.6195,1.6108,1.591,1.54,1.499,1.4576,1.411,1.3513,1.3048,1.2775,1.2252,1.1784,1.1378,1.0833,1.0676,1.0743,0.0,0.0,0.0,0.0,1.3001,1.4772,1.5906,1.739,1.9002,1.9222,1.9301,1.9301,1.9301,1.939,1.9557,1.9706,1.9824,1.9981,2.0479,2.0712,2.0828,2.0819,2.075,2.0632,2.0615,2.0614,2.0681,2.0789,2.0819,2.0799,2.0729,2.0366,1.9968,1.9887,2.0442,2.1022,2.1093,2.221,2.3068,2.2575,2.2676,2.2534,0.0,0.0,0.0,1.9935,1.9557,1.939,1.9592,1.9589,1.9714,2.0092,2.0599,2.1163,2.1696,2.1589,2.205,2.3444,2.3768,2.4081,2.4354,2.484,2.5168,2.5285,2.5168,2.5168,2.5295,2.5559,2.5696,2.5696,2.5822,2.5895,2.5895,2.5895,2.5895,2.5895,2.5895,2.5895,2.5895,2.5895,2.5895,2.5895,2.5895,2.5895,2.5895,1.214,1.2438,1.2585,1.2565,1.2548,1.2589,1.2757,1.2889,1.3173,1.3828,1.4669,1.5289,1.5642,1.61,1.6312,1.6076,1.6028,1.5846,1.542,1.5147,1.4732,1.417,1.363,1.3188,1.2861,1.2313,1.1842,1.1444,1.0906,1.0645,1.0707,0.0,0.0,0.0,0.0,1.3053,1.4648,1.6493,1.7884,1.8906,1.9198,1.9301,0.0,1.939,1.9557,1.9794,2.0177,2.0323,2.0401,2.0876,2.1069,2.1146,2.1167,2.0959,2.0773,2.0827,2.0834,2.0821,2.0962,2.1022,2.1022,2.1022,2.067,2.0329,2.0329,2.0702,2.1046,2.1046,2.1877,2.2506,2.211,2.193,2.1529,2.0491,2.0192,1.994,1.9589,1.9452,1.9466,1.9581,1.9572,1.9572,1.9605,1.9993,2.0481,2.0989,2.1084,2.1576,2.2689,2.3247,2.3727,2.4189,2.4451,2.4756,2.5073,2.4946,2.4946,2.5073,2.5295,2.5475,2.5601,2.5728,2.5822,2.5895,2.5895,2.5895,2.5895,2.5895,2.5895,2.5895,2.5895,2.5895,2.5895,2.5895,2.5895,2.5895,1.2344,1.2354,1.249,1.2778,1.2816,1.2806,1.2806,1.2818,1.3063,1.3707,1.4546,1.5095,1.5095,1.571,1.6028,1.5825,1.5784,1.5598,1.5102,1.5068,1.4668,1.3815,1.3619,1.3279,1.2794,1.2239,1.1851,1.1582,1.1003,1.0683,0.0,0.0,0.0,0.0,0.0,0.0,0.0,1.7044,1.8276,1.8713,1.9146,1.9301,1.9341,1.9518,1.9754,2.0059,2.0673,2.0905,2.0982,2.1195,2.1397,2.154,2.1502,2.1133,2.0797,2.1104,2.0982,2.0807,2.1143,2.1244,2.1244,2.1244,2.1089,2.0945,2.0906,2.1046,2.1152,2.1152,2.1494,2.185,2.1885,2.1283,2.042,1.9399,1.9379,1.9418,1.9056,1.9259,1.9475,1.9645,1.9833,0.0,1.9583,1.9417,1.9596,2.0276,2.0648,2.1155,2.1859,2.2739,2.3559,2.4273,2.4241,2.442,2.4903,2.4871,2.4871,2.4903,2.5115,2.5338,2.5601,2.5644,2.5728,2.5895,2.5895,2.5895,2.5895,2.5895,2.5895,2.5895,2.5895,2.5895,2.5895,2.5895,2.5895,2.5895,1.2349,1.2609,1.2693,1.245,1.2678,1.289,1.289,1.3622,1.4223,1.4355,1.5124,1.5671,1.5671,1.5765,1.5832,1.5784,1.5784,1.5685,1.5344,1.5317,1.4967,1.4165,1.4095,1.383,1.3286,1.2582,1.2227,1.2138,1.1168,1.0683,0.0,0.0,0.0,0.0,0.0,0.0,1.6237,1.7367,1.8062,1.8491,1.9067,1.939,1.9557,1.9597,1.999,2.0527,2.0789,2.0992,2.1195,2.1578,2.1731,2.1731,2.154,2.1423,2.1334,2.1223,2.127,2.1372,2.1415,2.1436,2.1436,2.1436,2.1282,2.1089,2.0945,2.0927,2.0898,2.0723,2.1035,2.1123,2.0429,2.0175,1.9881,1.9377,1.9583,1.9927,2.0162,2.0093,2.0009,1.9936,2.0122,2.0007,1.9416,1.9483,1.9638,1.991,1.9637,2.0321,2.2273,2.2046,2.2748,2.4724,2.4399,2.442,2.4903,2.47,2.47,2.4903,2.5115,2.5338,2.5612,2.578,2.5853,2.5895,2.5895,2.5895,2.5895,2.5895,2.5895,2.5895,2.5895,2.5895,2.5895,2.5895,2.5895,2.5895,1.2863,1.2851,1.2856,1.2837,1.2956,1.3061,1.3085,1.388,1.4376,1.3965,1.4523,1.5021,1.5226,1.5551,1.5784,1.5784,1.5691,1.5545,1.5404,1.511,1.4772,1.4355,1.411,1.3838,1.3568,1.2867,1.2435,1.2292,1.1229,1.0825,1.1023,1.0797,0.0,1.2444,0.0,1.5116,0.0,1.7388,1.7957,1.8315,1.9024,1.9429,1.9645,1.9882,2.0294,2.076,2.0847,2.1146,2.154,2.1731,2.1807,2.1769,2.1693,2.1655,2.1655,2.154,2.1578,2.1655,2.1655,2.1655,2.1655,2.1655,2.1436,2.1167,2.1099,2.0896,2.0731,2.0605,2.0732,2.0684,2.0039,1.9912,1.9775,1.9355,1.9536,1.9868,2.0309,2.0396,2.0371,2.0165,2.0541,2.0403,1.9381,1.9605,1.9697,1.9474,1.945,2.0155,2.1694,2.1703,2.2509,2.4336,2.4148,2.4252,2.47,2.4583,2.4615,2.4903,2.4988,2.5253,2.5601,2.5686,2.5822,2.5895,2.5895,2.5895,2.5895,2.5895,2.5895,2.5895,2.5895,2.5895,2.5895,2.5895,2.5895,2.5895,1.3209,1.3008,1.2915,1.3225,1.3253,1.322,1.3233,1.3877,1.421,1.3804,1.4174,1.4594,1.4884,1.5405,1.5758,1.5778,1.5504,1.5304,1.5304,1.481,1.4489,1.4429,1.3989,1.3779,1.3779,1.3166,1.2682,1.2372,1.1427,1.1053,1.13,1.1141,1.1897,1.3428,1.4728,1.5659,1.6258,1.7334,1.7969,1.8274,1.9017,1.9469,1.9715,2.0147,2.0527,2.0904,2.0943,2.1271,2.1741,2.1883,2.1952,2.1932,2.1838,2.1942,2.2087,2.1983,2.2025,2.2076,2.1983,2.1952,2.1932,2.1828,2.154,2.132,2.1282,2.1002,2.0722,2.0683,2.0644,2.0468,2.0,1.999,1.9883,1.9375,1.9594,1.9919,2.0282,2.0694,2.0801,2.0416,2.0936,2.0751,1.9402,1.9609,1.9638,1.9129,1.944,2.0135,2.1207,2.1331,2.2136,2.3763,2.3681,2.3836,2.4292,2.4489,2.47,2.4903,2.4988,2.5253,2.5601,2.5644,2.5728,2.5895,2.5895,2.5895,2.5895,2.5895,2.5895,2.5895,2.5895,2.5895,2.5895,2.5895,2.5895,2.5895,1.2837,1.2923,1.2942,1.316,1.3245,1.324,1.306,1.3448,1.4038,1.4772,1.5092,1.5378,1.5671,1.5558,1.5545,1.5758,1.5324,1.5048,1.5048,1.4703,1.4402,1.4135,1.4102,1.4046,1.4046,1.3505,1.3007,1.2571,1.2047,1.1625,1.1314,1.2421,1.3767,1.5267,1.5608,1.6129,1.6874,1.7524,1.8132,1.8696,1.9127,1.9548,1.9902,2.0186,2.0547,2.0935,2.1308,2.1471,2.1602,2.2216,2.2428,2.2356,2.1932,2.2387,2.2977,2.2553,2.2729,2.2967,2.2542,2.2428,2.2335,2.1911,2.1769,2.1693,2.1502,2.132,2.1089,2.0906,2.0731,2.0468,2.0,2.0244,2.0273,1.9424,1.9932,2.0525,2.0788,2.1329,2.143,2.073,2.1058,2.0717,1.9258,1.9283,1.9293,1.9108,1.9139,1.9938,2.1652,2.0607,2.1079,2.3456,2.2962,2.2922,2.3592,2.4451,2.4861,2.4903,2.5338,2.5559,2.5612,2.577,2.5895,2.5895,2.5895,2.5895,2.5895,2.5895,2.5895,2.5895,2.5895,2.5895,2.5895,2.5895,2.5895,2.5895,1.337,1.3343,1.3405,1.3707,1.3517,1.3372,1.3631,1.3665,1.3923,1.4599,1.4796,1.4983,1.5277,1.5204,1.5184,1.5297,1.4937,1.4696,1.4696,1.4422,1.4208,1.4088,1.4088,1.4088,1.4088,1.371,1.3389,1.3022,1.2374,1.2329,1.2848,1.3046,1.4119,1.5885,1.6283,1.6742,1.7312,1.8044,1.8483,1.8742,1.9146,1.9539,1.9942,2.0186,2.0547,2.0915,2.1045,2.1451,2.1939,2.203,2.2263,2.2511,2.2604,2.2894,2.3153,2.2967,2.3039,2.3153,2.2956,2.2915,2.2801,2.2335,2.2144,2.1916,2.142,2.1244,2.1128,2.0945,2.0935,2.0875,2.0543,2.0662,2.0623,2.0155,2.0348,2.0761,2.135,2.1412,2.1313,2.1108,2.0938,2.0391,1.9102,1.9282,1.9324,1.9007,1.9041,1.9624,2.0907,2.099,2.1441,2.2442,2.3438,2.3751,2.3316,2.4493,2.5031,2.4903,2.5391,2.5601,2.5612,2.5812,2.5895,2.5895,2.5895,2.5895,2.5895,2.5895,2.5895,2.5895,2.5895,2.5895,2.5895,2.5895,2.5895,2.5895,1.3675,1.3616,1.3693,1.4035,1.3706,1.355,1.3922,1.3822,1.3851,1.4233,1.4346,1.4536,1.4968,1.4928,1.4914,1.5001,1.4616,1.4429,1.4466,1.4249,1.4088,1.4088,1.4088,1.4088,1.4088,1.3913,1.3719,1.3586,1.3141,1.3418,1.4382,1.4337,1.5171,1.6689,1.7067,1.7486,1.7889,1.8467,1.8779,1.8898,1.9063,1.9437,1.9942,2.0186,2.0586,2.1036,2.13,2.179,2.2309,2.2402,2.2635,2.2936,2.3122,2.337,2.3557,2.3432,2.3484,2.3557,2.3422,2.3391,2.3277,2.2811,2.2486,2.2143,2.17,2.1411,2.1244,2.1022,2.1099,2.1177,2.1022,2.0945,2.0818,2.0516,2.0749,2.1096,2.1546,2.1622,2.158,2.1341,2.101,2.0361,1.9233,1.9413,1.953,1.9328,1.9328,1.9778,2.0719,2.1073,2.1493,2.207,2.3459,2.3887,2.3275,2.4576,2.5158,2.5126,2.5517,2.5686,2.5686,2.5853,2.5895,2.5895,2.5895,2.5895,2.5895,2.5895,2.5895,2.5895,2.5895,2.5895,2.5895,2.5895,2.5895,2.5895,1.3553,1.3606,1.3693,1.4035,1.3864,1.3688,1.3695,1.3695,1.3695,1.3695,1.3919,1.4315,1.4948,1.4703,1.4643,1.4981,1.4429,1.4215,1.4502,1.4249,1.4088,1.4088,1.4088,1.4088,1.4088,1.4088,1.4178,1.4291,1.4534,1.496,1.5524,1.6692,1.7533,1.8063,1.8072,1.833,1.8696,1.8705,1.8935,1.9256,1.8871,1.9195,1.9942,2.0186,2.0692,2.1319,2.2382,2.2666,2.2624,2.3577,2.3857,2.3784,2.3329,2.3805,2.4394,2.4002,2.4178,2.4383,2.3991,2.3867,2.3764,2.3298,2.2832,2.249,2.249,2.1984,2.1436,2.1244,2.1205,2.1205,2.1205,2.1022,2.0757,2.0282,2.1083,2.1652,2.1254,2.2227,2.2567,2.142,2.1301,2.0855,1.969,1.9605,1.9807,2.023,2.0102,2.0502,2.1637,2.0512,2.0715,2.2741,2.2629,2.2858,2.3507,2.4607,2.5327,2.5601,2.5822,2.5895,2.5895,2.5895,2.5895,2.5895,2.5895,2.5895,2.5895,2.5895,2.5895,2.5895,2.5895,2.5895,2.5895,2.5895,2.5895,2.5895,1.3928,1.3948,1.3975,1.4075,1.3737,1.361,1.3913,1.3695,1.361,1.3913,1.4039,1.4162,1.4392,1.4282,1.4262,1.4398,1.4195,1.4128,1.4222,1.4135,1.4377,1.4943,1.4831,1.5117,1.5842,1.5726,1.5756,1.5955,1.5853,1.603,1.6526,1.7437,1.8072,1.8522,1.8522,1.8742,1.91,1.8825,1.9109,1.9696,1.9481,1.9961,2.0825,2.1029,2.137,2.174,2.2237,2.2641,2.3047,2.3482,2.3948,2.4259,2.4115,2.427,2.4466,2.4332,2.4394,2.4423,2.4161,2.4205,2.4177,2.3556,2.3176,2.2844,2.2415,2.1867,2.1512,2.1578,2.1617,2.1589,2.1436,2.1446,2.1401,2.1134,2.1469,2.1871,2.1989,2.2083,2.1944,2.1553,2.0911,2.0226,1.9522,1.9749,1.9846,1.9555,2.009,2.0722,2.1465,2.1584,2.1783,2.2091,2.3428,2.3856,2.3305,2.4576,2.5158,2.5126,2.5517,2.578,2.5895,2.5895,2.5895,2.5895,2.5895,2.5895,2.5895,2.5895,2.5895,2.5906,2.5728,2.577,2.5895,2.5728,2.577,2.5895,1.4088,1.4088,1.4088,1.3955,1.3786,1.3695,1.3828,1.3737,1.3737,1.3913,1.4046,1.4046,1.3955,1.3955,1.3997,1.4088,1.3997,1.3997,1.4088,1.4088,1.4496,1.5352,1.5043,1.5442,1.6657,1.6129,1.6243,1.7074,1.7256,1.7504,1.7861,1.833,1.8696,1.8935,1.8935,1.9072,1.9292,1.921,1.9427,1.9907,1.9932,2.0423,2.1224,2.1464,2.1787,2.218,2.2631,2.307,2.3481,2.3778,2.4132,2.4497,2.4497,2.4497,2.4497,2.4497,2.4464,2.4368,2.4249,2.4292,2.4307,2.3849,2.3618,2.3288,2.2573,2.2084,2.1757,2.1786,2.1786,2.1747,2.1641,2.1809,2.1909,2.1788,2.192,2.2116,2.2352,2.2283,2.2125,2.1884,2.1296,2.0739,2.0282,2.0478,2.0575,2.0366,2.0922,2.1617,2.237,2.2209,2.2192,2.2431,2.3875,2.442,2.398,2.4871,2.5338,2.5295,2.5559,2.577,2.5895,2.5895,2.5895,2.5895,2.5895,2.5895,2.5895,2.5895,2.5895,2.5906,2.577,2.577,2.5895,2.577,2.577,2.5895,1.4088,1.4088,1.3997,1.3779,1.3913,1.3913,1.3483,1.3786,1.3955,1.3737,1.3913,1.4004,1.3737,1.3695,1.3779,1.4046,1.3828,1.3822,1.4088,1.4068,1.4475,1.5436,1.4902,1.5271,1.6773,1.5685,1.5952,1.7738,1.855,1.9085,1.9301,1.9329,1.9347,1.9347,1.9375,1.9384,1.9412,1.9729,1.9921,2.0008,2.0235,2.0724,2.1309,2.1569,2.2029,2.265,2.3474,2.3754,2.3884,2.4325,2.4454,2.4497,2.4497,2.4497,2.4497,2.4497,2.4368,2.4206,2.4163,2.4153,2.4153,2.4153,2.4039,2.367,2.2951,2.2493,2.2158,2.1899,2.1859,2.1859,2.1859,2.2069,2.2254,2.2254,2.2372,2.2434,2.2443,2.2781,2.2833,2.2342,2.2346,2.2171,2.1691,2.1669,2.1876,2.2299,2.2391,2.2922,2.396,2.2465,2.2212,2.36,2.4021,2.4566,2.52,2.5433,2.5696,2.5895,2.5895,2.5906,2.5895,2.5895,2.5895,2.5895,2.5895,2.5895,2.5895,2.5895,2.5895,2.5895,2.5895,2.5906,2.5895,2.5895,2.5906,2.5906,1.4088,1.4088,1.4088,1.3997,1.3743,1.3568,1.361,1.361,1.361,1.3695,1.3913,1.4004,1.3737,1.3568,1.3483,1.3568,1.3652,1.3822,1.4088,1.3874,1.453,1.6322,1.5548,1.6014,1.7961,1.7286,1.7315,1.8252,1.8446,1.8804,1.9311,1.9591,1.9747,1.9756,2.009,2.0237,2.0218,1.9976,2.0232,2.0805,2.0755,2.1316,2.2138,2.2409,2.2684,2.2998,2.3193,2.3493,2.3841,2.3927,2.4186,2.4497,2.4497,2.4497,2.4497,2.4497,2.4368,2.4163,2.3927,2.3884,2.3884,2.3884,2.3732,2.3452,2.29,2.2605,2.2413,2.2362,2.2321,2.2321,2.2321,2.2517,2.2648,2.2648,2.28,2.294,2.2929,2.2987,2.2816,2.2339,2.263,2.2652,2.2193,2.2466,2.268,2.2674,2.2798,2.301,2.3392,2.3424,2.3876,2.4755,2.4777,2.4883,2.52,2.5242,2.5422,2.5686,2.5686,2.5728,2.5895,2.5895,2.5895,2.5895,2.5895,2.5895,2.5895,2.5895,2.5895,2.5895,2.5728,2.577,2.5895,2.5728,2.578,2.595,1.4088,1.4088,1.4046,1.3955,1.3695,1.3519,1.344,1.3483,1.3519,1.3568,1.3779,1.3828,1.361,1.3398,1.3307,1.3392,1.3434,1.3568,1.3913,1.3761,1.4517,1.6494,1.5904,1.6526,1.862,1.7796,1.7661,1.8273,1.8539,1.8985,1.9595,1.9622,1.9802,2.0159,2.0195,2.0347,2.0521,2.0484,2.0714,2.1089,2.1135,2.1605,2.229,2.2461,2.2717,2.2969,2.3188,2.3493,2.3841,2.3937,2.4196,2.4497,2.4368,2.4411,2.4454,2.4239,2.41,2.398,2.3841,2.3711,2.3667,2.3797,2.3702,2.3556,2.3187,2.2892,2.2669,2.2534,2.2492,2.2492,2.2492,2.2722,2.2896,2.2709,2.2922,2.3043,2.2824,2.2917,2.2972,2.2953,2.3138,2.3329,2.3318,2.3536,2.3651,2.3585,2.372,2.3909,2.4111,2.4403,2.4707,2.486,2.4999,2.5073,2.52,2.5338,2.538,2.5422,2.5559,2.5601,2.5591,2.5591,2.5644,2.577,2.577,2.5822,2.5895,2.5895,2.5895,2.5906,2.577,2.5812,2.5906,2.577,2.5964,2.6278,1.4088,1.4088,1.4046,1.3779,1.3737,1.3561,1.3185,1.3483,1.3652,1.344,1.361,1.3695,1.3483,1.3313,1.3264,1.3392,1.3222,1.3313,1.3737,1.3698,1.4518,1.6345,1.5997,1.6786,1.8854,1.7838,1.7547,1.8166,1.8662,1.9267,1.9884,1.9622,1.9888,2.0594,2.0287,2.0351,2.068,2.1062,2.12,2.12,2.1426,2.177,2.2148,2.2193,2.2496,2.2891,2.3329,2.3624,2.3841,2.412,2.4325,2.4411,2.4239,2.4292,2.4325,2.3927,2.3797,2.3754,2.3754,2.3624,2.3547,2.3711,2.3754,2.3711,2.3547,2.3216,2.2873,2.265,2.2607,2.2607,2.2607,2.2857,2.3008,2.2663,2.2896,2.2959,2.2542,2.2845,2.3275,2.3651,2.376,2.4039,2.4541,2.453,2.4552,2.4694,2.4816,2.4981,2.5284,2.528,2.5103,2.4698,2.5029,2.52,2.52,2.5391,2.5391,2.52,2.5391,2.538,2.52,2.5242,2.538,2.5601,2.5644,2.5738,2.5895,2.5895,2.5895,2.5895,2.5895,2.5895,2.5906,2.5941,2.6182,2.6563,1.4088,1.4088,1.4088,1.4039,1.3864,1.361,1.3392,1.3568,1.3652,1.344,1.3779,1.3955,1.3695,1.3652,1.3568,1.3398,1.3355,1.3568,1.3997,1.3765,1.4502,1.6568,1.6055,1.6572,1.8431,1.7866,1.7792,1.8341,1.8452,1.8985,1.9893,2.0159,2.0576,2.1025,2.1284,2.1449,2.1504,2.1568,2.1595,2.1595,2.164,2.1943,2.2344,2.2366,2.2648,2.3101,2.3373,2.3624,2.3841,2.412,2.4206,2.4249,2.4206,2.4067,2.3884,2.3841,2.3667,2.3547,2.3547,2.3503,2.3503,2.3547,2.3547,2.3547,2.3503,2.327,2.3047,2.3037,2.3003,2.3003,2.3003,2.3052,2.3085,2.3036,2.3074,2.3063,2.2937,2.3342,2.3674,2.3689,2.4104,2.4552,2.5022,2.4716,2.4825,2.5622,2.536,2.5349,2.5764,2.5642,2.5485,2.5452,2.5295,2.52,2.52,2.5073,2.5073,2.52,2.5073,2.5073,2.52,2.5422,2.5559,2.5601,2.577,2.5853,2.5895,2.5895,2.5895,2.5895,2.5895,2.5895,2.5908,2.6087,2.6195,2.6368,1.4529,1.4302,1.4188,1.4546,1.4249,1.3974,1.4043,1.415,1.415,1.4062,1.4113,1.4101,1.3965,1.37,1.3519,1.3568,1.3568,1.3695,1.4088,1.3829,1.4303,1.5767,1.6123,1.7017,1.8713,1.8473,1.8572,1.9069,1.9069,1.9566,2.0567,2.0488,2.0765,2.128,2.1323,2.1441,2.1571,2.1651,2.1696,2.1668,2.1449,2.1706,2.2236,2.2273,2.2548,2.2969,2.3363,2.3624,2.3797,2.3807,2.398,2.4163,2.3894,2.3807,2.3754,2.3493,2.345,2.346,2.3319,2.3276,2.3276,2.3276,2.3276,2.3276,2.3276,2.3188,2.3091,2.3091,2.3091,2.3091,2.3091,2.3091,2.3041,2.2824,2.2975,2.3084,2.3114,2.3495,2.3946,2.4436,2.4716,2.5043,2.5513,2.5371,2.5426,2.5874,2.5688,2.5666,2.5884,2.5812,2.5644,2.538,2.5158,2.4988,2.4828,2.4861,2.4861,2.4828,2.4861,2.4861,2.4828,2.5084,2.5295,2.538,2.5644,2.5822,2.5895,2.5895,2.5895,2.5895,2.5895,2.5895,2.5919,2.6131,2.6455,2.6866,1.4961,1.4646,1.4479,1.4928,1.4643,1.4432,1.4603,1.4636,1.4681,1.4591,1.4491,1.4403,1.4403,1.4026,1.3847,1.3982,1.4018,1.4111,1.4289,1.4051,1.4276,1.5124,1.6337,1.7676,1.9177,1.9217,1.9408,1.9797,1.9797,2.0243,2.1099,2.0796,2.0923,2.1383,2.1269,2.1306,2.1392,2.1607,2.1696,2.1668,2.1339,2.1667,2.228,2.2246,2.2549,2.3023,2.3373,2.358,2.3711,2.3634,2.3764,2.398,2.359,2.3537,2.358,2.3232,2.3232,2.3363,2.3144,2.3091,2.3091,2.3091,2.3091,2.3091,2.3091,2.3091,2.3091,2.3091,2.3091,2.3091,2.3091,2.3091,2.2998,2.2706,2.2895,2.3165,2.3316,2.3633,2.4215,2.5087,2.5215,2.536,2.5852,2.5797,2.5775,2.5895,2.5895,2.5895,2.5895,2.5864,2.5644,2.5158,2.4903,2.47,2.4497,2.47,2.47,2.4497,2.47,2.47,2.4497,2.4786,2.4988,2.52,2.5475,2.5686,2.5812,2.5895,2.5853,2.5812,2.5895,2.5972,2.6082,2.6303,2.6812,2.7466,1.5008,1.4975,1.4955,1.5001,1.4995,1.4847,1.4636,1.4822,1.4867,1.4636,1.4802,1.493,1.493,1.491,1.4897,1.4897,1.4897,1.4897,1.4941,1.4643,1.4699,1.5367,1.6984,1.8501,1.9798,1.9847,2.004,2.0433,2.0433,2.0653,2.1108,2.1071,2.1178,2.1392,2.1579,2.1579,2.1392,2.1607,2.1696,2.1687,2.1659,2.2104,2.2706,2.2492,2.2809,2.346,2.3503,2.3503,2.3547,2.3711,2.3667,2.3547,2.3503,2.3319,2.3135,2.3091,2.3091,2.3144,2.3101,2.3091,2.3091,2.3091,2.3091,2.3091,2.3091,2.3091,2.3091,2.3091,2.3091,2.3091,2.3091,2.3091,2.3085,2.3068,2.3094,2.3267,2.368,2.4147,2.4618,2.5123,2.5215,2.536,2.5852,2.5491,2.5415,2.5874,2.5895,2.5895,2.5895,2.5728,2.5433,2.4946,2.4668,2.4497,2.4497,2.4497,2.4497,2.4497,2.454,2.4497,2.4497,2.4786,2.4988,2.52,2.5475,2.5601,2.5654,2.5812,2.577,2.5644,2.5822,2.6179,2.6595,2.6855,2.7241,2.7739,1.5464,1.5211,1.5122,1.5438,1.5351,1.5291,1.5332,1.5451,1.5451,1.5358,1.5298,1.5231,1.5231,1.5115,1.5008,1.5008,1.5008,1.5008,1.5008,1.4901,1.5005,1.5374,1.6781,1.8045,1.9085,1.9873,2.0484,2.0879,2.0879,2.1099,2.1449,2.1449,2.1461,2.1392,2.1607,2.1607,2.1392,2.1607,2.1696,2.1696,2.1696,2.1963,2.2407,2.2583,2.2838,2.311,2.3416,2.3503,2.3503,2.3406,2.3406,2.346,2.3319,2.3188,2.3091,2.3091,2.3091,2.3091,2.3091,2.3091,2.3091,2.3091,2.3091,2.3091,2.3091,2.3091,2.3091,2.3091,2.3091,2.3091,2.3091,2.3091,2.3086,2.3093,2.3093,2.3375,2.4148,2.4397,2.477,2.5548,2.5622,2.5699,2.5884,2.5732,2.5699,2.5884,2.5895,2.5895,2.5895,2.5549,2.52,2.4903,2.4625,2.4497,2.4497,2.4497,2.4497,2.4497,2.4497,2.4497,2.4497,2.4786,2.4988,2.52,2.5475,2.5686,2.577,2.5853,2.5853,2.5802,2.6192,2.642,2.6682,2.7233,2.7623,2.793,1.5744,1.5504,1.5357,1.5758,1.5665,1.5598,1.5751,1.5784,1.5784,1.5784,1.5658,1.5531,1.5531,1.5351,1.5237,1.5237,1.5237,1.5237,1.5237,1.515,1.5315,1.5681,1.6533,1.76,1.8939,1.9795,2.0596,2.131,2.131,2.1412,2.1696,2.1696,2.1607,2.1392,2.1607,2.1607,2.1392,2.1607,2.1696,2.1696,2.1696,2.1909,2.223,2.253,2.275,2.2925,2.3276,2.3363,2.3373,2.3144,2.3232,2.3319,2.3144,2.3091,2.3091,2.3091,2.3091,2.3091,2.3091,2.3091,2.3091,2.3091,2.3091,2.3091,2.3091,2.3091,2.3091,2.3091,2.3091,2.3091,2.3091,2.3091,2.3091,2.3091,2.3106,2.3393,2.4168,2.4398,2.4786,2.56,2.5812,2.5895,2.5895,2.5895,2.5895,2.5895,2.5895,2.5853,2.5812,2.5422,2.5115,2.4903,2.4743,2.4625,2.4625,2.454,2.454,2.4615,2.454,2.4497,2.4497,2.47,2.4946,2.52,2.538,2.5601,2.5812,2.5853,2.5952,2.6073,2.6453,2.6769,2.7107,2.7627,2.7998,2.8263,1.5784,1.5784,1.5784,1.5784,1.5784,1.5784,1.5784,1.5784,1.5784,1.5784,1.5784,1.5784,1.5784,1.5784,1.5784,1.5784,1.5784,1.5784,1.5784,1.5558,1.5675,1.6286,1.6316,1.7386,1.9648,1.971,2.0342,2.1696,2.1696,2.1696,2.1696,2.1696,2.1607,2.1392,2.1607,2.1607,2.1446,2.1607,2.1696,2.1696,2.1696,2.1998,2.2397,2.2397,2.2696,2.3091,2.3091,2.3091,2.3091,2.3091,2.3091,2.3091,2.3091,2.3091,2.3091,2.3091,2.3091,2.3091,2.3091,2.3091,2.3091,2.3091,2.3091,2.3091,2.3091,2.3091,2.3091,2.3091,2.3091,2.3091,2.3091,2.3091,2.3091,2.3091,2.3091,2.3276,2.3711,2.4209,2.4669,2.5158,2.5591,2.5895,2.5895,2.5895,2.5895,2.5895,2.5895,2.5812,2.5601,2.5338,2.5115,2.4903,2.4903,2.4903,2.4903,2.4625,2.4625,2.4903,2.4615,2.4497,2.4497,2.4497,2.4743,2.52,2.52,2.538,2.5612,2.5822,2.6063,2.6325,2.6552,2.7173,2.7991,2.8002,2.8342,2.8803,1.5784,1.5784,1.5784,1.5784,1.5784,1.5784,1.5784,1.5784,1.5784,1.5784,1.5784,1.5784,1.5784,1.5784,1.5784,1.5784,1.5784,1.5784,1.5784,1.5752,1.5752,1.5937,1.6442,1.7356,1.871,1.9636,2.0649,2.1696,2.1696,2.1696,2.1696,2.1696,2.1651,2.1607,2.1651,2.1651,2.1607,2.1651,2.1696,2.1696,2.1696,2.1919,2.2185,2.2353,2.2618,2.2882,2.2882,2.2969,2.3091,2.2925,2.2969,2.3091,2.3091,2.3091,2.3091,2.3091,2.3232,2.3319,2.3135,2.3232,2.3319,2.3144,2.3091,2.3091,2.3091,2.3091,2.3091,2.3091,2.3091,2.3091,2.3091,2.3091,2.3091,2.3091,2.3091,2.3276,2.3711,2.3917,2.4166,2.4627,2.5105,2.5422,2.5422,2.5728,2.5895,2.5895,2.5895,2.5728,2.5338,2.5242,2.5115,2.4903,2.4903,2.5084,2.5391,2.5126,2.5031,2.5115,2.4914,2.4861,2.4988,2.4871,2.5041,2.5475,2.5475,2.5601,2.5844,2.6224,2.6453,2.6563,2.7315,2.7751,2.8034,2.8418,2.8683,2.8803,1.5784,1.573,1.573,1.5778,1.5784,1.5784,1.5784,1.5784,1.5784,1.5784,1.5784,1.5784,1.5784,1.5784,1.5784,1.5784,1.5879,1.5927,1.5832,1.5879,1.5927,1.5784,1.6253,1.711,1.847,1.9269,2.0167,2.1132,2.1508,2.1508,2.1132,2.1553,2.1696,2.1696,2.1696,2.1696,2.1696,2.1696,2.1696,2.1696,2.1696,2.1785,2.1963,2.2176,2.2397,2.2539,2.2618,2.2794,2.2969,2.2838,2.2925,2.3091,2.3091,2.3091,2.3091,2.3091,2.3232,2.3319,2.3144,2.3232,2.3319,2.3144,2.3091,2.3091,2.3091,2.3091,2.3091,2.3091,2.3091,2.3091,2.3091,2.3091,2.3091,2.3091,2.3091,2.3178,2.3484,2.3667,2.3917,2.4209,2.4807,2.52,2.52,2.5633,2.5895,2.5895,2.5895,2.5686,2.5242,2.5285,2.5211,2.4903,2.5084,2.5295,2.5601,2.5506,2.5422,2.538,2.5115,2.5073,2.52,2.5073,2.5253,2.5601,2.5601,2.5728,2.5939,2.6291,2.6596,2.6933,2.7606,2.8065,2.8353,2.8694,2.8803,2.8803,1.573,1.5635,1.5588,1.5784,1.5784,1.5784,1.5784,1.5784,1.5784,1.5784,1.5784,1.5784,1.5784,1.5784,1.5784,1.5784,1.6028,1.6076,1.5832,1.6076,1.6076,1.5832,1.5832,1.6709,1.8603,1.865,1.9201,2.0294,2.1177,2.1177,2.0439,2.132,2.1696,2.1696,2.1696,2.1696,2.1696,2.1696,2.1696,2.1696,2.1696,2.1687,2.1785,2.2008,2.2097,2.2141,2.2309,2.253,2.2759,2.2759,2.2925,2.3091,2.3091,2.3135,2.3135,2.3101,2.3135,2.3135,2.3091,2.3135,2.3144,2.3101,2.3091,2.3091,2.3091,2.3091,2.3091,2.3091,2.3091,2.3091,2.3091,2.3091,2.3091,2.3091,2.3091,2.3091,2.3091,2.3493,2.3754,2.3754,2.4519,2.5073,2.5115,2.5591,2.5895,2.5895,2.5895,2.5728,2.5242,2.5475,2.5391,2.4999,2.5391,2.5601,2.5644,2.5812,2.5812,2.5601,2.538,2.5242,2.5242,2.5242,2.538,2.5644,2.5644,2.5728,2.5939,2.6195,2.6704,2.7315,2.7668,2.8191,2.8803,2.8757,2.8757,2.8803,1.5588,1.5642,1.5737,1.5778,1.5784,1.5784,1.5784,1.5784,1.5784,1.5784,1.5784,1.5784,1.5784,1.5784,1.5784,1.5784,1.5832,1.5927,1.6123,1.6177,1.6177,1.6123,1.6123,1.6588,1.7606,1.7652,1.8519,2.0294,2.0484,2.0898,2.141,2.1597,2.1696,2.1696,2.1696,2.1696,2.1696,2.1696,2.1696,2.1696,2.1696,2.183,2.2008,2.2097,2.2185,2.2309,2.223,2.2185,2.2274,2.2441,2.275,2.3091,2.3091,2.3232,2.3363,2.3144,2.3353,2.358,2.3178,2.3232,2.3363,2.3135,2.3091,2.3091,2.3091,2.3091,2.3091,2.3091,2.3091,2.3091,2.3091,2.3091,2.3091,2.3091,2.3091,2.3091,2.3091,2.3188,2.3266,2.3266,2.3744,2.4262,2.4627,2.5422,2.5895,2.5895,2.5895,2.577,2.5517,2.5559,2.5559,2.5433,2.5559,2.5696,2.5812,2.5895,2.5895,2.5812,2.5601,2.5601,2.5728,2.5601,2.5644,2.5812,2.5812,2.5864,2.5961,2.6726,2.7173,2.7403,2.822,2.8669,2.8757,2.8581,2.8628,2.8803,1.5635,1.5635,1.5689,1.5784,1.5784,1.5784,1.5784,1.5784,1.5784,1.5784,1.5784,1.5784,1.5784,1.5784,1.5784,1.5784,1.5927,1.6028,1.6177,1.6312,1.64,1.64,1.64,1.6494,1.6777,1.6777,1.7466,1.888,1.9338,1.9849,2.0311,2.0808,2.1275,2.1696,2.1696,2.1696,2.1696,2.1696,2.1696,2.1696,2.1696,2.1785,2.1919,2.1794,2.1874,2.2043,2.183,2.1963,2.2309,2.2618,2.2882,2.3091,2.3091,2.3188,2.3276,2.3144,2.3266,2.3396,2.3178,2.3188,2.3276,2.3144,2.3091,2.3091,2.3091,2.3091,2.3091,2.3091,2.3091,2.3091,2.3091,2.3091,2.3091,2.3091,2.3091,2.3091,2.3091,2.3091,2.3091,2.3091,2.3527,2.409,2.4765,2.5464,2.5895,2.5895,2.5895,2.577,2.5422,2.5517,2.5559,2.5422,2.5517,2.5696,2.5895,2.5895,2.5895,2.5895,2.577,2.5822,2.5895,2.577,2.5822,2.5895,2.5895,2.5942,2.6118,2.6856,2.7279,2.7551,2.8335,2.871,2.8757,2.8488,2.8488,2.8617,1.5737,1.5635,1.5588,1.5784,1.5784,1.5784,1.5784,1.5784,1.5784,1.5784,1.5784,1.5784,1.5784,1.5784,1.5784,1.5784,1.5981,1.617,1.6224,1.6447,1.6588,1.6588,1.6636,1.6494,1.6224,1.6224,1.6548,1.7279,1.8149,1.8611,1.8834,1.984,2.0718,2.1463,2.1642,2.1696,2.1696,2.1696,2.1696,2.1696,2.1696,2.1696,2.1607,2.1482,2.1482,2.1553,2.1437,2.1874,2.253,2.2882,2.3047,2.3178,2.3232,2.3222,2.3222,2.3222,2.3232,2.3276,2.3188,2.3188,2.3144,2.3091,2.3091,2.3091,2.3091,2.3091,2.3091,2.3091,2.3091,2.3091,2.3091,2.3091,2.3091,2.3091,2.3091,2.3091,2.3091,2.3091,2.3091,2.3091,2.357,2.4176,2.4903,2.5506,2.5853,2.5812,2.5812,2.5686,2.5285,2.5422,2.5464,2.5285,2.5475,2.5696,2.5895,2.5895,2.5895,2.5895,2.5895,2.5895,2.5895,2.5895,2.5895,2.5895,2.5895,2.6041,2.6292,2.6832,2.7308,2.7817,2.8304,2.8617,2.8757,2.8535,2.8441,2.8441,1.5588,1.5642,1.5784,1.5784,1.5784,1.5784,1.5784,1.5784,1.5784,1.5784,1.5784,1.5784,1.5784,1.5784,1.5784,1.5784,1.5832,1.5927,1.617,1.6447,1.6588,1.6588,1.6831,1.6697,1.6224,1.6224,1.6548,1.7279,1.7419,1.7971,1.8834,1.984,2.0393,2.0529,2.132,2.1696,2.1696,2.1696,2.1696,2.1696,2.1696,2.1607,2.1437,2.1392,2.1284,2.1132,2.1338,2.1963,2.2706,2.2574,2.2925,2.3503,2.3667,2.3711,2.3711,2.3711,2.3884,2.398,2.3547,2.346,2.3406,2.3144,2.3091,2.3091,2.3091,2.3091,2.3091,2.3091,2.3091,2.3091,2.3091,2.3091,2.3091,2.3091,2.3091,2.3091,2.3091,2.3091,2.3091,2.3091,2.3864,2.4294,2.4013,2.5168,2.5728,2.5327,2.5517,2.5601,2.5559,2.538,2.5338,2.5559,2.5559,2.5696,2.5895,2.5895,2.5895,2.5895,2.5895,2.5895,2.5895,2.5895,2.5895,2.5895,2.5895,2.6137,2.6574,2.7086,2.7565,2.8,2.8525,2.8757,2.8803,2.8757,2.8617,2.8441,1.5689,1.573,1.5784,1.5784,1.5784,1.5784,1.5784,1.5784,1.5784,1.5784,1.5784,1.5784,1.5784,1.5784,1.5784,1.5784,1.5784,1.5927,1.617,1.6447,1.6588,1.6588,1.6965,1.6878,1.6224,1.6359,1.6447,1.644,1.644,1.6998,1.7971,1.8427,1.9201,2.0294,2.0709,2.1221,2.1696,2.1696,2.1696,2.1696,2.1696,2.1651,2.1571,2.1437,2.1383,2.1454,2.182,2.2309,2.2803,2.2979,2.3319,2.3667,2.3634,2.3711,2.3797,2.3667,2.3807,2.3894,2.359,2.3503,2.346,2.3188,2.3091,2.3091,2.3091,2.3091,2.3091,2.3091,2.3091,2.3091,2.3091,2.3091,2.3091,2.3091,2.3091,2.3091,2.3091,2.3091,2.3091,2.3091,2.3701,2.4046,2.3841,2.4828,2.5411,2.52,2.5549,2.5728,2.5612,2.5338,2.5242,2.538,2.538,2.5464,2.5728,2.5853,2.5895,2.5906,2.5988,2.603,2.5895,2.5895,2.5964,2.6076,2.6225,2.6411,2.6658,2.7389,2.776,2.7863,2.8386,2.8384,2.8149,2.8279,2.8279,2.8196]}]]